GFSNGP_700_temp_084.txt.gz
Temp
4 4 5 4 5 5 6 7 7 7 7 7 7 7 7 8 8 8 7 7 7 7 7 6 6 6 6 6 6 6 5 5 4 4 4 3 2 2 2 2 2 1 1 1
4 4 3 3 3 5 6 7 7 7 7 7 8 8 8 8 8 8 7 7 7 7 6 6 6 6 6 5 5 5 5 4 4 4 3 3 2 3 2 2 2 1 1 1
3 3 3 3 3 4 5 6 6 7 7 8 7 8 8 8 7 7 7 7 7 7 7 7 6 6 6 5 5 4 4 3 3 3 3 3 3 3 2 2 1 1 1 0
2 2 2 1 3 4 5 6 6 6 7 7 7 7 7 7 7 7 7 7 7 6 6 6 6 5 5 5 4 3 3 3 3 2 2 2 2 2 2 2 2 1 0 0
0 1 3 2 4 5 5 5 6 6 7 7 7 7 7 7 7 7 7 6 6 6 6 6 5 5 4 4 4 3 3 3 3 3 3 3 3 3 2 2 1 0 -0 -1
-2 -2 -1 3 4 5 5 5 6 6 6 7 7 7 7 7 6 6 6 6 6 6 6 6 5 4 4 3 3 3 3 3 3 3 3 3 3 3 2 2 -1 -2 -2 -3
-1 -2 -0 3 3 4 4 5 6 6 6 6 6 6 6 6 6 6 6 6 6 5 5 5 4 4 4 4 3 3 3 3 3 2 2 2 2 2 1 -1 -2 -3 -4 -3
-2 -3 -2 2 3 3 3 4 5 5 5 5 5 5 6 5 5 5 5 5 5 4 4 5 4 4 3 3 3 3 3 2 2 2 2 1 1 0 -1 -3 -3 -3 -3 -4
0 1 2 2 2 2 3 4 4 5 5 5 5 5 5 5 5 5 4 4 4 4 4 4 4 3 3 3 2 2 2 2 2 1 1 1 -0 -1 -3 -4 -3 -4 -6 -5
0 1 1 2 2 1 2 3 4 4 4 4 4 5 5 4 4 4 4 4 4 4 4 3 3 3 2 2 2 2 2 1 1 1 0 -1 -2 -4 -5 -4 -4 -5 -5 -6
1 1 1 1 1 2 2 3 3 3 4 3 3 4 4 4 4 3 3 3 3 3 3 3 3 3 2 2 2 1 1 1 0 -0 -2 -3 -5 -5 -5 -5 -5 -6 -6 -7
1 2 1 1 1 2 2 3 3 3 2 2 3 3 3 3 3 3 3 3 3 2 2 2 2 2 2 1 0 -0 -1 -1 -2 -3 -5 -5 -5 -5 -5 -5 -6 -8 -9 -9
1 1 1 1 1 2 2 2 2 2 2 1 2 2 2 3 2 3 2 2 2 2 2 1 1 0 -1 -2 -2 -3 -3 -4 -4 -5 -6 -6 -6 -7 -8 -8 -8 -8 -8 -9
-0 0 1 1 1 1 2 2 2 2 2 2 2 2 2 2 2 2 1 1 1 1 0 -0 -1 -3 -4 -4 -5 -5 -6 -6 -7 -7 -8 -8 -8 -8 -9 -9 -9 -10 -10 -11
-0 0 1 1 1 1 2 1 2 2 2 1 1 2 2 1 1 1 0 0 -1 -1 -2 -3 -4 -5 -6 -6 -6 -7 -7 -7 -8 -8 -8 -9 -9 -9 -9 -10 -10 -11 -12 -12
-1 -0 1 1 1 1 1 1 1 1 1 1 1 1 0 0 -0 -1 -1 -2 -3 -3 -4 -5 -6 -6 -7 -7 -7 -7 -8 -8 -9 -9 -9 -10 -10 -10 -11 -12 -12 -12 -13 -14
-1 -1 0 0 0 1 0 0 0 0 0 0 0 -0 -0 -1 -1 -2 -3 -3 -4 -5 -5 -6 -7 -7 -7 -8 -8 -9 -9 -9 -10 -10 -10 -11 -11 -12 -12 -13 -13 -14 -14 -15
-1 -1 -0 0 0 0 -0 -1 -1 -1 -1 -1 -1 -1 -2 -2 -2 -3 -4 -5 -6 -6 -7 -7 -7 -8 -8 -9 -9 -10 -10 -10 -11 -11 -12 -12 -13 -13 -14 -14 -15 -15 -16 -17
-1 -0 -1 -1 -1 -1 -1 -1 -1 -1 -2 -2 -2 -3 -4 -3 -5 -6 -6 -7 -7 -8 -8 -8 -8 -9 -9 -9 -10 -10 -11 -11 -12 -12 -13 -13 -14 -14 -15 -16 -17 -17 -18 -19
-2 -2 -2 -2 -2 -2 -2 -2 -2 -2 -3 -3 -4 -4 -4 -5 -6 -7 -7 -7 -8 -8 -9 -9 -9 -10 -10 -11 -11 -11 -12 -12 -13 -13 -14 -15 -15 -16 -17 -18 -18 -19 -20 -21
-3 -2 -2 -2 -2 -2 -2 -3 -3 -4 -4 -4 -4 -5 -6 -7 -7 -8 -8 -9 -9 -9 -10 -10 -10 -11 -11 -12 -12 -13 -13 -14 -14 -15 -15 -16 -16 -17 -18 -19 -20 -21 -22 -22
-3 -3 -3 -3 -3 -4 -4 -4 -4 -5 -5 -6 -7 -8 -8 -8 -8 -9 -9 -10 -10 -10 -11 -11 -12 -12 -12 -13 -13 -14 -14 -15 -15 -16 -17 -17 -18 -19 -20 -21 -22 -23 -24 -25
-4 -4 -4 -4 -5 -5 -4 -5 -6 -7 -8 -8 -8 -8 -9 -9 -10 -10 -10 -11 -11 -12 -12 -13 -13 -13 -13 -14 -14 -15 -15 -16 -16 -17 -17 -18 -19 -20 -22 -23 -25 -26 -26 -26
-5 -5 -5 -5 -6 -7 -7 -8 -8 -8 -9 -9 -9 -10 -10 -10 -11 -11 -11 -12 -12 -13 -13 -13 -14 -14 -15 -15 -15 -16 -16 -17 -18 -18 -19 -21 -22 -23 -25 -26 -27 -27 -27 -28
-7 -7 -8 -8 -8 -8 -8 -9 -9 -10 -10 -10 -10 -11 -11 -11 -11 -12 -12 -13 -13 -13 -14 -14 -15 -15 -16 -16 -16 -17 -18 -19 -20 -20 -21 -22 -24 -25 -27 -27 -27 -28 -28 -28
-8 -8 -8 -9 -9 -10 -10 -10 -11 -11 -11 -11 -11 -11 -12 -12 -12 -13 -13 -13 -14 -14 -15 -15 -16 -16 -17 -17 -18 -19 -20 -20 -22 -23 -23 -24 -26 -26 -27 -27 -28 -28 -28 -28
-9 -10 -10 -10 -11 -11 -11 -11 -11 -11 -11 -11 -12 -12 -13 -13 -13 -14 -14 -15 -15 -15 -16 -16 -17 -17 -18 -19 -20 -20 -21 -22 -23 -24 -25 -26 -26 -27 -27 -27 -27 -27 -27 -27

GFSNGP_700_temp_087.txt.gz
Temp
1 2 4 4 5 5 5 5 6 6 6 7 7 7 7 7 7 7 7 7 7 7 7 7 6 6 6 6 6 6 5 5 5 5 4 3 3 3 2 2 2 1 2 2
0 2 3 4 4 5 5 5 4 5 6 7 7 7 7 7 7 7 7 7 7 7 7 7 6 6 6 6 6 5 5 5 4 4 4 3 3 3 2 2 2 2 1 1
-0 2 3 3 4 4 4 5 4 5 6 6 7 7 7 7 8 8 7 7 7 7 7 7 6 6 6 6 6 5 5 4 4 4 3 3 3 2 2 2 2 2 1 1
-1 1 0 2 3 4 4 4 4 4 6 6 7 7 7 7 7 8 7 7 7 7 7 6 6 6 6 5 5 4 4 3 3 3 3 3 2 2 1 1 1 2 1 1
-3 0 2 2 3 3 3 3 4 5 5 6 6 7 7 7 7 7 7 7 7 6 6 6 6 6 6 5 4 4 3 3 3 2 2 2 2 2 2 2 2 1 1 0
-2 -2 -2 2 3 3 1 1 4 4 5 6 6 7 7 7 7 7 7 6 6 6 6 6 6 5 5 4 4 3 3 2 2 2 2 2 2 3 3 3 2 -0 -1 -1
-3 -2 -0 2 2 1 -0 3 5 4 4 5 5 6 6 6 7 6 6 6 5 5 5 5 5 5 5 4 4 3 3 2 2 2 2 2 2 2 2 2 1 0 -2 -3
-2 -2 -2 2 1 2 2 4 3 3 3 5 5 5 5 6 6 6 5 5 5 5 5 5 4 4 4 4 3 3 3 3 3 2 2 2 2 1 1 1 -0 -2 -3 -3
-2 -1 1 1 1 1 0 2 2 3 2 4 4 5 5 5 5 5 5 4 4 4 4 4 4 4 4 3 3 3 2 2 2 2 1 1 1 1 0 -0 -2 -4 -4 -4
-0 1 0 1 1 1 0 1 1 1 3 4 4 4 5 5 4 4 4 4 4 4 4 4 3 3 3 3 2 2 2 1 1 1 1 0 -0 -1 -3 -4 -4 -4 -4 -4
-0 0 1 1 1 0 1 0 -0 1 1 2 2 3 3 3 3 3 3 3 3 3 3 3 3 2 2 2 1 1 0 -0 -0 -1 -2 -3 -3 -4 -5 -5 -4 -5 -5 -5
-1 -0 0 0 1 0 -1 -0 -0 -0 -1 -0 1 3 2 2 2 2 3 3 3 3 2 2 2 1 1 0 -0 -1 -2 -3 -3 -4 -4 -4 -5 -6 -5 -5 -6 -7 -7 -8
-1 -0 -0 0 1 1 -1 -0 0 1 -0 0 1 -0 1 -0 2 2 2 2 2 1 1 1 1 0 -1 -1 -2 -2 -3 -3 -4 -5 -5 -6 -7 -7 -7 -7 -8 -8 -8 -9
-1 -0 -0 0 0 1 1 -0 -0 1 1 1 0 0 -1 -1 -1 1 1 1 1 1 0 -0 -1 -2 -2 -3 -4 -5 -5 -6 -6 -6 -7 -8 -8 -8 -8 -9 -9 -9 -10 -10
-2 -2 -1 0 -0 0 1 -0 -1 -0 -1 -1 1 -1 0 0 -1 1 1 0 0 -0 -1 -2 -2 -3 -4 -5 -6 -6 -7 -7 -8 -8 -8 -8 -9 -9 -9 -10 -10 -10 -11 -11
-2 -2 -1 -1 -0 -0 0 -0 -0 0 0 1 1 1 0 0 0 -0 -0 -1 -1 -2 -2 -3 -4 -5 -6 -6 -7 -7 -7 -8 -8 -9 -9 -9 -10 -10 -11 -11 -11 -12 -12 -13
-2 -2 -2 -2 -1 -0 0 0 0 0 0 0 0 -0 -1 -1 -1 -2 -2 -2 -3 -3 -4 -5 -6 -6 -7 -7 -7 -8 -8 -9 -9 -9 -10 -10 -11 -11 -12 -12 -13 -13 -14 -14
-1 -1 -1 -2 -2 -1 -0 -0 -0 -0 -1 -1 -1 -1 -1 -2 -2 -2 -3 -3 -4 -5 -6 -6 -7 -7 -8 -8 -8 -9 -9 -10 -10 -11 -11 -11 -12 -12 -13 -13 -14 -14 -15 -16
-2 -2 -2 -2 -1 -1 -1 -1 -1 -1 -1 -1 -2 -2 -3 -3 -4 -4 -5 -5 -6 -7 -7 -8 -8 -8 -9 -9 -10 -10 -10 -11 -11 -11 -12 -12 -13 -13 -14 -14 -15 -16 -17 -18
-3 -2 -2 -2 -2 -2 -1 -1 -2 -2 -2 -2 -3 -4 -4 -4 -5 -5 -6 -7 -7 -8 -8 -9 -9 -9 -10 -10 -10 -11 -11 -12 -12 -12 -13 -13 -14 -15 -15 -16 -17 -18 -19 -20
-4 -3 -3 -2 -2 -2 -2 -3 -3 -3 -3 -3 -4 -4 -5 -6 -7 -7 -8 -8 -9 -9 -9 -10 -10 -10 -10 -11 -11 -12 -12 -12 -13 -14 -14 -15 -15 -16 -17 -18 -19 -20 -21 -22
-4 -4 -3 -3 -3 -3 -4 -4 -4 -4 -4 -5 -5 -6 -7 -8 -8 -9 -9 -9 -10 -10 -10 -10 -10 -11 -12 -12 -12 -13 -13 -14 -14 -15 -15 -16 -17 -18 -19 -20 -21 -22 -23 -24
-4 -4 -4 -4 -4 -4 -5 -5 -5 -5 -6 -7 -8 -9 -9 -9 -9 -10 -10 -10 -10 -10 -11 -11 -12 -12 -12 -13 -14 -14 -15 -15 -15 -16 -17 -18 -19 -20 -21 -22 -23 -24 -25 -26
-5 -5 -5 -6 -7 -6 -6 -6 -8 -8 -9 -9 -9 -10 -10 -10 -10 -10 -10 -11 -11 -11 -12 -12 -13 -14 -14 -14 -15 -15 -16 -16 -17 -18 -19 -19 -20 -21 -23 -24 -25 -25 -26 -26
-5 -6 -6 -7 -8 -8 -9 -9 -9 -10 -10 -10 -10 -11 -10 -10 -11 -11 -11 -12 -12 -13 -13 -14 -14 -15 -15 -15 -16 -16 -17 -18 -19 -19 -20 -21 -22 -23 -24 -25 -25 -25 -26 -26
-8 -8 -9 -9 -10 -10 -10 -10 -10 -10 -11 -11 -10 -11 -11 -11 -11 -12 -12 -13 -14 -14 -14 -15 -15 -16 -16 -17 -17 -18 -18 -19 -20 -21 -22 -22 -23 -24 -24 -25 -25 -25 -26 -26
-10 -10 -10 -10 -10 -11 -11 -11 -12 -11 -11 -11 -11 -11 -12 -12 -13 -13 -14 -14 -14 -15 -15 -16 -16 -17 -17 -18 -18 -19 -20 -20 -21 -22 -23 -23 -24 -24 -24 -25 -25 -25 -25 -26

GFSNGP_700_temp_090.txt.gz
Temp
-3 -3 -2 0 0 3 4 5 4 5 5 6 6 7 7 7 7 7 7 7 7 7 7 7 7 6 6 6 6 6 5 5 5 4 4 4 4 3 3 3 2 2 2 1
-3 -1 -2 -0 2 2 4 4 4 4 5 5 6 6 7 7 7 7 7 7 7 7 7 7 7 6 6 6 6 6 5 5 5 4 4 4 3 3 3 2 2 2 2 1
-3 -1 -2 -1 2 3 3 4 4 4 4 5 6 6 6 7 7 7 7 7 7 7 7 7 7 6 6 6 6 5 5 5 5 4 3 3 3 3 2 2 2 2 1 1
-4 -2 -2 1 3 4 4 4 4 4 4 5 5 6 6 7 7 7 7 7 7 7 7 7 6 6 6 6 6 5 5 5 4 4 3 3 2 2 2 1 1 1 1 1
-4 -3 -2 -1 2 3 3 4 4 4 4 5 5 5 6 7 7 7 7 7 7 7 7 6 6 6 6 6 6 5 4 4 3 3 2 2 2 1 1 1 1 2 2 2
-4 -3 -3 -1 -0 1 2 2 4 4 4 4 5 5 6 6 7 7 7 7 7 7 6 6 6 6 6 5 5 4 4 3 3 2 2 2 2 1 1 2 2 2 2 1
-5 -3 -2 0 -0 -1 0 2 3 3 3 4 4 4 5 6 6 6 7 7 7 6 6 6 5 5 5 5 4 4 4 3 3 2 2 2 2 2 2 2 2 1 1 1
-3 -3 -2 -0 0 -1 -0 2 2 2 3 3 4 4 3 5 6 6 6 6 6 6 5 5 5 4 4 4 4 3 3 3 2 2 2 2 2 2 1 1 1 0 -1 -3
-2 -3 -0 0 -0 -1 -1 -0 2 2 2 3 2 2 2 3 4 5 5 5 5 5 5 4 4 4 3 3 3 3 2 2 2 2 1 1 1 1 -0 -1 -1 -2 -3 -5
-3 -0 0 1 0 -1 -0 -1 -0 0 0 1 2 2 3 3 4 4 5 4 4 4 4 3 3 3 3 2 2 2 2 2 1 1 0 -0 -0 -1 -2 -2 -3 -4 -5 -5
-3 -2 -1 0 -0 -0 -0 -0 -0 0 -1 -0 0 1 2 3 3 3 3 2 2 3 3 3 3 2 2 2 1 1 1 1 1 -0 -1 -1 -2 -3 -4 -4 -5 -6 -5 -6
-4 -3 -3 -0 0 0 -1 -0 0 -0 -0 1 -1 -1 0 0 1 1 -1 1 0 0 2 2 2 1 1 1 1 0 -0 -0 -1 -2 -2 -3 -4 -5 -5 -6 -6 -7 -7 -7
-3 -3 -3 -2 -0 0 -0 -1 -1 -1 -1 -1 -1 -1 -1 -1 -0 -1 -0 -1 -1 -1 -0 1 1 0 -0 -0 -1 -1 -1 -2 -3 -4 -4 -5 -6 -6 -7 -7 -8 -8 -8 -9
-4 -3 -3 -3 -1 0 -0 -1 -1 -1 -1 -1 -1 -1 -1 -1 -1 -1 -1 -1 -1 -1 -2 -1 -0 -1 -1 -2 -2 -2 -3 -4 -5 -5 -6 -6 -6 -7 -8 -8 -9 -9 -10 -10
-3 -3 -3 -3 -1 0 -0 -1 -2 -1 -2 -2 -2 -1 -1 -2 -2 -1 -1 -1 -2 -2 -2 -1 -2 -2 -2 -3 -4 -5 -6 -6 -6 -6 -7 -7 -8 -8 -9 -9 -10 -10 -11 -11
-3 -4 -4 -3 -2 -0 -0 -1 -1 -1 -1 -1 -0 -1 -1 -1 -1 -1 -1 -2 -2 -2 -2 -3 -3 -4 -4 -5 -6 -6 -7 -7 -7 -8 -8 -9 -9 -10 -10 -10 -11 -11 -12 -13
-4 -4 -3 -2 -2 -1 -1 -1 -1 -0 -1 -0 -0 -0 -0 -1 -1 -1 -2 -2 -2 -3 -4 -4 -5 -6 -6 -6 -7 -7 -8 -8 -9 -9 -9 -10 -10 -11 -11 -12 -12 -13 -13 -14
-3 -3 -2 -2 -2 -1 -1 -1 -1 -1 -1 -0 -0 -1 -1 -1 -2 -3 -3 -3 -4 -5 -5 -6 -6 -7 -7 -7 -8 -8 -9 -9 -9 -10 -10 -11 -11 -12 -12 -13 -13 -14 -14 -15
-4 -3 -2 -1 -1 -1 -1 -1 -2 -1 -1 -1 -1 -1 -2 -3 -3 -4 -5 -5 -6 -6 -7 -7 -8 -8 -8 -9 -9 -9 -10 -10 -11 -11 -11 -12 -12 -13 -13 -14 -15 -16 -17 -18
-4 -4 -2 -2 -2 -2 -2 -2 -2 -2 -2 -2 -2 -3 -3 -4 -4 -5 -5 -6 -7 -8 -8 -8 -9 -9 -9 -10 -10 -11 -11 -11 -11 -12 -12 -13 -13 -14 -15 -16 -16 -17 -18 -19
-4 -4 -3 -3 -2 -2 -2 -3 -3 -2 -3 -3 -3 -4 -4 -5 -6 -6 -7 -8 -8 -9 -9 -9 -10 -10 -10 -11 -11 -11 -12 -12 -12 -13 -13 -14 -15 -16 -16 -17 -18 -19 -20 -21
-5 -4 -4 -3 -3 -3 -3 -3 -3 -4 -4 -4 -5 -5 -6 -6 -8 -9 -9 -9 -10 -10 -10 -10 -10 -11 -11 -12 -12 -12 -12 -13 -14 -14 -15 -16 -16 -17 -18 -19 -20 -21 -22 -22
-5 -5 -5 -4 -4 -4 -4 -5 -5 -5 -5 -6 -7 -8 -8 -9 -9 -10 -10 -10 -10 -10 -11 -11 -11 -12 -12 -12 -13 -13 -14 -15 -15 -15 -16 -17 -18 -18 -19 -20 -21 -21 -22 -23
-5 -5 -5 -5 -5 -6 -6 -6 -7 -7 -8 -8 -9 -9 -10 -10 -10 -10 -10 -11 -11 -11 -12 -12 -12 -13 -13 -14 -14 -15 -15 -15 -16 -16 -17 -18 -19 -20 -20 -21 -21 -22 -23 -23
-6 -6 -6 -7 -7 -7 -8 -8 -9 -10 -10 -10 -10 -10 -11 -11 -11 -11 -11 -11 -12 -12 -12 -13 -13 -14 -15 -15 -15 -16 -16 -16 -17 -18 -19 -20 -20 -21 -21 -22 -22 -23 -23 -24
-8 -8 -8 -9 -9 -10 -10 -10 -11 -10 -11 -11 -11 -11 -11 -11 -11 -11 -12 -12 -13 -13 -14 -14 -15 -16 -16 -16 -16 -16 -17 -17 -18 -19 -20 -20 -21 -22 -22 -23 -23 -23 -24 -24
-10 -10 -11 -11 -11 -11 -11 -11 -11 -12 -12 -11 -11 -11 -12 -12 -12 -13 -13 -14 -14 -15 -15 -16 -16 -16 -16 -17 -17 -18 -18 -19 -19 -20 -21 -22 -22 -23 -23 -23 -23 -24 -24 -24

GFSNGP_700_temp_096.txt.gz
Temp
-3 -3 -2 -2 -1 -0 -0 0 0 2 3 4 4 5 5 6 6 7 7 7 8 8 7 7 7 7 7 6 6 6 5 5 5 5 5 4 4 3 3 3 2 2 1 2
-4 -3 -3 -2 -1 -0 0 0 1 1 1 2 3 4 5 5 6 6 6 7 7 7 7 7 7 7 7 6 6 6 6 5 5 5 5 5 4 4 3 3 3 2 2 2
-3 -3 -3 -2 -1 -0 1 1 1 1 2 3 3 4 4 5 6 6 6 6 7 7 7 7 7 7 7 7 6 6 6 5 5 5 5 5 4 4 4 4 3 3 3 3
-5 -4 -2 -0 -1 -0 0 1 1 1 1 2 3 4 4 5 5 5 6 6 6 6 6 7 7 7 7 7 6 6 6 6 5 5 5 5 5 4 4 4 3 3 3 2
-5 -3 -2 -1 -0 -1 -0 1 0 -0 1 2 3 3 4 4 4 5 6 6 6 6 6 7 7 7 7 7 7 6 6 6 6 5 5 5 4 4 3 3 2 2 2 2
-5 -4 -2 -0 -1 -1 -2 -0 -0 -0 -1 -1 1 2 4 4 4 5 5 5 6 6 7 7 7 7 6 7 7 6 6 6 6 5 5 5 4 4 3 3 2 2 1 1
-6 -5 -4 -3 -3 -2 -1 -1 -1 -1 0 0 -0 1 2 3 4 5 5 5 6 6 7 7 7 7 6 6 6 6 6 6 6 5 5 4 3 3 2 2 2 1 1 0
-7 -6 -4 -4 -3 -3 -3 -2 -3 -2 -1 -1 -1 1 2 3 3 4 4 4 5 6 7 7 7 6 5 6 6 6 5 5 5 5 4 4 3 3 2 2 1 1 0 -0
-5 -5 -4 -4 -4 -4 -4 -4 -3 -2 -2 -1 -1 0 1 2 3 3 4 4 5 6 6 6 6 6 4 5 5 5 5 4 4 4 3 3 2 2 2 1 1 0 -0 -1
-5 -4 -4 -5 -5 -4 -5 -4 -3 -2 -2 -2 -2 -1 0 1 2 2 3 4 4 4 3 4 4 4 4 4 4 4 3 3 3 2 2 1 1 1 0 -0 -1 -1 -2 -3
-5 -5 -5 -4 -5 -5 -4 -3 -3 -2 -2 -2 -2 -1 -1 -1 -0 -0 0 1 2 2 3 3 3 3 4 4 3 3 3 2 1 1 1 0 -1 -1 -1 -2 -3 -4 -4 -5
-5 -5 -5 -5 -4 -4 -3 -2 -2 -2 -2 -2 -2 -2 -1 -1 -1 -1 -1 -1 -0 1 0 0 1 2 2 2 2 2 1 -0 -1 -1 -1 -2 -2 -2 -3 -4 -5 -5 -6 -6
-5 -5 -5 -4 -4 -3 -3 -2 -2 -2 -2 -2 -2 -2 -2 -1 -1 -1 -1 -1 -1 -1 -1 -1 -0 0 0 0 -0 -1 -2 -2 -3 -3 -3 -3 -3 -4 -5 -6 -6 -7 -7 -7
-4 -4 -4 -4 -4 -4 -3 -2 -2 -2 -2 -2 -2 -2 -1 -1 -2 -1 -1 -1 -1 -1 -2 -1 -1 -1 -1 -2 -2 -2 -3 -3 -3 -4 -4 -4 -5 -6 -7 -7 -7 -7 -7 -8
-4 -4 -4 -4 -4 -3 -3 -2 -2 -2 -2 -2 -2 -3 -2 -2 -2 -2 -2 -2 -2 -2 -2 -2 -2 -2 -3 -3 -3 -3 -4 -4 -5 -5 -5 -7 -7 -7 -7 -7 -8 -8 -8 -9
-4 -4 -4 -4 -4 -3 -3 -3 -2 -2 -2 -3 -3 -3 -3 -2 -2 -2 -2 -3 -3 -3 -3 -3 -3 -3 -4 -3 -4 -5 -5 -6 -6 -7 -7 -8 -7 -8 -8 -8 -9 -9 -10 -11
-5 -4 -4 -4 -4 -4 -4 -3 -3 -2 -2 -3 -3 -3 -3 -3 -2 -2 -2 -3 -3 -4 -4 -4 -4 -5 -5 -5 -6 -6 -7 -7 -8 -8 -8 -8 -9 -9 -9 -10 -10 -11 -11 -12
-5 -5 -4 -4 -4 -4 -4 -4 -3 -2 -2 -2 -3 -3 -3 -3 -3 -3 -3 -3 -5 -5 -5 -5 -6 -6 -6 -7 -7 -8 -8 -8 -8 -8 -9 -9 -9 -10 -10 -11 -11 -12 -13 -13
-4 -4 -4 -4 -4 -4 -4 -4 -3 -3 -3 -2 -3 -3 -3 -3 -3 -3 -4 -5 -6 -6 -6 -6 -7 -7 -8 -8 -9 -9 -9 -9 -9 -9 -10 -10 -10 -11 -12 -12 -13 -13 -14 -15
-4 -4 -4 -4 -4 -4 -4 -4 -4 -4 -4 -3 -3 -3 -3 -3 -3 -3 -4 -5 -6 -6 -7 -7 -8 -8 -9 -9 -9 -9 -9 -10 -10 -10 -11 -11 -12 -12 -13 -14 -14 -15 -16 -17
-5 -4 -4 -5 -4 -4 -5 -5 -5 -4 -4 -4 -3 -3 -4 -4 -5 -6 -7 -8 -8 -8 -8 -9 -9 -9 -9 -10 -10 -10 -10 -11 -11 -12 -12 -12 -13 -14 -14 -15 -16 -16 -17 -18
-5 -5 -5 -5 -4 -4 -5 -5 -5 -5 -5 -4 -4 -4 -6 -7 -8 -8 -8 -9 -9 -9 -10 -10 -10 -10 -10 -10 -11 -11 -11 -12 -12 -13 -13 -14 -14 -15 -15 -16 -17 -18 -19 -19
-7 -6 -6 -5 -5 -5 -5 -5 -5 -4 -4 -5 -6 -8 -9 -9 -9 -10 -10 -10 -10 -10 -10 -10 -10 -11 -11 -11 -12 -12 -13 -13 -13 -14 -14 -15 -15 -16 -17 -18 -18 -19 -19 -20
-7 -6 -6 -6 -6 -5 -5 -5 -6 -6 -7 -9 -10 -10 -10 -10 -10 -10 -11 -12 -11 -11 -11 -11 -11 -11 -12 -12 -13 -13 -14 -14 -14 -15 -16 -16 -17 -17 -18 -19 -19 -20 -20 -21
-7 -7 -7 -7 -8 -7 -8 -9 -10 -10 -11 -10 -11 -11 -11 -11 -13 -13 -13 -11 -11 -12 -12 -12 -12 -12 -13 -14 -14 -14 -14 -15 -16 -16 -17 -17 -18 -18 -19 -20 -20 -21 -21 -21
-8 -8 -9 -9 -10 -10 -11 -11 -11 -11 -12 -11 -12 -12 -12 -13 -14 -12 -12 -12 -12 -13 -13 -13 -13 -14 -14 -15 -15 -15 -16 -16 -17 -17 -18 -18 -19 -19 -20 -21 -21 -21 -22 -22
-10 -10 -10 -11 -12 -12 -12 -12 -12 -13 -13 -12 -13 -14 -14 -13 -12 -13 -13 -13 -13 -14 -14 -14 -14 -15 -15 -15 -16 -16 -17 -17 -18 -18 -19 -19 -19 -20 -21 -21 -21 -22 -22 -22

GFSNGP_700_temp_099.txt.gz
Temp
-2 -1 -1 -1 0 1 1 2 3 3 5 5 5 5 5 5 6 6 7 7 7 8 8 8 7 7 7 7 7 6 6 6 5 5 5 4 4 4 3 3 3 3 3 2
-2 -1 -1 -1 0 1 1 2 2 3 3 4 4 4 4 4 5 5 6 7 7 7 8 7 7 7 7 7 7 6 6 6 5 5 5 4 4 4 4 3 3 3 2 2
-3 -2 -1 -0 0 1 1 2 2 3 3 3 3 4 4 6 5 5 6 6 7 7 6 7 7 7 7 7 7 6 6 6 6 5 5 5 5 5 4 4 3 3 4 3
-4 -3 -2 -0 1 1 1 2 2 2 3 3 3 3 4 4 5 5 6 6 6 6 6 6 7 7 7 7 6 6 6 6 6 5 5 5 5 5 5 5 4 4 3 3
-4 -2 -1 -0 0 1 1 2 2 2 2 2 1 3 4 5 5 5 5 5 5 6 6 6 7 6 6 6 6 6 6 6 6 5 5 5 5 5 5 4 4 4 3 3
-5 -3 -2 -0 -1 -1 -1 -1 -1 -1 -1 -1 -0 1 3 4 5 5 4 5 5 5 6 6 6 6 6 6 6 7 7 6 6 6 6 5 5 5 5 4 4 3 3 2
-5 -4 -3 -2 -1 -2 -2 -1 -2 -3 -2 -1 -1 -0 2 1 3 4 4 4 5 5 5 6 6 6 6 7 7 7 6 6 6 6 6 5 5 5 4 4 3 2 1 1
-5 -5 -3 -3 -3 -3 -3 -3 -2 -4 -3 -3 -1 -1 -0 2 3 3 4 4 4 5 5 5 6 6 6 6 6 6 6 6 5 5 5 5 5 4 4 3 3 2 1 0
-4 -3 -4 -4 -4 -4 -4 -3 -2 -3 -3 -2 -2 -1 -0 1 2 2 3 3 4 4 4 5 5 5 6 6 5 5 5 5 4 5 5 5 4 3 3 2 2 1 1 1
-3 -3 -3 -4 -5 -5 -4 -5 -4 -4 -3 -2 -2 -2 -1 0 1 2 2 3 3 3 4 4 5 5 5 5 4 5 5 4 3 4 3 3 3 2 2 1 1 0 0 -0
-4 -4 -4 -4 -5 -5 -5 -5 -5 -4 -2 -2 -2 -2 -2 -1 -1 -0 1 1 1 2 3 3 3 2 1 3 3 3 4 3 2 3 3 1 -0 1 -0 -0 -0 -1 -2 -3
-4 -4 -5 -4 -4 -5 -5 -4 -4 -3 -3 -3 -3 -2 -2 -2 -1 -1 -1 -0 -0 -1 -0 1 1 1 0 1 1 1 2 0 -0 -1 -1 -1 -1 -2 -2 -1 -2 -3 -4 -4
-5 -5 -5 -5 -5 -5 -5 -5 -3 -2 -2 -2 -2 -2 -2 -2 -2 -1 -1 -1 -1 -1 -1 -2 -1 -0 -0 -1 -1 -1 -1 -1 -2 -2 -2 -2 -3 -3 -3 -3 -4 -5 -5 -5
-5 -5 -5 -5 -5 -5 -5 -3 -3 -2 -2 -2 -2 -2 -2 -2 -1 -1 -1 -1 -1 -1 -2 -2 -2 -2 -2 -1 -2 -3 -3 -3 -3 -3 -3 -4 -4 -4 -5 -5 -6 -6 -6 -6
-5 -5 -5 -5 -5 -4 -4 -3 -3 -2 -2 -2 -2 -3 -3 -2 -2 -2 -3 -3 -3 -2 -2 -2 -2 -2 -2 -3 -3 -3 -3 -3 -3 -4 -4 -5 -6 -6 -6 -6 -6 -7 -7 -7
-6 -6 -6 -5 -5 -5 -4 -4 -3 -3 -3 -2 -3 -2 -3 -3 -3 -2 -3 -3 -3 -3 -3 -4 -4 -4 -4 -4 -4 -4 -4 -5 -5 -6 -6 -6 -6 -7 -7 -7 -8 -8 -8 -9
-5 -5 -6 -6 -6 -5 -4 -4 -4 -3 -3 -3 -2 -2 -3 -3 -3 -3 -3 -3 -4 -4 -4 -4 -5 -5 -4 -5 -5 -6 -6 -6 -6 -7 -7 -7 -7 -7 -8 -8 -9 -9 -10 -10
-5 -5 -5 -5 -5 -5 -4 -4 -4 -4 -4 -3 -3 -3 -3 -3 -4 -4 -4 -4 -4 -5 -5 -6 -6 -6 -6 -6 -7 -7 -7 -7 -7 -8 -8 -8 -8 -8 -9 -9 -10 -10 -11 -12
-5 -5 -5 -4 -4 -4 -4 -4 -4 -4 -4 -4 -4 -3 -3 -3 -4 -3 -4 -5 -5 -6 -6 -6 -6 -6 -7 -7 -8 -8 -8 -8 -8 -8 -9 -9 -9 -10 -10 -11 -11 -12 -13 -13
-6 -5 -5 -4 -4 -4 -4 -4 -4 -4 -4 -4 -4 -3 -3 -4 -4 -4 -5 -6 -6 -6 -7 -7 -7 -8 -8 -9 -8 -8 -9 -9 -9 -10 -10 -10 -10 -11 -11 -12 -13 -13 -14 -15
-5 -5 -5 -5 -4 -4 -4 -4 -5 -4 -4 -4 -5 -4 -4 -4 -5 -5 -7 -7 -7 -8 -8 -8 -9 -9 -9 -9 -9 -10 -10 -10 -10 -10 -11 -11 -11 -12 -13 -13 -14 -15 -16 -16
-6 -5 -5 -5 -5 -5 -5 -5 -5 -5 -5 -5 -5 -5 -5 -6 -6 -7 -8 -9 -9 -9 -9 -10 -10 -10 -10 -10 -10 -10 -11 -11 -11 -11 -12 -12 -13 -14 -14 -15 -15 -16 -17 -17
-7 -6 -6 -6 -6 -5 -5 -5 -6 -6 -5 -6 -5 -6 -7 -8 -9 -9 -9 -9 -10 -10 -11 -12 -11 -11 -11 -11 -11 -11 -12 -12 -12 -12 -13 -13 -14 -15 -15 -16 -16 -17 -18 -18
-9 -8 -8 -7 -7 -7 -7 -7 -7 -6 -6 -7 -7 -9 -10 -10 -10 -10 -11 -11 -10 -13 -12 -11 -11 -11 -12 -12 -12 -13 -13 -13 -13 -14 -14 -15 -15 -16 -16 -17 -17 -18 -19 -19
-8 -8 -7 -7 -7 -7 -7 -7 -8 -8 -9 -11 -11 -11 -12 -12 -12 -11 -11 -12 -14 -13 -12 -12 -12 -12 -12 -13 -13 -13 -14 -14 -15 -15 -15 -16 -16 -17 -17 -18 -18 -19 -19 -20
-9 -8 -8 -8 -8 -9 -10 -10 -11 -11 -12 -12 -12 -12 -12 -12 -12 -12 -14 -14 -13 -12 -12 -13 -13 -13 -13 -14 -14 -14 -15 -15 -15 -16 -16 -17 -17 -18 -18 -19 -19 -20 -21 -21
-10 -10 -11 -11 -11 -12 -12 -12 -13 -13 -13 -13 -13 -13 -12 -12 -14 -15 -15 -14 -13 -13 -13 -13 -13 -14 -14 -15 -15 -15 -16 -16 -16 -17 -17 -18 -18 -19 -19 -19 -20 -21 -21 -22

GFSNGP_700_temp_102.txt.gz
Temp
-3 -2 -1 -1 -1 -1 0 2 1 2 3 4 3 2 4 4 5 6 6 6 6 6 6 6 7 8 7 7 7 6 6 6 6 5 5 4 4 4 4 3 3 2 2 2
-3 -2 -1 -1 -0 -0 -0 1 2 2 3 4 3 4 4 4 5 5 5 6 5 7 6 5 7 8 7 7 7 7 6 6 6 5 5 4 4 4 4 3 3 3 2 2
-3 -3 -1 -1 -0 0 0 1 2 2 2 3 3 4 4 4 4 4 5 5 6 6 5 6 6 7 7 7 7 7 7 6 6 6 5 5 4 4 4 4 4 4 3 3
-5 -3 -3 -1 0 1 2 2 2 2 2 3 3 4 4 4 4 4 5 5 6 6 6 5 5 6 7 7 7 7 7 6 6 6 5 5 5 5 5 5 4 4 4 3
-5 -3 -2 -1 1 0 0 1 0 1 1 1 2 2 3 3 4 3 5 5 5 6 6 5 5 5 6 6 7 7 6 6 6 6 6 6 5 5 5 5 5 4 4 4
-5 -4 -2 -1 -1 -1 -1 -1 -2 -2 0 -1 -1 1 2 3 3 3 4 5 5 5 5 5 5 4 6 5 6 6 6 6 6 6 6 6 5 5 5 5 4 4 3 2
-6 -5 -3 -1 -2 -2 -2 -2 -2 -3 -3 -2 -0 -2 2 2 2 3 3 3 4 5 5 5 5 5 5 6 6 6 6 6 6 6 6 5 5 4 4 4 3 3 2 0
-5 -5 -4 -3 -3 -3 -3 -3 -4 -3 -2 -2 -2 -1 1 1 2 2 3 3 3 4 4 4 4 4 4 5 6 6 6 6 6 5 4 4 4 3 3 1 1 1 1 0
-4 -4 -4 -3 -4 -3 -3 -3 -3 -4 -3 -3 -1 -1 0 -0 -0 1 3 3 3 3 4 4 4 4 4 4 5 5 5 5 5 4 4 4 4 1 1 0 0 0 -0 -1
-5 -4 -4 -4 -4 -4 -4 -4 -4 -3 -4 -3 -2 -2 -2 -1 -1 0 1 2 2 3 3 4 4 4 4 4 4 5 5 4 4 4 3 3 3 2 1 -0 -1 -1 -1 -2
-4 -4 -3 -4 -4 -4 -5 -5 -3 -4 -5 -3 -3 -3 -3 -2 -2 -1 -0 0 1 2 3 3 3 3 3 4 4 4 4 3 1 0 -1 -1 1 -0 -1 -1 -2 -3 -3 -3
-5 -5 -4 -5 -5 -5 -4 -5 -5 -5 -4 -4 -3 -3 -3 -3 -2 -2 -1 -1 -1 1 1 2 2 1 0 -0 -0 -0 0 -0 -1 -1 -0 -2 -2 -0 -2 -3 -4 -4 -4 -4
-5 -5 -5 -5 -5 -4 -4 -5 -5 -4 -5 -3 -3 -3 -3 -3 -3 -2 -2 -1 -1 -2 -1 -0 -0 -0 -0 -0 -0 -0 -1 -1 -1 -2 -2 -3 -2 -3 -4 -4 -5 -5 -5 -5
-5 -5 -4 -5 -5 -5 -4 -5 -4 -3 -3 -3 -3 -3 -3 -2 -3 -2 -2 -2 -2 -2 -1 -1 -1 -1 -1 -1 -2 -1 -2 -2 -3 -3 -3 -4 -4 -4 -6 -6 -6 -6 -6 -5
-5 -5 -5 -5 -5 -5 -5 -5 -4 -3 -4 -3 -3 -3 -3 -2 -3 -3 -2 -3 -4 -3 -3 -2 -2 -2 -3 -4 -4 -4 -4 -4 -4 -4 -4 -5 -5 -6 -6 -6 -6 -6 -6 -7
-6 -6 -6 -6 -5 -5 -5 -5 -4 -4 -4 -4 -4 -4 -4 -3 -4 -3 -4 -4 -4 -4 -4 -4 -4 -4 -5 -5 -5 -5 -4 -5 -5 -5 -6 -6 -7 -7 -7 -7 -7 -7 -7 -7
-6 -6 -6 -5 -6 -5 -5 -5 -4 -4 -4 -4 -4 -4 -3 -3 -3 -3 -4 -4 -4 -4 -5 -5 -5 -5 -5 -5 -6 -6 -6 -6 -6 -7 -8 -7 -7 -7 -7 -7 -7 -8 -8 -9
-6 -6 -6 -6 -6 -5 -6 -4 -4 -4 -4 -4 -4 -4 -4 -4 -4 -3 -4 -4 -5 -6 -6 -6 -6 -6 -6 -6 -7 -7 -6 -7 -8 -8 -8 -7 -8 -8 -8 -8 -9 -9 -10 -10
-7 -7 -7 -6 -5 -5 -5 -4 -4 -4 -4 -4 -4 -4 -4 -4 -4 -4 -4 -4 -5 -6 -6 -6 -6 -6 -7 -7 -7 -8 -9 -9 -8 -8 -8 -8 -8 -9 -9 -10 -10 -10 -11 -12
-7 -7 -6 -6 -5 -5 -4 -4 -4 -4 -4 -4 -4 -4 -4 -4 -4 -5 -6 -5 -5 -6 -7 -7 -7 -7 -7 -8 -9 -9 -9 -9 -9 -9 -9 -9 -10 -10 -10 -11 -11 -12 -12 -13
-7 -6 -6 -6 -5 -4 -5 -5 -5 -5 -5 -5 -5 -5 -5 -5 -5 -6 -7 -7 -7 -8 -8 -8 -8 -8 -9 -9 -9 -9 -9 -9 -9 -10 -10 -10 -10 -11 -11 -12 -12 -13 -14 -15
-6 -6 -6 -6 -5 -5 -5 -5 -5 -6 -6 -6 -5 -5 -6 -6 -6 -7 -8 -9 -9 -8 -9 -9 -9 -9 -11 -10 -10 -10 -10 -10 -11 -11 -11 -11 -11 -12 -12 -13 -14 -15 -16 -16
-7 -7 -7 -7 -6 -6 -5 -6 -6 -6 -6 -6 -7 -6 -6 -7 -8 -9 -9 -10 -10 -10 -10 -10 -11 -12 -12 -11 -10 -11 -11 -11 -11 -11 -12 -12 -13 -13 -14 -15 -16 -16 -16 -17
-8 -8 -8 -8 -8 -8 -8 -8 -8 -8 -8 -8 -7 -7 -9 -10 -10 -11 -11 -11 -11 -11 -11 -13 -13 -12 -11 -11 -11 -11 -12 -12 -12 -12 -13 -14 -14 -15 -15 -16 -16 -17 -17 -18
-8 -8 -8 -8 -8 -8 -8 -8 -8 -8 -8 -8 -9 -10 -11 -12 -12 -12 -12 -12 -11 -12 -14 -14 -14 -12 -12 -12 -12 -12 -13 -13 -13 -14 -14 -15 -15 -16 -16 -17 -17 -18 -19 -19
-9 -9 -9 -9 -9 -8 -9 -9 -9 -10 -10 -11 -12 -12 -13 -13 -13 -12 -12 -12 -13 -15 -15 -14 -13 -13 -13 -13 -13 -13 -14 -14 -15 -15 -15 -16 -17 -17 -17 -18 -18 -19 -20 -20
-10 -10 -10 -10 -10 -10 -11 -12 -12 -13 -13 -14 -13 -13 -13 -13 -13 -13 -13 -14 -15 -15 -15 -14 -14 -14 -14 -14 -14 -14 -15 -15 -16 -16 -17 -17 -17 -18 -18 -19 -19 -20 -20 -20

GFSNGP_700_temp_105.txt.gz
Temp
-4 -3 -4 -4 -3 -2 -1 -1 -2 -2 -1 1 2 2 0 1 1 3 4 5 5 4 5 7 6 7 7 6 6 6 6 6 5 5 5 5 4 4 4 4 3 3 3 2
-5 -5 -4 -4 -3 -2 -1 -1 -0 -0 0 1 2 1 3 3 3 3 4 4 5 5 4 4 6 7 7 7 7 7 6 6 6 5 5 4 4 4 4 3 3 3 3 3
-6 -5 -5 -4 -3 -2 -2 -1 -0 0 1 2 2 3 2 2 3 4 4 5 6 5 5 4 4 6 7 7 7 7 6 6 6 5 5 4 4 3 3 3 3 3 3 3
-6 -5 -6 -3 -2 -1 -1 0 0 -0 0 1 1 1 2 2 3 3 4 4 6 5 5 5 5 4 5 6 7 7 6 6 6 6 6 5 5 5 4 4 4 4 4 3
-7 -5 -5 -3 -2 -2 -1 -0 -1 -1 1 1 1 2 2 2 2 2 3 3 4 4 4 5 5 5 2 5 6 6 6 6 6 6 6 6 6 5 5 5 4 4 3 3
-7 -6 -6 -2 -2 -2 -2 -2 -2 -1 -0 1 0 1 1 1 2 2 2 3 4 4 5 4 4 5 5 4 5 6 6 6 6 6 6 6 6 5 5 4 4 3 3 2
-7 -6 -5 -3 -3 -2 -2 -3 -3 -3 -2 -1 -1 -2 -0 1 1 2 2 2 3 3 4 4 4 3 3 4 5 5 5 5 5 6 6 5 5 5 5 4 3 1 0 0
-7 -6 -6 -3 -3 -3 -3 -3 -3 -3 -2 -2 -1 -1 -1 0 1 2 2 3 3 3 3 3 3 3 3 3 3 4 3 4 5 4 4 4 3 1 3 2 1 1 1 1
-6 -5 -4 -4 -4 -4 -4 -4 -3 -3 -4 -3 -2 -1 -1 -0 1 2 2 2 3 3 2 3 3 3 3 3 3 3 3 3 3 3 3 3 2 2 1 2 1 1 1 -0
-5 -4 -4 -4 -4 -3 -4 -4 -5 -5 -4 -4 -2 -3 -3 -2 -1 0 0 -0 0 2 2 3 3 3 3 3 3 3 3 3 3 3 3 2 1 1 1 1 1 0 -0 -1
-5 -5 -5 -5 -5 -5 -5 -5 -5 -5 -5 -4 -4 -3 -2 -2 -2 -2 -2 -0 -0 0 1 2 2 3 3 3 3 3 3 2 1 0 0 1 1 1 0 0 -1 -1 -2 -2
-5 -5 -5 -5 -5 -5 -5 -5 -5 -5 -5 -5 -3 -3 -3 -3 -3 -3 -2 -2 -1 -1 -1 1 2 2 2 2 2 1 0 1 1 1 1 0 -0 -0 -0 -1 -2 -2 -3 -4
-6 -6 -6 -6 -6 -5 -5 -5 -4 -4 -4 -5 -4 -4 -4 -4 -3 -2 -2 -2 -1 -2 -1 -1 0 1 1 0 -1 -1 -1 -1 -1 -1 -0 -0 -1 -2 -3 -4 -4 -4 -5 -5
-6 -6 -6 -5 -5 -5 -5 -5 -4 -4 -4 -4 -5 -4 -4 -3 -3 -3 -3 -3 -3 -2 -2 -2 -1 -1 -1 -1 -1 -2 -2 -2 -3 -3 -3 -4 -4 -4 -4 -4 -5 -5 -6 -8
-6 -7 -6 -6 -5 -5 -5 -5 -4 -4 -4 -4 -4 -4 -4 -4 -3 -4 -4 -4 -3 -4 -4 -4 -3 -4 -5 -4 -5 -5 -5 -4 -4 -4 -4 -4 -4 -5 -5 -5 -6 -7 -8 -8
-6 -7 -6 -5 -6 -5 -5 -5 -5 -5 -5 -4 -4 -4 -4 -4 -4 -4 -4 -4 -5 -5 -5 -5 -5 -6 -6 -6 -5 -5 -5 -5 -5 -5 -5 -5 -5 -6 -7 -7 -7 -7 -7 -7
-6 -6 -6 -6 -6 -6 -6 -5 -5 -5 -5 -5 -5 -4 -4 -4 -4 -4 -4 -4 -5 -5 -5 -6 -6 -5 -5 -5 -6 -6 -6 -6 -5 -5 -5 -7 -8 -7 -7 -7 -7 -8 -8 -9
-7 -7 -7 -7 -6 -6 -6 -5 -5 -5 -5 -5 -5 -4 -4 -4 -4 -4 -4 -4 -4 -5 -6 -6 -6 -6 -6 -6 -6 -6 -6 -6 -6 -7 -7 -8 -8 -8 -8 -8 -8 -9 -9 -10
-7 -7 -7 -7 -7 -6 -6 -5 -5 -5 -4 -4 -5 -5 -4 -4 -5 -5 -5 -5 -5 -5 -6 -7 -7 -6 -6 -7 -7 -7 -8 -8 -8 -8 -8 -8 -8 -9 -9 -9 -9 -10 -10 -11
-7 -7 -7 -7 -6 -6 -6 -5 -5 -5 -5 -4 -4 -5 -5 -5 -6 -6 -6 -6 -6 -7 -7 -7 -7 -7 -7 -8 -8 -9 -10 -10 -9 -9 -9 -9 -9 -9 -10 -10 -11 -11 -11 -12
-7 -7 -7 -7 -6 -6 -6 -6 -5 -5 -5 -5 -5 -5 -5 -6 -6 -7 -7 -8 -8 -8 -8 -8 -8 -9 -8 -8 -9 -11 -10 -10 -10 -10 -10 -10 -10 -10 -11 -11 -12 -12 -13 -13
-7 -7 -7 -7 -7 -6 -6 -6 -6 -6 -6 -6 -6 -6 -7 -8 -7 -7 -8 -9 -9 -9 -9 -9 -9 -9 -9 -10 -12 -11 -10 -10 -10 -11 -11 -11 -11 -12 -12 -13 -13 -13 -14 -14
-8 -7 -7 -7 -7 -7 -8 -7 -7 -7 -8 -8 -8 -8 -9 -8 -8 -9 -10 -10 -10 -10 -10 -10 -10 -11 -13 -13 -13 -12 -12 -11 -11 -12 -12 -12 -12 -13 -13 -14 -14 -15 -15 -16
-8 -8 -8 -8 -8 -9 -9 -9 -10 -9 -9 -10 -10 -10 -9 -10 -10 -11 -11 -11 -11 -11 -11 -11 -12 -13 -14 -14 -13 -12 -12 -12 -12 -13 -13 -13 -13 -14 -14 -15 -15 -16 -16 -16
-8 -8 -8 -8 -9 -9 -9 -9 -9 -9 -9 -9 -10 -10 -11 -12 -12 -12 -12 -13 -12 -12 -12 -12 -14 -14 -15 -15 -14 -13 -13 -13 -13 -13 -14 -14 -14 -15 -15 -16 -16 -16 -17 -17
-9 -9 -9 -9 -9 -9 -9 -10 -10 -10 -11 -11 -12 -12 -13 -13 -13 -14 -13 -13 -12 -13 -14 -14 -16 -16 -16 -15 -14 -14 -14 -14 -14 -15 -15 -15 -15 -16 -16 -17 -17 -18 -18 -19
-10 -10 -10 -11 -10 -11 -11 -11 -12 -13 -13 -14 -14 -14 -14 -14 -14 -14 -14 -14 -14 -14 -15 -15 -16 -16 -15 -14 -14 -15 -15 -15 -15 -15 -16 -16 -16 -17 -17 -18 -18 -19 -19 -19

GFSNGP_700_temp_111.txt.gz
Temp
-5 -5 -5 -5 -4 -5 -5 -4 -5 -2 -3 -2 -1 -1 -1 -1 -2 -1 -1 -1 -0 1 3 5 5 5 5 5 6 6 5 5 5 5 5 5 5 4 4 3 3 2 2 1
-6 -6 -5 -6 -5 -4 -5 -5 -5 -4 -4 -2 -2 -1 -1 -2 -2 -1 -1 -1 -1 0 1 3 4 4 4 5 5 5 5 5 5 5 5 5 5 4 4 4 3 3 3 3
-7 -6 -6 -6 -4 -4 -3 -4 -4 -4 -2 -2 -2 -1 -2 -1 -2 -2 -2 -2 -2 0 1 2 1 3 3 3 4 5 5 5 5 5 5 4 4 4 4 4 4 4 4 3
-7 -7 -7 -5 -5 -4 -4 -4 -4 -4 -3 -2 -2 -1 -2 -1 -2 -1 -2 -1 -1 -0 0 0 0 1 1 2 3 3 4 5 5 4 4 4 4 4 4 4 4 4 3 3
-8 -7 -6 -6 -5 -5 -5 -4 -4 -3 -4 -3 -2 -2 -1 -1 -2 -2 -1 0 -1 2 2 2 2 2 2 2 2 2 2 3 4 4 4 4 4 4 4 3 3 3 3 3
-8 -8 -9 -5 -5 -6 -6 -5 -5 -4 -4 -3 -3 -2 -2 -2 -2 -1 -1 0 0 1 1 3 3 3 4 3 3 3 2 1 2 3 4 3 3 3 3 3 3 3 3 3
-9 -8 -7 -5 -5 -5 -6 -5 -5 -5 -4 -3 -3 -3 -2 -2 -1 -1 -0 0 0 1 1 2 2 3 3 3 3 3 3 2 1 1 1 2 2 2 2 3 3 2 2 2
-9 -9 -8 -5 -5 -5 -5 -5 -5 -4 -4 -4 -4 -4 -3 -3 -2 -1 -1 -0 1 1 1 2 2 2 2 2 2 2 2 1 1 0 0 0 1 1 2 2 2 1 1 0
-7 -7 -6 -5 -5 -6 -5 -6 -5 -6 -5 -5 -5 -5 -4 -4 -3 -3 -2 -1 1 1 1 1 2 2 2 2 2 2 2 1 -0 0 0 0 0 0 1 0 -0 1 -0 -0
-7 -7 -6 -6 -5 -6 -5 -6 -5 -5 -5 -6 -5 -5 -5 -5 -4 -3 -2 -2 -1 0 1 1 2 2 2 2 2 2 2 2 1 1 1 1 1 1 0 0 1 -1 -0 0
-6 -6 -6 -6 -6 -6 -5 -6 -5 -5 -5 -6 -5 -5 -5 -4 -4 -3 -2 -2 -1 -0 0 1 2 2 2 1 2 2 2 2 2 2 2 1 1 0 0 0 -0 0 0 0
-7 -7 -6 -6 -6 -5 -5 -5 -5 -5 -6 -6 -5 -5 -5 -4 -4 -4 -3 -3 -2 -3 -3 -3 -2 -1 0 0 1 1 2 2 2 2 1 0 1 0 1 1 0 -0 -3 -4
-7 -7 -6 -6 -6 -5 -5 -6 -6 -6 -6 -5 -5 -5 -5 -5 -4 -4 -4 -3 -4 -3 -3 -3 -2 -2 -2 -1 0 0 0 1 0 -0 -0 -1 -0 -1 0 -1 -2 -3 -6 -6
-7 -7 -7 -7 -6 -6 -5 -5 -6 -5 -6 -6 -5 -5 -5 -5 -4 -4 -4 -4 -4 -4 -3 -3 -3 -3 -3 -3 -3 -2 -3 -2 -2 -2 -1 -1 -2 -2 -2 -4 -5 -6 -6 -5
-7 -7 -8 -7 -7 -7 -7 -7 -6 -6 -6 -6 -5 -5 -5 -5 -4 -4 -4 -4 -4 -5 -4 -4 -4 -3 -2 -2 -3 -2 -3 -3 -3 -2 -3 -3 -4 -5 -6 -6 -6 -6 -6 -6
-8 -8 -8 -8 -8 -7 -7 -7 -7 -6 -6 -5 -5 -5 -4 -5 -4 -4 -4 -4 -4 -5 -5 -5 -5 -4 -4 -4 -4 -4 -5 -5 -5 -5 -5 -6 -6 -6 -6 -7 -7 -7 -6 -7
-8 -8 -8 -8 -8 -7 -7 -7 -7 -6 -6 -5 -5 -5 -5 -5 -5 -5 -5 -5 -5 -5 -6 -6 -6 -6 -6 -7 -7 -7 -7 -7 -7 -7 -7 -7 -7 -7 -7 -7 -7 -9 -9 -9
-7 -7 -7 -7 -7 -7 -7 -7 -7 -7 -6 -6 -5 -5 -5 -5 -4 -5 -5 -5 -6 -6 -7 -7 -7 -7 -8 -8 -8 -8 -8 -8 -8 -7 -7 -7 -7 -8 -8 -10 -10 -9 -9 -9
-7 -7 -7 -7 -7 -7 -7 -7 -7 -7 -7 -6 -5 -5 -5 -5 -5 -5 -6 -6 -6 -6 -7 -7 -8 -8 -8 -8 -9 -9 -9 -8 -8 -8 -8 -9 -10 -11 -11 -10 -9 -10 -10 -10
-8 -7 -8 -8 -7 -7 -7 -7 -6 -6 -6 -6 -6 -6 -6 -6 -6 -7 -7 -8 -7 -7 -8 -8 -8 -8 -8 -9 -9 -9 -9 -8 -8 -9 -11 -12 -12 -11 -10 -10 -10 -11 -11 -11
-8 -8 -8 -8 -8 -8 -7 -7 -7 -7 -7 -7 -7 -7 -6 -7 -7 -9 -10 -10 -9 -9 -9 -9 -9 -9 -9 -9 -9 -9 -9 -9 -10 -12 -13 -12 -11 -11 -11 -11 -11 -11 -11 -11
-8 -8 -8 -8 -8 -8 -8 -8 -8 -7 -8 -8 -8 -9 -10 -10 -9 -10 -10 -10 -10 -10 -10 -10 -11 -11 -10 -10 -10 -10 -11 -12 -12 -12 -12 -11 -11 -11 -12 -12 -12 -12 -12 -13
-8 -8 -8 -8 -8 -8 -8 -8 -8 -8 -9 -9 -10 -10 -11 -11 -11 -10 -10 -10 -10 -11 -11 -11 -11 -11 -11 -11 -11 -12 -14 -14 -13 -13 -13 -12 -12 -12 -12 -13 -13 -13 -14 -14
-8 -8 -8 -8 -8 -8 -8 -8 -8 -8 -9 -10 -11 -11 -11 -11 -11 -11 -11 -11 -12 -12 -12 -12 -12 -12 -12 -12 -12 -14 -15 -14 -14 -14 -14 -13 -13 -13 -13 -14 -14 -14 -15 -15
-9 -9 -9 -9 -9 -9 -8 -8 -9 -9 -9 -10 -10 -11 -11 -11 -12 -12 -12 -13 -13 -13 -13 -13 -13 -13 -13 -14 -14 -15 -15 -15 -15 -15 -15 -14 -14 -14 -15 -15 -15 -15 -15 -16
-11 -11 -11 -10 -10 -10 -10 -10 -10 -10 -10 -11 -11 -12 -12 -12 -13 -13 -14 -14 -14 -14 -14 -14 -14 -14 -14 -15 -15 -16 -16 -16 -16 -15 -15 -15 -15 -15 -15 -15 -15 -16 -16 -17
-13 -13 -13 -13 -12 -12 -11 -11 -12 -12 -12 -13 -13 -14 -14 -14 -14 -14 -15 -15 -15 -15 -15 -15 -15 -15 -16 -16 -16 -16 -17 -17 -16 -16 -16 -16 -16 -16 -16 -16 -16 -17 -17 -17

GFSNGP_700_temp_114.txt.gz
Temp
-5 -5 -5 -5 -4 -5 -5 -4 -5 -3 -4 -1 -1 -1 -1 -1 -2 -2 -1 -1 -2 -2 -0 1 1 3 5 5 4 5 5 5 5 5 4 4 4 3 3 3 2 2 1 1
-6 -6 -6 -6 -6 -5 -4 -3 -5 -3 -3 -1 -2 -1 -1 -2 -2 -2 -1 -1 -2 -2 -1 -1 1 2 4 4 4 5 5 5 5 5 4 4 4 4 4 3 3 3 3 1
-7 -7 -7 -7 -5 -5 -5 -4 -4 -4 -2 -4 -2 -2 -2 -2 -2 -2 -2 -2 -2 -3 -2 -1 0 2 3 3 4 5 5 5 5 5 4 4 4 4 4 4 3 3 3 3
-8 -7 -8 -6 -6 -5 -5 -4 -5 -5 -4 -4 -3 -3 -3 -2 -2 -2 -2 -2 -2 -2 -2 -1 -1 1 1 3 4 4 5 5 5 4 4 4 4 4 4 3 3 3 3 3
-8 -8 -7 -7 -5 -5 -5 -5 -5 -5 -4 -4 -4 -4 -4 -2 -2 -2 -2 -1 -2 -2 -1 -1 -1 -0 1 1 3 3 3 3 4 4 4 4 4 4 4 3 3 3 3 2
-8 -9 -10 -6 -5 -6 -6 -6 -5 -5 -5 -4 -4 -4 -3 -2 -3 -2 -2 -1 -1 -2 -1 -1 -1 -0 0 0 2 2 2 2 2 2 3 3 4 3 3 3 3 3 2 2
-8 -9 -8 -7 -6 -6 -7 -6 -5 -5 -5 -5 -4 -4 -3 -3 -2 -2 -1 -1 -1 -0 0 1 0 1 0 0 0 0 1 1 2 2 2 2 3 3 3 2 2 2 2 2
-8 -9 -9 -6 -6 -6 -6 -6 -5 -5 -5 -5 -5 -5 -4 -4 -3 -2 -1 -1 -1 -0 0 1 1 1 1 1 0 1 1 0 1 1 2 1 1 1 1 1 1 1 1 1
-8 -8 -7 -6 -6 -6 -6 -6 -5 -6 -6 -6 -5 -6 -6 -5 -4 -3 -3 -3 -2 -1 0 1 1 1 2 1 0 0 -0 -0 0 0 0 0 0 1 1 1 1 1 -0 -0
-8 -7 -7 -6 -7 -6 -6 -6 -6 -6 -6 -6 -6 -6 -5 -5 -5 -4 -3 -2 -2 -1 0 1 1 1 1 2 1 1 1 0 0 1 -0 -0 -0 -0 -0 -0 -0 0 -0 0
-7 -7 -6 -7 -6 -6 -6 -6 -5 -6 -6 -6 -5 -5 -6 -6 -5 -4 -3 -2 -2 -0 -0 -0 0 1 2 2 2 2 1 1 1 -0 0 -0 -1 -1 0 1 -0 -1 1 -1
-8 -7 -6 -6 -6 -6 -6 -6 -5 -6 -6 -5 -6 -5 -6 -5 -5 -5 -4 -4 -3 -3 -4 -3 -2 -1 -0 1 1 1 1 1 1 1 1 -0 1 0 0 -0 -0 -0 -1 -1
-7 -7 -7 -6 -6 -6 -6 -6 -6 -6 -6 -6 -6 -5 -6 -6 -5 -5 -4 -4 -4 -4 -4 -3 -3 -3 -3 -3 -1 -1 -0 -0 -0 -0 0 0 0 -0 -1 -1 0 -1 -2 -3
-8 -8 -7 -7 -7 -7 -7 -7 -7 -7 -7 -6 -6 -5 -5 -5 -5 -5 -5 -5 -4 -5 -4 -4 -3 -3 -3 -2 -2 -2 -1 -2 -1 -1 -1 -2 -2 -1 -1 -1 -2 -2 -3 -5
-8 -8 -8 -8 -8 -7 -7 -7 -7 -7 -7 -6 -6 -6 -5 -5 -5 -5 -5 -4 -5 -5 -5 -5 -4 -4 -3 -3 -3 -3 -3 -3 -3 -3 -2 -2 -2 -2 -2 -3 -5 -5 -6 -7
-8 -7 -7 -7 -7 -7 -8 -8 -8 -7 -7 -7 -6 -6 -6 -5 -5 -5 -6 -5 -5 -5 -5 -5 -5 -4 -4 -4 -3 -4 -3 -3 -3 -3 -3 -4 -5 -5 -6 -7 -7 -7 -7 -7
-8 -8 -8 -8 -8 -8 -8 -8 -7 -7 -7 -7 -7 -6 -6 -6 -6 -6 -6 -6 -5 -6 -6 -6 -6 -6 -6 -6 -6 -6 -5 -6 -6 -7 -7 -7 -8 -8 -7 -8 -8 -8 -7 -8
-8 -8 -7 -7 -7 -7 -8 -7 -7 -7 -7 -7 -7 -7 -6 -6 -6 -6 -7 -6 -6 -6 -7 -6 -7 -7 -7 -7 -8 -7 -7 -7 -8 -8 -8 -8 -8 -8 -8 -8 -8 -9 -10 -11
-8 -8 -8 -8 -8 -8 -8 -8 -7 -7 -7 -7 -7 -7 -7 -7 -7 -7 -8 -7 -7 -7 -7 -7 -7 -7 -8 -8 -9 -9 -9 -9 -9 -9 -9 -9 -9 -8 -9 -11 -12 -12 -10 -10
-8 -8 -8 -8 -8 -8 -8 -8 -8 -8 -8 -8 -7 -8 -8 -8 -8 -8 -9 -9 -9 -8 -9 -9 -8 -8 -9 -9 -9 -9 -9 -9 -9 -9 -9 -9 -9 -11 -12 -12 -11 -11 -11 -11
-8 -8 -8 -8 -8 -8 -8 -8 -8 -8 -8 -8 -8 -8 -8 -9 -10 -10 -10 -10 -9 -9 -9 -10 -10 -10 -10 -10 -10 -10 -10 -9 -9 -10 -11 -13 -13 -12 -11 -11 -11 -11 -11 -12
-9 -8 -8 -8 -8 -8 -8 -8 -8 -8 -8 -9 -8 -9 -10 -10 -10 -11 -11 -10 -10 -10 -10 -10 -11 -11 -11 -11 -11 -10 -11 -11 -12 -13 -13 -13 -13 -12 -12 -12 -12 -12 -12 -12
-8 -9 -8 -8 -8 -8 -8 -8 -8 -8 -8 -8 -9 -10 -10 -11 -11 -11 -11 -11 -11 -11 -11 -11 -11 -11 -11 -11 -11 -11 -12 -13 -14 -14 -13 -13 -13 -13 -13 -13 -13 -13 -13 -13
-9 -9 -9 -9 -9 -9 -8 -8 -9 -9 -9 -9 -9 -10 -11 -11 -12 -12 -12 -12 -12 -12 -12 -12 -12 -12 -12 -12 -12 -12 -13 -14 -15 -15 -15 -15 -14 -14 -14 -13 -14 -14 -14 -14
-10 -10 -10 -10 -10 -9 -9 -9 -9 -9 -9 -9 -10 -10 -11 -11 -12 -12 -12 -12 -13 -13 -13 -13 -13 -13 -13 -13 -13 -14 -15 -15 -16 -16 -16 -15 -15 -15 -15 -14 -14 -15 -15 -15
-12 -12 -12 -12 -12 -12 -11 -11 -11 -10 -10 -10 -11 -11 -12 -12 -12 -13 -13 -13 -14 -14 -14 -14 -14 -14 -14 -15 -15 -15 -16 -16 -16 -16 -17 -16 -16 -15 -15 -15 -15 -16 -16 -16
-14 -14 -14 -15 -15 -14 -14 -13 -13 -12 -12 -12 -12 -13 -13 -14 -14 -14 -14 -15 -15 -15 -15 -15 -15 -15 -16 -16 -16 -16 -16 -17 -17 -17 -16 -16 -16 -16 -16 -16 -16 -17 -17 -17

GFSNGP_700_temp_117.txt.gz
Temp
-6 -6 -6 -6 -5 -5 -5 -5 -5 -3 -3 -2 -1 -1 -1 -0 -0 -1 -1 -1 -1 -2 -1 -1 -0 1 2 3 5 5 5 5 5 5 5 5 4 4 4 3 2 2 2 1
-7 -7 -7 -7 -6 -5 -5 -5 -6 -5 -4 -1 -2 -2 -1 -1 -1 -1 -1 -1 -2 -1 -2 -2 -1 -0 2 2 4 4 4 5 5 5 5 5 4 4 4 4 3 3 2 1
-7 -7 -7 -7 -5 -5 -5 -5 -5 -5 -3 -3 -2 -4 -3 -1 -1 -2 -2 -2 -2 -1 -2 -2 -2 -0 1 2 3 3 4 5 5 4 4 4 4 4 4 4 3 3 2 2
-8 -8 -7 -6 -6 -6 -5 -4 -5 -5 -4 -4 -4 -3 -3 -3 -3 -2 -2 -2 -2 -2 -2 -2 -3 -1 0 2 3 4 4 4 5 4 4 4 4 4 4 3 3 3 3 2
-9 -8 -7 -7 -6 -6 -6 -6 -6 -5 -5 -4 -3 -4 -4 -4 -4 -3 -3 -2 -2 -1 -2 -2 -2 -2 -1 -0 2 3 3 4 4 4 4 4 4 4 3 3 3 3 2 2
-9 -8 -8 -6 -6 -7 -7 -7 -6 -5 -5 -5 -4 -4 -5 -4 -4 -4 -4 -3 -2 -1 -2 -1 -1 -2 -2 -1 1 1 2 2 3 3 3 3 3 3 3 3 2 3 2 2
-9 -9 -8 -7 -7 -7 -7 -6 -6 -6 -5 -5 -5 -5 -5 -4 -4 -4 -3 -3 -2 -1 -1 -0 -0 -0 -1 -1 -0 0 2 2 2 2 2 3 3 3 3 2 2 2 2 2
-8 -8 -8 -7 -7 -7 -7 -6 -6 -6 -5 -5 -5 -5 -5 -5 -5 -4 -4 -3 -3 -2 -1 -1 0 0 -0 -0 -1 -0 1 1 1 1 2 2 2 2 2 2 2 2 1 1
-9 -8 -7 -7 -7 -7 -6 -7 -6 -6 -6 -6 -6 -6 -6 -5 -5 -5 -4 -4 -3 -2 -2 -1 -0 0 0 -0 -1 -1 -0 0 0 0 1 2 1 1 1 2 2 2 1 1
-8 -7 -7 -7 -7 -7 -6 -6 -6 -6 -6 -6 -6 -6 -5 -5 -5 -5 -4 -4 -3 -2 -2 -1 -0 0 -0 0 1 0 -0 -0 -0 -0 1 1 1 0 1 1 1 1 1 0
-8 -7 -7 -7 -6 -7 -7 -6 -6 -6 -6 -6 -6 -6 -6 -6 -5 -5 -5 -4 -3 -3 -2 -2 -1 -0 -0 -0 -0 -0 0 -1 -0 -0 0 -0 -0 -0 -1 -0 -1 -1 -1 -1
-8 -8 -7 -7 -7 -7 -6 -6 -6 -6 -6 -6 -6 -6 -6 -6 -6 -5 -5 -4 -3 -3 -4 -4 -3 -3 -3 -2 -1 -1 0 -0 0 0 -0 -1 -0 -1 -0 -1 -1 -1 -1 -1
-9 -8 -8 -8 -7 -8 -8 -7 -7 -7 -7 -7 -6 -6 -6 -5 -5 -5 -5 -4 -4 -3 -4 -4 -4 -4 -4 -4 -3 -2 -1 -0 0 -0 -1 -1 -0 -1 -0 -0 -1 -1 -1 -1
-8 -9 -8 -7 -7 -7 -7 -7 -7 -7 -7 -6 -6 -6 -6 -5 -5 -5 -5 -4 -4 -4 -4 -4 -4 -4 -3 -3 -3 -3 -3 -1 -1 -1 -1 -1 -1 -1 -1 -1 -1 -1 -1 -3
-9 -8 -8 -8 -9 -8 -8 -7 -7 -7 -7 -6 -6 -6 -6 -6 -5 -5 -5 -4 -5 -4 -4 -5 -5 -4 -4 -4 -3 -3 -3 -3 -3 -2 -2 -1 -2 -1 -2 -2 -2 -3 -3 -5
-8 -8 -8 -8 -8 -8 -8 -8 -8 -7 -7 -7 -6 -6 -6 -6 -5 -5 -5 -5 -5 -5 -5 -5 -5 -4 -4 -4 -4 -3 -3 -3 -4 -4 -3 -3 -3 -3 -4 -5 -5 -6 -6 -7
-8 -8 -8 -8 -8 -8 -8 -7 -7 -7 -7 -7 -7 -7 -6 -6 -6 -5 -5 -6 -6 -6 -6 -6 -6 -6 -6 -5 -5 -4 -4 -4 -4 -5 -5 -5 -6 -7 -7 -8 -8 -8 -8 -8
-8 -8 -8 -8 -8 -8 -8 -8 -8 -8 -7 -7 -7 -7 -7 -7 -7 -6 -6 -7 -7 -7 -7 -7 -6 -7 -7 -7 -7 -7 -7 -6 -7 -7 -7 -8 -9 -9 -9 -9 -9 -9 -9 -9
-8 -8 -8 -8 -8 -8 -8 -8 -8 -8 -8 -8 -7 -7 -7 -7 -8 -8 -9 -8 -7 -7 -8 -8 -8 -8 -8 -8 -8 -8 -8 -8 -8 -9 -9 -9 -9 -9 -9 -9 -9 -10 -11 -12
-8 -8 -8 -8 -8 -8 -8 -8 -8 -8 -8 -8 -8 -8 -8 -8 -9 -9 -9 -10 -9 -9 -9 -9 -8 -8 -9 -9 -9 -9 -9 -9 -9 -9 -9 -10 -10 -9 -10 -11 -12 -13 -12 -11
-9 -9 -8 -8 -8 -8 -8 -8 -8 -8 -8 -8 -9 -9 -9 -9 -10 -10 -10 -10 -10 -10 -10 -10 -10 -10 -10 -10 -10 -10 -10 -10 -10 -10 -10 -10 -10 -11 -13 -14 -13 -12 -12 -12
-9 -9 -9 -9 -9 -9 -9 -8 -8 -8 -8 -8 -9 -9 -10 -10 -10 -11 -11 -11 -11 -11 -11 -10 -10 -10 -10 -11 -11 -11 -10 -10 -10 -10 -11 -12 -13 -14 -14 -13 -12 -12 -13 -13
-9 -9 -9 -9 -9 -9 -9 -9 -9 -9 -9 -9 -9 -9 -10 -11 -11 -11 -11 -11 -11 -11 -11 -11 -11 -11 -11 -11 -11 -11 -11 -12 -12 -13 -14 -14 -13 -13 -13 -13 -13 -13 -13 -13
-10 -10 -10 -10 -10 -10 -10 -10 -10 -9 -9 -9 -9 -9 -10 -11 -11 -12 -12 -12 -12 -12 -12 -12 -12 -12 -13 -13 -12 -12 -13 -14 -15 -15 -14 -14 -14 -14 -14 -14 -14 -14 -14 -14
-11 -11 -11 -11 -12 -12 -11 -11 -11 -11 -11 -11 -10 -10 -11 -11 -12 -12 -12 -12 -12 -13 -13 -13 -13 -13 -14 -14 -14 -14 -15 -15 -16 -16 -15 -15 -16 -15 -15 -15 -15 -15 -15 -15
-12 -13 -13 -14 -14 -14 -14 -14 -14 -13 -13 -12 -12 -12 -13 -12 -13 -13 -13 -13 -13 -14 -14 -14 -14 -15 -15 -15 -15 -15 -16 -16 -16 -16 -16 -16 -16 -16 -16 -16 -16 -16 -16 -16
-14 -14 -15 -15 -15 -15 -15 -16 -16 -15 -15 -14 -14 -14 -14 -14 -14 -14 -14 -15 -15 -15 -15 -15 -15 -15 -15 -16 -16 -16 -17 -17 -17 -17 -18 -17 -17 -17 -16 -16 -17 -17 -17 -17

GFSNGP_700_temp_120.txt.gz
Temp
-5 -5 -5 -6 -6 -5 -5 -4 -3 -2 -1 -1 -1 -2 -2 -1 -1 -1 -0 -1 -0 -0 -1 -1 -0 -0 -1 1 2 2 4 4 5 5 5 5 5 5 5 5 4 3 2 1
-6 -6 -6 -6 -5 -5 -4 -4 -3 -3 -3 -2 -2 -3 -3 -3 -3 -2 -3 -3 -1 -1 -1 -1 -1 -1 -0 1 2 1 2 4 4 5 5 5 5 5 5 5 4 3 2 2
-6 -6 -6 -5 -5 -5 -4 -4 -4 -4 -2 -3 -3 -3 -4 -4 -4 -4 -4 -2 -1 -1 -1 -1 -2 -1 -1 0 1 2 2 3 4 4 5 5 5 5 5 5 4 3 3 2
-7 -7 -6 -5 -5 -6 -6 -5 -4 -4 -4 -4 -4 -5 -5 -5 -4 -4 -3 -3 -2 -2 -2 -1 -1 -1 -1 -1 -0 2 2 2 3 4 4 4 4 5 5 4 4 4 3 3
-7 -6 -5 -5 -5 -6 -5 -5 -5 -5 -5 -6 -5 -4 -4 -5 -4 -3 -4 -3 -2 -2 -2 -2 -1 -1 -1 -2 -1 0 2 2 2 3 4 4 4 4 4 4 4 4 3 3
-7 -7 -6 -6 -7 -7 -6 -5 -6 -6 -6 -6 -5 -5 -4 -5 -5 -4 -4 -3 -2 -2 -2 -2 -1 -1 -2 -2 -3 -1 1 2 2 3 3 4 4 4 4 4 3 3 3 3
-8 -8 -7 -7 -7 -7 -7 -6 -6 -6 -6 -6 -5 -5 -5 -5 -5 -5 -5 -4 -3 -3 -2 -2 -1 -1 -1 -1 -2 -2 0 2 1 2 3 3 3 3 3 3 3 3 3 2
-8 -7 -7 -7 -8 -7 -7 -7 -7 -6 -6 -5 -5 -5 -5 -6 -5 -5 -5 -4 -3 -3 -2 -1 -2 -1 -0 -1 -2 -1 -1 0 1 1 2 3 3 3 3 3 2 2 2 2
-8 -8 -8 -8 -7 -7 -7 -7 -7 -6 -6 -6 -6 -6 -6 -5 -6 -5 -5 -4 -4 -3 -3 -2 -2 -1 -1 -0 -2 -2 -1 0 1 1 2 2 2 2 2 2 2 2 1 1
-8 -8 -8 -7 -7 -7 -7 -7 -8 -6 -6 -6 -6 -5 -5 -6 -6 -5 -5 -5 -4 -3 -3 -2 -2 -1 -1 -0 -1 -1 -2 -1 -1 0 1 1 1 1 1 1 1 1 1 1
-9 -8 -8 -8 -7 -7 -7 -7 -6 -6 -6 -6 -6 -6 -6 -6 -6 -6 -5 -4 -4 -3 -3 -3 -4 -4 -2 -0 -1 -1 -1 -1 -1 -1 -0 0 1 0 1 -0 0 0 0 0
-9 -9 -9 -8 -8 -8 -8 -7 -7 -6 -7 -6 -6 -6 -6 -6 -5 -5 -5 -4 -4 -4 -4 -4 -5 -4 -4 -3 -1 -1 -1 -2 -1 -1 -1 -1 -0 0 0 -1 -1 -1 -1 -2
-9 -9 -9 -9 -9 -8 -8 -7 -7 -7 -7 -6 -6 -6 -6 -5 -5 -5 -5 -4 -4 -4 -4 -4 -5 -4 -4 -4 -4 -2 -1 -3 -1 -2 -1 -1 -1 -1 -1 -1 -1 -2 -2 -3
-9 -9 -9 -8 -7 -7 -8 -7 -7 -7 -7 -6 -6 -6 -6 -5 -5 -5 -5 -5 -4 -4 -4 -4 -5 -4 -4 -4 -3 -3 -2 -2 -1 -1 -2 -2 -1 -1 -1 -1 -1 -2 -2 -3
-9 -8 -8 -8 -8 -8 -8 -8 -7 -7 -7 -7 -7 -7 -6 -6 -6 -5 -5 -5 -5 -5 -4 -5 -5 -5 -4 -4 -4 -4 -4 -2 -2 -3 -2 -2 -2 -2 -2 -2 -2 -2 -2 -3
-9 -9 -8 -9 -9 -8 -8 -8 -8 -7 -7 -7 -7 -7 -7 -7 -6 -6 -5 -6 -6 -6 -5 -5 -5 -5 -5 -5 -4 -4 -4 -3 -4 -3 -3 -3 -3 -3 -3 -4 -4 -5 -5 -5
-9 -9 -9 -9 -8 -8 -8 -8 -7 -7 -7 -7 -7 -7 -7 -7 -7 -7 -7 -7 -6 -6 -6 -7 -6 -6 -6 -6 -5 -5 -5 -4 -4 -4 -4 -4 -5 -5 -6 -7 -7 -7 -7 -8
-8 -8 -8 -8 -8 -8 -8 -8 -8 -7 -8 -7 -8 -7 -7 -7 -8 -8 -8 -7 -7 -7 -8 -7 -7 -7 -7 -7 -7 -7 -6 -6 -6 -6 -7 -7 -8 -8 -9 -9 -9 -9 -9 -9
-9 -8 -8 -8 -8 -8 -8 -8 -8 -8 -8 -8 -8 -8 -8 -8 -8 -9 -9 -9 -9 -9 -9 -8 -8 -8 -8 -8 -8 -8 -8 -8 -8 -8 -9 -9 -9 -9 -9 -10 -10 -10 -10 -10
-9 -9 -8 -8 -8 -8 -8 -8 -8 -8 -8 -8 -8 -8 -8 -8 -8 -9 -9 -9 -9 -9 -9 -9 -9 -9 -9 -9 -9 -9 -9 -10 -10 -10 -10 -10 -10 -10 -10 -10 -10 -10 -10 -11
-9 -9 -9 -9 -8 -8 -8 -8 -8 -8 -8 -8 -8 -8 -8 -8 -8 -9 -9 -10 -10 -10 -10 -10 -10 -10 -10 -10 -10 -10 -10 -11 -11 -11 -11 -11 -11 -11 -11 -10 -11 -12 -14 -13
-9 -9 -9 -9 -9 -9 -9 -8 -8 -8 -8 -8 -8 -8 -8 -9 -9 -9 -10 -10 -10 -10 -10 -10 -10 -10 -10 -10 -10 -11 -11 -11 -11 -11 -11 -11 -11 -11 -12 -13 -14 -14 -13 -12
-10 -10 -9 -9 -9 -9 -9 -9 -9 -9 -9 -9 -9 -9 -9 -9 -10 -10 -10 -10 -11 -11 -11 -11 -11 -11 -11 -11 -11 -11 -11 -11 -12 -12 -12 -12 -13 -13 -14 -15 -14 -13 -13 -13
-10 -10 -10 -10 -10 -10 -10 -10 -10 -10 -10 -10 -9 -9 -10 -10 -10 -11 -11 -11 -12 -12 -12 -12 -12 -12 -12 -12 -12 -12 -12 -12 -12 -13 -14 -14 -14 -14 -14 -14 -14 -14 -14 -14
-11 -11 -11 -12 -12 -12 -12 -13 -13 -13 -13 -12 -12 -11 -11 -11 -11 -12 -12 -12 -12 -12 -13 -13 -13 -13 -13 -13 -13 -13 -13 -14 -14 -15 -15 -15 -15 -15 -15 -15 -15 -15 -15 -15
-12 -13 -13 -13 -14 -14 -14 -14 -15 -15 -15 -15 -14 -14 -13 -13 -13 -13 -13 -13 -13 -13 -13 -14 -14 -14 -14 -14 -14 -14 -15 -15 -16 -16 -16 -16 -16 -16 -16 -16 -16 -16 -16 -16
-14 -14 -14 -14 -14 -15 -15 -16 -16 -16 -16 -16 -16 -15 -15 -15 -14 -14 -14 -14 -14 -15 -15 -15 -15 -15 -15 -15 -15 -15 -16 -16 -16 -16 -17 -17 -17 -17 -17 -17 -17 -16 -16 -16

GFSNGP_700_temp_123.txt.gz
Temp
-5 -4 -4 -4 -4 -4 -5 -5 -4 -1 -1 -3 -1 -0 -0 -1 -1 -1 -1 -1 -1 -1 -1 -2 -2 -1 -0 0 1 2 1 2 3 5 5 5 5 5 6 6 5 4 3 3
-6 -5 -4 -4 -3 -4 -4 -4 -4 -3 -2 -1 -1 -0 -1 -1 -2 -2 -2 -2 -2 -2 -3 -2 -1 -1 -1 -1 -1 0 1 2 2 2 3 3 4 5 6 5 5 4 4 4
-6 -5 -5 -4 -3 -3 -3 -3 -4 -3 -2 -1 -2 -2 -2 -2 -3 -3 -2 -3 -3 -3 -2 -1 -1 -1 -1 -1 -1 -1 0 1 1 2 2 2 4 5 5 5 4 4 4 4
-7 -6 -5 -4 -4 -4 -4 -4 -4 -3 -2 -2 -2 -3 -4 -4 -4 -3 -3 -4 -4 -3 -2 -2 -1 -1 -1 -1 -1 -1 0 1 1 2 2 2 4 4 5 4 4 4 4 4
-7 -7 -6 -5 -6 -4 -4 -4 -3 -3 -3 -3 -5 -4 -3 -4 -3 -3 -3 -4 -4 -4 -3 -2 -2 -1 -2 -1 -1 -1 0 1 2 1 1 3 3 4 4 4 4 4 4 3
-7 -7 -5 -7 -6 -6 -5 -5 -6 -6 -5 -5 -5 -4 -5 -4 -4 -4 -4 -4 -5 -5 -4 -3 -2 -1 -2 -1 -1 -2 -1 -0 1 1 1 2 3 3 4 4 3 4 4 3
-7 -7 -6 -7 -7 -6 -6 -6 -6 -6 -6 -5 -5 -5 -5 -5 -5 -4 -5 -5 -5 -5 -4 -3 -2 -2 -2 -1 -1 -1 -1 -1 0 0 0 2 2 3 3 3 3 3 3 3
-7 -6 -6 -7 -7 -7 -7 -7 -6 -7 -6 -7 -6 -6 -6 -6 -6 -5 -6 -5 -5 -4 -4 -3 -2 -2 -1 -1 -1 -1 -1 -1 -1 -0 0 1 2 2 3 3 3 3 3 3
-8 -9 -9 -8 -7 -7 -7 -6 -7 -7 -7 -7 -6 -6 -6 -5 -6 -6 -6 -5 -5 -5 -4 -3 -2 -2 -1 -1 -1 -1 -0 -2 -1 0 1 0 1 1 1 3 2 2 2 2
-9 -9 -8 -8 -8 -8 -7 -7 -7 -7 -7 -7 -6 -6 -6 -5 -6 -6 -6 -6 -5 -5 -4 -3 -3 -2 -2 -2 -1 -1 -1 -2 -2 -1 -0 1 0 1 1 2 2 2 2 2
-9 -9 -9 -9 -9 -8 -8 -8 -7 -7 -7 -7 -7 -6 -6 -6 -6 -5 -5 -5 -5 -5 -4 -3 -3 -3 -4 -4 -3 -2 -2 -2 -2 -2 -2 -0 -0 0 -0 -0 -0 1 1 2
-10 -9 -9 -9 -8 -8 -8 -8 -7 -7 -7 -7 -7 -6 -6 -6 -5 -5 -5 -5 -5 -4 -4 -3 -3 -3 -4 -4 -4 -3 -3 -2 -3 -2 -2 -1 -1 -0 0 0 -0 1 0 0
-9 -9 -9 -9 -9 -9 -8 -8 -7 -7 -7 -7 -7 -6 -6 -6 -6 -5 -5 -5 -5 -5 -5 -4 -4 -4 -4 -4 -4 -4 -4 -3 -3 -3 -3 -2 -1 -0 0 0 -0 -0 -0 -1
-9 -9 -9 -9 -8 -8 -8 -8 -8 -7 -7 -7 -7 -7 -7 -7 -6 -6 -6 -5 -6 -6 -5 -4 -4 -4 -4 -4 -4 -4 -4 -3 -3 -2 -3 -2 -2 -2 -2 -1 -1 -1 -2 -2
-9 -9 -8 -8 -8 -8 -8 -8 -8 -8 -7 -7 -7 -7 -7 -7 -7 -7 -6 -6 -7 -6 -6 -5 -5 -5 -5 -4 -4 -4 -4 -3 -3 -3 -3 -3 -2 -3 -3 -2 -2 -2 -2 -2
-9 -9 -8 -8 -8 -8 -8 -8 -8 -8 -7 -8 -8 -8 -8 -8 -7 -7 -7 -7 -7 -7 -7 -6 -6 -6 -6 -5 -5 -4 -4 -4 -4 -4 -4 -4 -4 -4 -3 -3 -3 -3 -3 -3
-8 -8 -9 -8 -8 -8 -8 -8 -8 -8 -8 -8 -8 -8 -8 -8 -8 -9 -9 -8 -8 -8 -8 -8 -7 -6 -6 -6 -6 -5 -5 -5 -4 -5 -5 -5 -5 -5 -5 -5 -5 -5 -4 -5
-8 -8 -8 -8 -8 -8 -8 -8 -8 -8 -8 -8 -8 -8 -8 -8 -9 -9 -10 -9 -9 -9 -9 -9 -8 -7 -7 -7 -7 -7 -7 -6 -6 -6 -6 -7 -8 -8 -7 -7 -7 -7 -7 -8
-9 -9 -9 -8 -8 -8 -8 -8 -8 -8 -8 -8 -8 -8 -8 -8 -9 -9 -9 -10 -10 -9 -9 -9 -9 -9 -8 -8 -8 -8 -8 -8 -8 -8 -8 -9 -9 -9 -9 -9 -9 -9 -9 -9
-9 -9 -9 -9 -9 -8 -8 -8 -8 -8 -8 -8 -8 -8 -8 -8 -9 -9 -9 -9 -10 -10 -10 -10 -10 -10 -10 -10 -9 -9 -9 -9 -9 -9 -10 -10 -10 -10 -10 -10 -10 -10 -10 -11
-9 -9 -9 -9 -9 -9 -9 -9 -8 -8 -8 -8 -8 -8 -8 -8 -8 -9 -10 -10 -10 -10 -11 -11 -10 -10 -10 -10 -10 -10 -10 -10 -10 -10 -10 -10 -10 -10 -11 -11 -11 -11 -11 -11
-10 -10 -10 -9 -9 -9 -9 -9 -8 -9 -9 -9 -9 -9 -9 -9 -9 -9 -9 -10 -11 -11 -11 -11 -11 -11 -11 -11 -11 -11 -11 -11 -11 -11 -11 -11 -12 -12 -12 -12 -11 -11 -12 -13
-10 -10 -10 -9 -9 -9 -9 -9 -9 -9 -10 -10 -10 -10 -9 -10 -10 -10 -10 -10 -11 -11 -12 -12 -12 -12 -12 -12 -12 -12 -12 -12 -12 -13 -13 -12 -12 -12 -12 -12 -13 -15 -15 -15
-10 -10 -10 -10 -10 -10 -11 -11 -11 -12 -12 -12 -12 -12 -12 -11 -11 -11 -11 -11 -11 -12 -12 -12 -13 -12 -12 -12 -12 -12 -13 -13 -13 -13 -13 -13 -13 -14 -14 -15 -15 -15 -15 -15
-11 -11 -11 -11 -11 -12 -12 -12 -12 -13 -13 -14 -14 -14 -14 -14 -13 -13 -12 -12 -12 -12 -12 -13 -13 -13 -13 -13 -13 -13 -13 -13 -13 -14 -14 -15 -15 -15 -15 -14 -15 -15 -15 -15
-12 -12 -12 -13 -13 -13 -13 -13 -14 -14 -15 -15 -16 -16 -16 -15 -15 -14 -14 -13 -13 -13 -13 -13 -14 -14 -14 -14 -14 -14 -14 -15 -15 -15 -16 -16 -15 -15 -15 -16 -16 -16 -15 -15
-13 -14 -14 -14 -14 -14 -14 -14 -15 -15 -16 -16 -17 -17 -17 -16 -16 -15 -15 -15 -14 -14 -14 -15 -15 -15 -15 -15 -15 -15 -15 -16 -16 -17 -17 -17 -17 -17 -17 -17 -17 -17 -17 -17

GFSNGP_700_temp_126.txt.gz
Temp
-5 -5 -4 -3 -3 -3 -3 -5 -4 -4 -4 -5 -5 -5 -3 -1 -1 -1 -1 -1 -1 -1 -1 -1 -1 -1 0 -1 0 0 0 1 1 1 3 4 4 4 5 5 4 5 5 5
-7 -5 -4 -4 -4 -3 -3 -3 -3 -4 -4 -4 -3 -4 -3 -1 -1 -1 -2 -2 -2 -2 -1 -1 -0 -0 0 -1 -1 -1 -0 0 1 0 2 2 3 2 4 4 4 5 5 4
-6 -5 -5 -4 -3 -3 -3 -2 -2 -3 -3 -3 -2 -3 -3 -2 -3 -3 -3 -3 -2 -2 -1 -0 -0 0 -0 -1 -1 -1 -1 -0 1 1 1 2 2 2 2 2 4 5 4 4
-7 -6 -6 -4 -5 -4 -3 -3 -3 -3 -3 -3 -5 -4 -3 -3 -3 -3 -3 -3 -3 -2 -2 -2 -2 -2 -2 -2 -2 -1 -1 -1 -0 1 0 1 2 2 2 3 4 4 4 4
-7 -5 -5 -5 -5 -5 -4 -4 -4 -5 -5 -4 -4 -4 -5 -4 -5 -5 -4 -4 -4 -4 -4 -3 -3 -3 -3 -2 -2 -1 -1 -1 -1 0 0 1 1 2 2 2 3 4 3 3
-7 -6 -5 -8 -7 -6 -6 -5 -6 -6 -6 -5 -4 -5 -5 -5 -5 -5 -5 -5 -5 -4 -4 -4 -4 -4 -3 -3 -2 -1 -1 -1 -1 -1 -0 1 1 2 1 1 2 3 3 3
-7 -7 -7 -8 -7 -6 -6 -8 -7 -7 -7 -7 -7 -7 -6 -6 -6 -6 -5 -5 -5 -5 -4 -4 -4 -4 -3 -2 -2 -1 -1 -1 -1 -0 -0 0 1 1 2 1 1 1 2 3
-8 -8 -8 -9 -7 -8 -9 -8 -8 -7 -7 -7 -7 -7 -6 -6 -5 -5 -6 -6 -5 -5 -5 -4 -4 -4 -3 -2 -1 -1 -0 -0 -0 -0 -1 -0 0 1 1 1 1 0 2 2
-9 -9 -9 -9 -9 -9 -9 -8 -7 -7 -7 -7 -6 -6 -6 -6 -5 -5 -6 -6 -6 -6 -5 -5 -4 -4 -3 -2 -1 -1 -1 -1 -1 -1 -1 -1 -0 -0 -1 0 0 0 1 2
-9 -9 -9 -9 -9 -9 -9 -8 -8 -8 -8 -7 -7 -7 -6 -6 -6 -6 -6 -6 -5 -6 -6 -5 -4 -4 -3 -3 -3 -3 -2 -2 -2 -1 -2 -1 -1 0 -2 -0 -1 0 0 0
-9 -9 -9 -9 -9 -9 -9 -8 -8 -8 -8 -7 -7 -7 -6 -6 -6 -6 -6 -6 -5 -5 -5 -5 -5 -4 -3 -3 -5 -5 -4 -3 -2 -3 -2 -2 -0 -1 -0 -1 -1 -1 -1 -1
-9 -9 -9 -9 -9 -9 -9 -8 -8 -7 -7 -7 -7 -7 -7 -6 -6 -6 -6 -6 -6 -5 -6 -5 -6 -5 -4 -4 -4 -4 -4 -4 -3 -2 -3 -3 -1 -1 -0 -1 -2 -1 -1 0
-9 -9 -9 -9 -9 -9 -8 -8 -8 -8 -8 -7 -7 -7 -7 -7 -7 -7 -6 -6 -6 -6 -6 -6 -6 -6 -5 -5 -5 -4 -4 -4 -3 -3 -3 -3 -3 -2 -1 -1 -1 -1 -0 -0
-9 -9 -9 -8 -8 -8 -8 -8 -8 -8 -7 -7 -7 -7 -7 -7 -7 -7 -7 -7 -7 -7 -7 -6 -6 -6 -6 -6 -5 -5 -4 -4 -4 -4 -3 -4 -4 -3 -2 -2 -0 -1 -1 -0
-9 -9 -8 -9 -8 -8 -8 -8 -8 -8 -7 -7 -7 -7 -8 -8 -8 -8 -8 -8 -8 -7 -7 -7 -6 -6 -7 -6 -6 -5 -5 -4 -4 -4 -3 -4 -5 -5 -3 -3 -2 -1 -1 -1
-9 -8 -9 -8 -8 -8 -8 -8 -8 -8 -8 -8 -8 -8 -8 -8 -8 -8 -9 -9 -9 -8 -8 -8 -8 -7 -7 -7 -7 -7 -6 -5 -5 -4 -4 -6 -6 -5 -5 -5 -4 -4 -3 -2
-9 -9 -9 -9 -9 -9 -9 -8 -8 -8 -8 -8 -8 -8 -8 -8 -8 -8 -9 -9 -9 -9 -8 -8 -8 -8 -8 -8 -8 -8 -7 -7 -6 -6 -6 -7 -6 -6 -6 -5 -5 -5 -5 -4
-9 -9 -9 -9 -9 -9 -8 -8 -8 -8 -8 -8 -8 -8 -8 -8 -8 -8 -9 -9 -9 -9 -9 -9 -9 -9 -8 -8 -8 -8 -8 -8 -8 -8 -8 -8 -8 -8 -8 -7 -7 -7 -6 -6
-9 -9 -9 -9 -9 -9 -9 -8 -9 -8 -8 -8 -8 -8 -8 -8 -8 -8 -9 -9 -10 -10 -10 -10 -10 -9 -9 -9 -9 -9 -9 -9 -9 -9 -9 -9 -9 -9 -9 -10 -9 -9 -9 -9
-9 -9 -9 -9 -9 -9 -9 -9 -9 -9 -8 -8 -8 -8 -8 -9 -9 -9 -9 -10 -10 -10 -11 -11 -11 -10 -10 -10 -10 -10 -10 -10 -10 -10 -10 -10 -10 -10 -10 -10 -10 -10 -10 -10
-9 -9 -10 -10 -9 -9 -9 -9 -9 -9 -9 -9 -9 -9 -9 -9 -9 -9 -9 -10 -10 -11 -11 -11 -11 -11 -11 -11 -11 -11 -11 -11 -11 -11 -11 -11 -11 -11 -11 -11 -11 -11 -11 -11
-10 -10 -10 -10 -10 -9 -9 -9 -9 -9 -9 -10 -10 -10 -10 -10 -10 -10 -10 -11 -11 -11 -12 -12 -12 -12 -12 -11 -11 -11 -11 -11 -11 -11 -11 -11 -11 -11 -11 -11 -11 -12 -12 -12
-10 -10 -10 -10 -10 -9 -9 -9 -10 -10 -11 -11 -12 -12 -12 -12 -12 -12 -12 -12 -12 -12 -12 -12 -12 -13 -13 -13 -12 -12 -12 -12 -12 -12 -12 -12 -12 -12 -12 -12 -12 -12 -12 -13
-11 -11 -10 -11 -11 -11 -11 -11 -11 -12 -12 -12 -13 -14 -14 -14 -14 -14 -14 -13 -13 -13 -13 -13 -13 -13 -13 -13 -13 -13 -13 -13 -13 -13 -13 -13 -13 -13 -13 -13 -13 -14 -14 -15
-11 -11 -11 -12 -12 -12 -12 -12 -13 -13 -13 -13 -14 -15 -16 -16 -16 -16 -15 -15 -14 -14 -14 -13 -13 -13 -13 -13 -13 -13 -14 -14 -14 -14 -14 -14 -14 -14 -14 -14 -15 -15 -15 -15
-12 -12 -13 -13 -14 -14 -14 -14 -14 -14 -14 -15 -16 -16 -17 -17 -17 -17 -16 -16 -15 -15 -15 -14 -14 -14 -14 -14 -14 -14 -14 -14 -14 -15 -15 -15 -16 -15 -15 -15 -15 -15 -15 -15
-13 -13 -14 -14 -14 -14 -14 -14 -14 -15 -15 -16 -16 -17 -17 -18 -17 -17 -17 -17 -16 -16 -16 -15 -15 -15 -15 -15 -15 -15 -15 -15 -15 -15 -16 -16 -17 -17 -17 -17 -17 -17 -17 -17

GFSNGP_700_temp_129.txt.gz
Temp
-7 -6 -6 -5 -5 -4 -4 -3 -4 -3 -4 -4 -5 -6 -5 -5 -2 -2 -2 -1 -1 -1 -1 -0 1 1 1 0 0 0 1 1 1 1 0 1 2 3 3 2 3 3 3 4
-6 -6 -6 -6 -5 -4 -4 -3 -3 -3 -3 -3 -5 -6 -4 -5 -4 -2 -2 -2 -2 -2 -1 -0 -0 -0 -0 -1 -0 0 0 -0 0 0 0 -0 -1 0 1 2 3 2 2 4
-7 -6 -6 -5 -5 -5 -5 -3 -4 -4 -5 -4 -5 -5 -5 -4 -3 -3 -2 -2 -2 -2 -1 -1 -1 -1 -1 -1 -1 -0 -0 -1 -1 -0 0 0 -0 1 1 2 2 2 2 3
-7 -7 -7 -7 -6 -6 -5 -5 -5 -5 -5 -5 -5 -5 -4 -4 -4 -3 -3 -3 -2 -2 -3 -2 -2 -2 -2 -2 -2 -1 -1 -1 -1 -1 -0 -0 -0 0 -0 2 2 2 2 2
-8 -7 -6 -7 -7 -7 -7 -7 -6 -7 -6 -6 -5 -5 -4 -4 -4 -3 -3 -3 -3 -3 -3 -4 -3 -4 -3 -3 -3 -2 -2 -1 -1 -1 -0 -0 -1 -0 0 1 2 1 2 2
-8 -7 -7 -10 -7 -7 -6 -7 -7 -7 -7 -6 -6 -6 -6 -4 -4 -4 -4 -5 -5 -6 -6 -5 -5 -4 -4 -4 -4 -3 -2 -1 -1 -1 -0 -0 -1 -1 -0 1 1 0 2 2
-8 -8 -8 -8 -8 -6 -7 -9 -8 -8 -8 -7 -7 -7 -7 -7 -6 -5 -5 -5 -6 -6 -6 -6 -5 -5 -4 -3 -3 -2 -2 -2 -1 -1 -0 0 -0 -1 0 1 1 1 1 1
-8 -9 -10 -9 -8 -9 -10 -10 -10 -9 -9 -8 -7 -7 -7 -7 -6 -6 -6 -6 -6 -6 -6 -6 -5 -4 -4 -3 -3 -3 -2 -2 -1 -0 0 0 -0 -1 -1 0 0 1 0 1
-9 -9 -9 -10 -10 -9 -10 -9 -9 -9 -9 -8 -8 -8 -7 -7 -7 -7 -6 -6 -6 -6 -5 -5 -5 -4 -4 -4 -3 -3 -2 -2 -1 0 0 -0 -1 -1 -0 -0 0 -0 1 1
-9 -9 -9 -9 -9 -9 -9 -9 -9 -8 -8 -8 -7 -7 -7 -7 -6 -6 -6 -5 -5 -5 -5 -4 -4 -4 -4 -4 -4 -3 -3 -2 -3 -1 -1 -1 -2 -1 -1 -1 0 -0 1 -0
-9 -9 -9 -9 -9 -9 -9 -8 -8 -8 -8 -7 -7 -7 -7 -7 -6 -6 -6 -6 -5 -5 -5 -5 -4 -5 -5 -4 -4 -4 -4 -5 -5 -4 -3 -2 -2 -1 -2 -2 -0 0 -1 -1
-9 -9 -9 -9 -9 -9 -8 -8 -8 -8 -8 -7 -7 -7 -7 -7 -6 -6 -6 -6 -6 -6 -5 -6 -6 -5 -5 -5 -5 -4 -5 -5 -5 -4 -4 -3 -3 -2 -3 -2 -1 -1 -0 -1
-9 -9 -9 -9 -9 -8 -8 -8 -8 -8 -8 -7 -7 -7 -7 -7 -7 -7 -7 -7 -7 -7 -7 -7 -6 -6 -6 -6 -6 -6 -5 -5 -5 -5 -4 -4 -3 -4 -4 -2 -1 -1 -2 -1
-9 -9 -9 -9 -9 -9 -8 -8 -8 -8 -8 -8 -8 -8 -7 -7 -7 -7 -7 -8 -8 -7 -7 -7 -7 -7 -7 -7 -7 -7 -6 -5 -5 -4 -4 -4 -4 -5 -5 -4 -2 -2 -2 -2
-10 -9 -9 -9 -9 -8 -8 -8 -8 -8 -8 -8 -8 -8 -7 -8 -8 -8 -8 -8 -8 -8 -8 -8 -7 -7 -7 -7 -8 -7 -7 -6 -6 -5 -5 -5 -6 -7 -6 -5 -4 -3 -2 -2
-9 -9 -9 -9 -9 -8 -9 -9 -9 -8 -8 -8 -8 -8 -8 -8 -8 -8 -8 -8 -9 -9 -8 -8 -8 -8 -8 -8 -8 -9 -8 -7 -7 -6 -6 -6 -7 -7 -7 -6 -6 -5 -4 -4
-9 -9 -9 -9 -9 -9 -9 -8 -8 -8 -8 -8 -8 -8 -8 -8 -8 -8 -8 -8 -9 -9 -9 -9 -9 -9 -8 -8 -9 -9 -9 -9 -8 -8 -8 -8 -8 -8 -8 -8 -7 -6 -6 -5
-9 -9 -9 -9 -9 -9 -9 -9 -9 -9 -9 -9 -9 -8 -8 -8 -8 -8 -8 -8 -9 -9 -9 -9 -9 -9 -9 -9 -9 -10 -10 -10 -9 -9 -9 -9 -10 -9 -10 -9 -9 -8 -8 -8
-9 -9 -9 -9 -9 -9 -9 -9 -9 -9 -9 -9 -8 -8 -9 -9 -9 -9 -9 -9 -9 -9 -10 -10 -10 -10 -10 -10 -10 -10 -10 -10 -10 -10 -10 -10 -10 -10 -10 -10 -10 -10 -10 -10
-9 -9 -10 -10 -9 -10 -9 -9 -9 -9 -9 -9 -9 -9 -9 -9 -10 -9 -10 -9 -10 -10 -10 -10 -10 -11 -10 -10 -10 -11 -11 -11 -11 -11 -11 -11 -11 -11 -11 -11 -11 -11 -11 -11
-10 -10 -10 -10 -10 -10 -10 -10 -10 -9 -9 -9 -9 -10 -10 -11 -11 -11 -11 -11 -11 -11 -11 -11 -11 -11 -11 -11 -11 -11 -11 -11 -11 -12 -12 -12 -11 -11 -12 -12 -12 -12 -11 -11
-10 -10 -10 -10 -10 -10 -10 -10 -10 -10 -10 -10 -10 -11 -11 -12 -12 -13 -13 -12 -12 -13 -12 -12 -12 -12 -12 -12 -12 -12 -12 -12 -12 -12 -12 -12 -12 -12 -12 -12 -12 -12 -12 -12
-10 -10 -10 -11 -10 -10 -11 -11 -11 -11 -11 -11 -12 -12 -12 -13 -14 -14 -14 -14 -14 -14 -13 -13 -13 -13 -13 -13 -13 -13 -13 -13 -13 -13 -13 -13 -13 -13 -13 -13 -13 -13 -13 -13
-11 -11 -11 -11 -11 -12 -12 -12 -13 -13 -12 -12 -13 -13 -14 -14 -15 -16 -16 -16 -15 -15 -14 -14 -14 -14 -14 -13 -13 -13 -13 -13 -13 -13 -13 -14 -14 -14 -14 -14 -14 -14 -14 -15
-11 -11 -12 -12 -13 -13 -13 -13 -13 -13 -13 -13 -13 -14 -15 -15 -16 -16 -17 -17 -16 -16 -15 -15 -14 -14 -14 -14 -14 -14 -14 -14 -14 -14 -14 -15 -15 -15 -15 -15 -15 -15 -16 -16
-12 -13 -13 -13 -14 -14 -14 -14 -14 -14 -14 -14 -14 -15 -15 -16 -17 -17 -17 -17 -17 -16 -16 -16 -15 -15 -15 -15 -15 -15 -15 -15 -15 -15 -15 -16 -16 -16 -16 -16 -16 -16 -15 -15
-13 -14 -14 -15 -15 -15 -15 -15 -15 -15 -15 -15 -15 -15 -16 -16 -17 -17 -17 -17 -17 -17 -17 -17 -16 -16 -16 -16 -16 -15 -16 -16 -16 -16 -16 -17 -17 -17 -16 -16 -16 -16 -16 -16

GFSNGP_700_temp_135.txt.gz
Temp
-7 -7 -7 -7 -8 -7 -7 -6 -6 -5 -6 -6 -6 -6 -6 -6 -6 -5 -5 -5 -5 -5 -5 -5 -4 -3 -3 -2 -2 -1 -1 0 1 2 2 2 2 2 2 2 2 3 3 3
-7 -6 -7 -8 -8 -7 -7 -6 -6 -7 -7 -8 -7 -6 -6 -6 -6 -6 -6 -6 -5 -5 -5 -5 -4 -3 -2 -2 -2 -1 -1 0 1 1 1 1 1 2 2 2 2 2 3 3
-8 -7 -7 -8 -8 -8 -8 -8 -8 -8 -8 -7 -7 -6 -6 -7 -6 -6 -5 -4 -4 -4 -4 -4 -3 -3 -3 -2 -1 -1 0 1 1 1 1 -0 0 1 1 1 1 1 2 2
-8 -7 -8 -8 -9 -9 -9 -9 -8 -8 -7 -7 -7 -8 -6 -6 -6 -6 -5 -5 -4 -4 -4 -3 -3 -2 -2 -1 -1 -0 0 1 1 0 -0 -0 0 -0 0 0 -0 0 1 1
-9 -8 -8 -8 -9 -9 -9 -10 -10 -9 -8 -7 -8 -8 -8 -7 -7 -7 -6 -6 -5 -4 -4 -4 -3 -2 -2 -2 -1 -1 -1 -1 -1 -1 -0 -0 -0 -0 -0 -0 -1 -0 0 0
-9 -8 -8 -8 -8 -8 -8 -10 -9 -8 -8 -8 -8 -8 -8 -8 -8 -7 -7 -7 -6 -6 -5 -5 -5 -4 -4 -4 -4 -3 -3 -2 -2 -1 -0 -1 -1 -1 -1 -1 -1 -0 0 0
-9 -9 -8 -8 -9 -9 -9 -9 -9 -10 -10 -10 -9 -9 -9 -8 -8 -7 -7 -6 -6 -6 -5 -5 -5 -5 -5 -4 -4 -3 -3 -3 -2 -1 -1 -1 -1 -1 -1 -1 -1 -0 -0 -0
-9 -9 -10 -9 -9 -9 -9 -10 -10 -10 -10 -9 -9 -9 -8 -7 -7 -7 -6 -6 -5 -5 -5 -5 -5 -4 -4 -4 -4 -4 -3 -3 -2 -2 -2 -2 -2 -1 -1 -1 -1 -0 -0 -0
-10 -9 -9 -9 -9 -9 -9 -9 -9 -9 -9 -9 -9 -8 -8 -8 -7 -7 -6 -6 -5 -5 -5 -5 -5 -5 -4 -4 -4 -4 -4 -4 -3 -3 -3 -2 -2 -2 -1 -1 -1 -1 -0 -0
-9 -9 -9 -9 -9 -9 -9 -9 -9 -9 -9 -9 -8 -8 -8 -8 -7 -7 -6 -6 -6 -6 -6 -6 -6 -5 -5 -5 -4 -4 -4 -4 -4 -4 -3 -3 -3 -3 -2 -2 -1 -1 -0 -0
-9 -9 -9 -9 -9 -9 -9 -9 -9 -9 -8 -8 -8 -8 -8 -8 -8 -7 -7 -7 -7 -7 -7 -7 -6 -6 -6 -5 -5 -5 -4 -5 -4 -4 -3 -4 -4 -4 -4 -3 -2 -1 -1 -1
-9 -9 -9 -9 -9 -9 -9 -9 -9 -9 -9 -8 -8 -8 -8 -8 -7 -7 -7 -7 -7 -7 -7 -7 -7 -7 -6 -6 -6 -5 -5 -5 -5 -5 -6 -5 -5 -5 -5 -5 -4 -3 -2 -1
-9 -9 -9 -9 -9 -9 -9 -9 -9 -9 -9 -8 -8 -8 -8 -8 -8 -8 -8 -7 -7 -7 -7 -7 -7 -7 -7 -7 -7 -6 -7 -7 -7 -7 -7 -6 -6 -6 -6 -6 -4 -4 -3 -2
-9 -9 -9 -9 -9 -9 -9 -9 -9 -9 -9 -9 -8 -8 -8 -8 -8 -8 -8 -8 -8 -8 -8 -8 -8 -8 -9 -8 -8 -8 -8 -8 -8 -8 -8 -8 -7 -6 -6 -6 -5 -4 -3 -3
-9 -10 -10 -9 -9 -9 -9 -9 -9 -9 -9 -9 -9 -9 -8 -8 -8 -8 -8 -8 -8 -8 -8 -9 -9 -9 -9 -9 -9 -9 -9 -9 -9 -10 -9 -9 -8 -7 -6 -6 -6 -6 -6 -5
-9 -10 -9 -9 -9 -9 -9 -10 -10 -10 -9 -9 -9 -9 -9 -8 -8 -8 -8 -8 -8 -9 -9 -10 -10 -10 -10 -10 -10 -10 -10 -10 -10 -10 -10 -10 -9 -9 -8 -8 -8 -8 -8 -8
-10 -9 -10 -10 -10 -10 -10 -10 -9 -9 -9 -9 -9 -9 -9 -9 -9 -9 -9 -9 -9 -10 -10 -10 -11 -11 -11 -11 -11 -10 -10 -10 -11 -11 -11 -11 -10 -10 -10 -10 -10 -10 -11 -11
-9 -10 -10 -10 -10 -10 -10 -10 -9 -9 -9 -9 -9 -9 -9 -9 -9 -9 -9 -10 -10 -11 -11 -11 -12 -12 -12 -12 -11 -11 -11 -11 -11 -11 -11 -11 -12 -12 -12 -12 -12 -12 -12 -12
-10 -10 -10 -10 -10 -10 -10 -10 -9 -9 -9 -9 -9 -10 -10 -10 -10 -10 -11 -11 -11 -12 -12 -13 -13 -13 -13 -12 -12 -12 -12 -11 -12 -12 -12 -12 -12 -13 -13 -13 -14 -13 -13 -13
-10 -10 -10 -10 -10 -10 -10 -10 -10 -10 -10 -10 -10 -11 -11 -11 -12 -12 -11 -11 -12 -12 -13 -13 -13 -14 -13 -13 -13 -13 -12 -12 -12 -12 -12 -12 -13 -13 -13 -13 -13 -14 -14 -14
-10 -10 -10 -10 -10 -10 -10 -10 -10 -10 -11 -11 -11 -11 -11 -11 -12 -12 -12 -13 -13 -14 -14 -14 -14 -14 -14 -14 -14 -13 -13 -13 -13 -13 -13 -13 -13 -13 -13 -13 -14 -14 -14 -14
-10 -11 -10 -11 -11 -10 -10 -11 -11 -11 -12 -12 -12 -12 -12 -12 -12 -12 -12 -13 -14 -15 -15 -15 -16 -15 -15 -14 -14 -14 -14 -14 -13 -14 -13 -13 -13 -13 -13 -14 -14 -14 -14 -14
-11 -11 -11 -11 -11 -11 -11 -12 -12 -13 -13 -13 -13 -13 -12 -12 -12 -13 -14 -14 -15 -15 -16 -16 -16 -16 -15 -15 -15 -15 -14 -14 -14 -14 -14 -14 -14 -14 -14 -14 -14 -15 -15 -15
-11 -11 -11 -11 -11 -12 -12 -13 -13 -14 -14 -14 -14 -14 -14 -13 -13 -13 -14 -15 -16 -16 -16 -17 -16 -16 -16 -15 -15 -15 -15 -15 -15 -15 -15 -15 -15 -15 -15 -15 -15 -15 -15 -16
-12 -12 -12 -12 -13 -13 -14 -14 -14 -14 -15 -15 -15 -15 -14 -15 -15 -15 -15 -15 -16 -17 -17 -17 -17 -17 -16 -16 -16 -16 -15 -15 -16 -15 -15 -15 -15 -15 -15 -16 -16 -16 -16 -16
-12 -13 -13 -13 -14 -15 -15 -15 -15 -16 -16 -16 -16 -16 -15 -15 -16 -16 -16 -16 -17 -17 -17 -17 -17 -17 -17 -17 -16 -16 -16 -16 -16 -16 -16 -16 -16 -17 -17 -17 -17 -17 -17 -17
-13 -13 -14 -15 -15 -16 -16 -16 -16 -17 -17 -17 -17 -17 -17 -17 -17 -17 -17 -17 -17 -18 -18 -18 -18 -18 -18 -18 -18 -17 -17 -17 -17 -17 -17 -17 -18 -18 -18 -17 -17 -17 -17 -17

GFSNGP_700_temp_138.txt.gz
Temp
-7 -7 -7 -8 -8 -8 -8 -8 -8 -8 -8 -8 -7 -7 -7 -7 -6 -6 -6 -6 -7 -6 -6 -6 -7 -6 -4 -4 -4 -3 -2 -1 -1 -1 -0 0 1 1 2 2 2 2 2 3
-7 -7 -7 -8 -8 -8 -8 -8 -8 -8 -8 -8 -8 -8 -7 -6 -6 -7 -6 -6 -6 -6 -6 -7 -6 -5 -4 -4 -3 -2 -1 -1 -1 -0 0 1 1 2 1 2 2 2 2 2
-8 -8 -8 -8 -9 -8 -9 -9 -9 -9 -9 -7 -7 -7 -7 -7 -7 -7 -6 -6 -6 -5 -4 -4 -4 -5 -4 -3 -3 -2 -1 -0 -0 0 0 1 1 1 0 1 1 1 1 2
-9 -8 -9 -8 -8 -8 -9 -9 -9 -9 -9 -8 -9 -9 -8 -9 -9 -8 -8 -7 -6 -6 -5 -5 -4 -3 -3 -2 -2 -1 -1 -0 0 1 1 0 1 0 -0 -0 -0 0 0 0
-9 -9 -8 -9 -9 -9 -9 -10 -10 -9 -9 -9 -9 -9 -9 -9 -8 -8 -8 -7 -7 -6 -6 -6 -5 -5 -4 -4 -3 -2 -2 -1 -1 -0 -0 -0 -0 -0 -0 -0 -1 -1 -0 -0
-9 -9 -9 -8 -9 -9 -9 -10 -10 -10 -10 -10 -9 -9 -9 -8 -8 -8 -8 -7 -7 -6 -6 -6 -5 -5 -5 -4 -4 -4 -3 -2 -1 -1 -1 -1 -1 -1 -0 -1 -1 -1 -1 -0
-9 -9 -8 -8 -9 -9 -10 -10 -10 -10 -10 -10 -10 -10 -10 -9 -9 -8 -7 -7 -7 -6 -6 -5 -5 -5 -4 -4 -4 -4 -3 -3 -3 -3 -2 -2 -1 -1 -1 -1 -1 -1 -1 -1
-10 -10 -10 -8 -9 -10 -10 -10 -10 -10 -10 -10 -10 -10 -10 -9 -9 -8 -8 -7 -7 -7 -6 -6 -6 -5 -5 -5 -5 -4 -4 -4 -3 -3 -2 -1 -1 -1 -1 -1 -0 -0 -1 -1
-9 -8 -9 -9 -9 -10 -9 -9 -9 -9 -9 -9 -9 -9 -9 -9 -9 -9 -8 -8 -8 -7 -6 -6 -6 -6 -6 -6 -5 -5 -5 -4 -4 -4 -3 -3 -2 -2 -2 -1 -1 -1 -0 -1
-9 -9 -9 -9 -9 -10 -9 -10 -9 -9 -9 -9 -9 -9 -8 -8 -8 -8 -8 -8 -8 -7 -7 -7 -7 -7 -6 -6 -6 -6 -5 -5 -5 -4 -4 -4 -3 -2 -2 -2 -2 -1 -1 -1
-9 -9 -9 -9 -9 -9 -9 -9 -9 -9 -9 -9 -9 -9 -9 -9 -9 -9 -8 -8 -8 -8 -8 -9 -8 -8 -7 -7 -7 -7 -6 -5 -5 -5 -4 -4 -4 -3 -3 -3 -2 -2 -3 -2
-9 -9 -10 -10 -9 -9 -9 -9 -9 -9 -9 -9 -9 -9 -9 -9 -9 -8 -8 -8 -8 -8 -8 -8 -7 -7 -7 -8 -8 -7 -7 -6 -6 -5 -5 -5 -5 -6 -4 -3 -4 -4 -4 -4
-9 -9 -9 -10 -9 -9 -9 -9 -9 -9 -9 -9 -9 -9 -9 -9 -8 -8 -8 -8 -8 -8 -7 -7 -8 -8 -8 -8 -8 -7 -7 -7 -6 -6 -6 -7 -7 -7 -6 -6 -6 -6 -6 -5
-9 -9 -9 -9 -9 -9 -9 -9 -9 -9 -9 -9 -9 -9 -9 -9 -9 -8 -8 -8 -8 -8 -8 -8 -8 -8 -8 -8 -8 -8 -8 -8 -7 -7 -8 -8 -8 -8 -8 -8 -7 -7 -6 -5
-9 -10 -10 -9 -9 -9 -9 -9 -9 -9 -9 -10 -9 -9 -9 -9 -8 -8 -8 -8 -8 -8 -8 -8 -9 -9 -9 -9 -9 -9 -9 -9 -9 -9 -9 -10 -10 -10 -10 -9 -9 -8 -7 -7
-9 -9 -9 -9 -9 -10 -10 -10 -10 -10 -10 -9 -9 -9 -9 -9 -8 -8 -8 -8 -8 -8 -9 -9 -10 -10 -11 -11 -10 -10 -10 -10 -10 -10 -10 -11 -11 -11 -11 -11 -11 -10 -10 -9
-9 -9 -9 -9 -10 -10 -10 -10 -10 -10 -9 -9 -9 -9 -8 -8 -9 -9 -10 -10 -10 -10 -10 -10 -11 -11 -12 -12 -12 -11 -11 -11 -11 -11 -11 -11 -11 -12 -12 -12 -12 -12 -12 -12
-9 -10 -10 -10 -10 -10 -10 -10 -10 -10 -9 -9 -9 -8 -9 -9 -9 -10 -10 -10 -11 -11 -11 -12 -12 -13 -13 -13 -13 -13 -12 -12 -12 -12 -12 -12 -12 -12 -13 -13 -13 -14 -14 -14
-10 -10 -10 -10 -10 -10 -10 -10 -10 -10 -9 -9 -9 -10 -10 -10 -10 -10 -10 -11 -11 -12 -13 -13 -14 -14 -14 -14 -14 -13 -13 -13 -13 -12 -12 -12 -13 -13 -13 -14 -14 -14 -14 -14
-10 -10 -10 -10 -10 -10 -10 -10 -10 -10 -10 -10 -11 -11 -11 -11 -11 -11 -11 -11 -11 -12 -13 -14 -14 -15 -15 -15 -15 -14 -14 -13 -13 -13 -13 -13 -13 -13 -13 -14 -14 -14 -14 -14
-10 -10 -10 -10 -10 -10 -11 -10 -10 -11 -11 -11 -12 -12 -12 -12 -12 -12 -12 -12 -13 -13 -14 -15 -15 -16 -16 -16 -15 -15 -14 -14 -14 -14 -14 -14 -14 -14 -14 -14 -14 -14 -14 -15
-10 -11 -11 -11 -11 -11 -11 -11 -11 -12 -12 -13 -13 -13 -13 -13 -13 -13 -12 -13 -13 -14 -14 -15 -16 -16 -16 -16 -16 -15 -15 -15 -15 -15 -14 -14 -14 -14 -14 -14 -15 -15 -15 -15
-11 -11 -11 -11 -11 -12 -12 -12 -12 -13 -13 -14 -14 -14 -14 -14 -14 -14 -14 -14 -14 -15 -15 -16 -16 -17 -17 -16 -16 -16 -16 -15 -15 -15 -15 -15 -15 -15 -15 -15 -15 -16 -16 -16
-11 -11 -12 -12 -12 -12 -13 -13 -14 -14 -14 -15 -15 -15 -15 -15 -15 -15 -15 -15 -15 -15 -16 -16 -17 -17 -17 -17 -17 -16 -16 -16 -16 -16 -16 -16 -16 -16 -16 -16 -16 -16 -16 -17
-12 -12 -12 -12 -13 -13 -14 -14 -15 -15 -15 -16 -16 -16 -16 -16 -16 -16 -16 -16 -16 -16 -17 -17 -17 -18 -17 -17 -17 -17 -17 -17 -17 -16 -16 -16 -16 -16 -16 -17 -17 -17 -17 -17
-12 -13 -13 -13 -14 -15 -15 -16 -16 -16 -17 -17 -17 -17 -17 -17 -17 -17 -17 -17 -17 -17 -18 -18 -18 -18 -18 -18 -18 -18 -18 -18 -17 -17 -17 -17 -17 -18 -17 -17 -17 -18 -18 -18
-13 -13 -14 -15 -15 -16 -16 -17 -17 -17 -18 -18 -18 -18 -18 -18 -18 -18 -18 -18 -18 -18 -19 -19 -19 -19 -19 -19 -19 -19 -19 -19 -18 -18 -18 -18 -19 -19 -19 -19 -19 -18 -18 -18

GFSNGP_700_temp_141.txt.gz
Temp
-7 -7 -7 -7 -8 -8 -8 -9 -8 -7 -8 -8 -8 -8 -8 -8 -8 -8 -8 -7 -7 -7 -7 -7 -7 -7 -6 -6 -6 -7 -5 -3 -2 -2 -1 -1 -0 0 1 1 2 2 2 2
-7 -8 -8 -8 -8 -8 -8 -8 -9 -8 -8 -8 -8 -8 -8 -7 -8 -8 -8 -8 -8 -7 -7 -6 -7 -7 -7 -7 -6 -5 -4 -2 -1 -1 -0 -0 0 1 1 1 2 2 2 2
-8 -8 -8 -8 -8 -9 -8 -8 -9 -9 -9 -9 -8 -8 -9 -9 -8 -9 -9 -8 -7 -7 -7 -6 -6 -5 -6 -6 -5 -3 -3 -2 -1 -0 -0 0 0 1 1 1 1 1 1 2
-9 -8 -8 -8 -8 -8 -8 -9 -9 -10 -10 -9 -9 -9 -9 -9 -10 -9 -8 -8 -7 -7 -6 -6 -6 -6 -5 -4 -4 -4 -3 -2 -2 -1 -0 -0 -0 1 1 0 0 0 0 1
-9 -9 -8 -9 -9 -8 -9 -10 -10 -10 -10 -10 -10 -10 -10 -10 -10 -9 -8 -8 -7 -7 -6 -6 -5 -5 -5 -4 -4 -4 -3 -2 -2 -1 -1 -1 -1 -1 -0 -1 -0 -0 -0 -1
-9 -9 -8 -8 -9 -8 -9 -10 -10 -10 -10 -10 -10 -10 -10 -9 -9 -9 -8 -8 -8 -7 -7 -6 -6 -5 -5 -5 -5 -4 -4 -3 -3 -2 -1 -1 -1 -1 -1 -1 -1 -0 -0 -0
-9 -9 -8 -9 -9 -9 -10 -9 -10 -10 -10 -10 -10 -10 -10 -10 -9 -9 -8 -8 -8 -8 -7 -7 -6 -6 -6 -5 -5 -5 -4 -4 -4 -3 -3 -2 -2 -2 -2 -1 -1 -1 -0 -0
-9 -10 -9 -9 -9 -9 -9 -10 -10 -10 -10 -10 -10 -10 -9 -9 -9 -9 -8 -9 -8 -8 -8 -7 -7 -7 -6 -6 -6 -6 -5 -5 -4 -4 -3 -3 -2 -2 -2 -1 -1 -1 -0 -0
-8 -8 -8 -9 -9 -9 -9 -9 -10 -10 -10 -9 -9 -9 -9 -9 -9 -9 -8 -8 -8 -8 -8 -8 -7 -7 -7 -7 -6 -6 -6 -5 -5 -5 -4 -3 -3 -2 -2 -1 -1 -1 -1 -0
-9 -9 -9 -9 -9 -9 -10 -10 -10 -10 -10 -9 -9 -9 -9 -9 -9 -8 -8 -8 -8 -8 -8 -8 -7 -7 -7 -7 -6 -6 -6 -6 -5 -5 -4 -4 -3 -3 -3 -2 -2 -1 -1 -1
-8 -9 -9 -9 -9 -9 -10 -10 -10 -10 -10 -10 -9 -9 -9 -9 -9 -9 -9 -9 -8 -8 -8 -7 -7 -7 -7 -7 -7 -6 -6 -6 -6 -5 -5 -5 -4 -3 -3 -3 -2 -2 -2 -1
-9 -9 -9 -9 -9 -9 -10 -10 -10 -10 -10 -10 -10 -9 -9 -9 -9 -9 -9 -9 -8 -8 -8 -8 -8 -7 -7 -7 -7 -7 -7 -7 -7 -7 -6 -6 -5 -6 -5 -5 -5 -5 -4 -3
-9 -9 -10 -10 -10 -10 -10 -10 -10 -10 -10 -10 -10 -9 -9 -9 -9 -9 -9 -9 -9 -9 -9 -9 -8 -8 -8 -9 -9 -9 -9 -8 -8 -8 -7 -7 -6 -6 -7 -8 -8 -7 -7 -6
-10 -10 -10 -10 -10 -10 -10 -10 -10 -10 -10 -10 -10 -9 -9 -9 -9 -9 -9 -9 -9 -9 -9 -9 -9 -10 -10 -10 -10 -10 -10 -9 -8 -8 -8 -8 -8 -8 -8 -8 -9 -9 -8 -7
-10 -10 -10 -10 -10 -10 -10 -10 -10 -10 -10 -10 -10 -9 -9 -9 -9 -9 -9 -9 -9 -9 -10 -10 -10 -10 -10 -10 -11 -11 -10 -10 -9 -9 -9 -9 -9 -9 -9 -9 -9 -9 -9 -8
-10 -10 -10 -10 -10 -10 -10 -10 -10 -10 -10 -10 -9 -9 -9 -9 -9 -9 -9 -9 -9 -9 -10 -10 -11 -11 -11 -11 -11 -11 -11 -11 -10 -10 -10 -10 -10 -10 -11 -11 -11 -11 -10 -9
-10 -10 -10 -10 -10 -10 -10 -10 -10 -10 -10 -10 -9 -9 -9 -9 -9 -10 -10 -10 -10 -10 -10 -10 -11 -11 -12 -12 -12 -12 -12 -12 -12 -12 -11 -11 -11 -11 -12 -12 -12 -12 -12 -12
-10 -10 -10 -10 -10 -10 -10 -10 -10 -10 -10 -10 -10 -10 -10 -10 -10 -10 -10 -10 -10 -11 -11 -11 -11 -12 -13 -13 -13 -14 -13 -13 -13 -12 -12 -12 -12 -12 -12 -13 -13 -13 -13 -13
-10 -10 -10 -10 -10 -10 -10 -10 -10 -10 -10 -10 -10 -11 -11 -11 -11 -11 -11 -11 -11 -11 -12 -12 -12 -13 -13 -14 -14 -15 -14 -14 -14 -13 -13 -13 -13 -13 -13 -13 -13 -13 -13 -14
-10 -10 -10 -11 -11 -10 -10 -10 -10 -10 -11 -11 -11 -11 -12 -12 -12 -12 -12 -12 -12 -12 -12 -13 -13 -14 -14 -15 -15 -15 -15 -15 -14 -14 -14 -14 -14 -14 -13 -14 -14 -14 -14 -15
-10 -10 -10 -11 -11 -11 -11 -11 -11 -11 -11 -11 -12 -12 -13 -13 -13 -13 -13 -13 -13 -13 -14 -14 -14 -15 -15 -15 -16 -16 -16 -15 -15 -15 -15 -15 -14 -14 -14 -14 -15 -15 -15 -15
-11 -11 -11 -11 -11 -11 -11 -11 -11 -12 -12 -13 -13 -14 -14 -14 -15 -14 -14 -14 -14 -14 -14 -15 -15 -16 -16 -16 -16 -16 -16 -16 -16 -15 -15 -15 -15 -15 -15 -15 -15 -16 -16 -16
-11 -11 -11 -11 -11 -12 -12 -12 -13 -13 -14 -14 -15 -15 -15 -15 -15 -15 -16 -16 -16 -15 -15 -16 -16 -16 -17 -17 -17 -16 -16 -16 -16 -16 -16 -16 -16 -16 -16 -16 -16 -16 -17 -17
-11 -11 -11 -12 -12 -12 -13 -13 -14 -15 -15 -16 -16 -16 -16 -17 -17 -17 -17 -17 -17 -17 -17 -17 -17 -17 -17 -17 -17 -17 -17 -17 -17 -17 -17 -17 -17 -17 -17 -17 -17 -17 -17 -18
-12 -12 -12 -12 -13 -13 -14 -14 -15 -15 -16 -17 -17 -17 -17 -18 -18 -18 -18 -18 -18 -18 -18 -18 -18 -18 -18 -18 -18 -18 -18 -18 -18 -17 -17 -17 -17 -17 -18 -18 -17 -18 -18 -18
-12 -13 -13 -13 -14 -14 -15 -16 -16 -17 -17 -18 -18 -18 -19 -19 -19 -19 -19 -19 -19 -19 -19 -19 -19 -19 -19 -19 -19 -19 -19 -19 -18 -18 -18 -18 -18 -18 -19 -19 -19 -19 -18 -18
-13 -13 -14 -14 -15 -16 -16 -17 -17 -18 -18 -19 -19 -19 -20 -20 -20 -20 -20 -20 -20 -20 -20 -20 -20 -20 -20 -20 -20 -20 -20 -20 -20 -19 -19 -19 -19 -19 -20 -20 -20 -20 -20 -20

GFSNGP_700_temp_144.txt.gz
Temp
-6 -7 -7 -7 -7 -6 -7 -6 -6 -5 -6 -7 -8 -9 -10 -9 -8 -7 -7 -7 -7 -7 -7 -7 -7 -7 -7 -7 -6 -7 -6 -5 -4 -3 -2 -3 -2 -1 -0 0 1 1 1 2
-7 -7 -7 -7 -7 -7 -7 -7 -7 -7 -7 -8 -9 -10 -9 -9 -8 -8 -7 -8 -8 -7 -7 -7 -6 -7 -7 -7 -7 -7 -7 -5 -4 -4 -3 -2 -1 -1 -0 0 1 1 1 2
-5 -7 -7 -6 -7 -7 -8 -8 -8 -9 -9 -10 -10 -11 -9 -9 -9 -9 -8 -8 -8 -7 -7 -7 -6 -6 -6 -7 -7 -7 -6 -5 -3 -2 -2 -1 -1 -0 0 0 1 1 2 2
-6 -7 -5 -7 -8 -8 -8 -9 -9 -10 -10 -11 -11 -11 -10 -10 -10 -9 -9 -8 -8 -8 -7 -7 -7 -7 -6 -6 -5 -5 -6 -5 -4 -3 -2 -2 -1 -1 -0 0 1 2 1 1
-7 -6 -6 -9 -9 -9 -8 -9 -9 -9 -10 -10 -10 -10 -10 -10 -10 -9 -9 -9 -8 -8 -8 -8 -7 -7 -7 -6 -6 -6 -5 -4 -4 -3 -4 -3 -3 -1 -1 0 1 1 1 0
-8 -6 -5 -7 -8 -8 -8 -8 -8 -9 -9 -9 -9 -10 -10 -10 -9 -9 -9 -9 -9 -8 -8 -8 -7 -7 -7 -7 -6 -6 -5 -4 -4 -3 -3 -3 -2 -2 -1 -1 -1 -0 -0 -0
-7 -7 -7 -8 -9 -8 -9 -8 -9 -9 -9 -9 -9 -10 -9 -9 -9 -9 -9 -9 -9 -8 -8 -8 -7 -7 -7 -6 -6 -6 -5 -5 -5 -4 -4 -3 -3 -2 -2 -1 -1 -1 -1 -1
-9 -9 -7 -8 -8 -9 -8 -9 -9 -9 -9 -9 -10 -10 -9 -9 -9 -9 -9 -9 -8 -8 -8 -8 -7 -7 -7 -7 -6 -6 -6 -5 -5 -4 -4 -4 -3 -3 -2 -2 -1 -1 -1 -1
-8 -8 -8 -8 -8 -8 -9 -9 -9 -9 -9 -9 -9 -9 -9 -9 -9 -9 -9 -8 -8 -8 -8 -8 -7 -7 -7 -7 -7 -6 -6 -6 -6 -6 -5 -5 -4 -3 -3 -2 -2 -2 -1 -1
-8 -8 -8 -9 -9 -9 -9 -9 -9 -9 -9 -9 -9 -9 -9 -9 -9 -9 -9 -8 -8 -8 -8 -8 -8 -7 -7 -7 -7 -7 -6 -6 -6 -6 -5 -5 -5 -4 -4 -3 -3 -3 -2 -1
-8 -9 -9 -9 -9 -9 -9 -9 -9 -9 -9 -9 -10 -9 -9 -9 -9 -9 -9 -9 -9 -9 -8 -8 -7 -7 -7 -7 -7 -6 -6 -6 -6 -6 -6 -6 -5 -5 -4 -4 -3 -3 -2 -2
-9 -9 -9 -9 -9 -9 -9 -9 -9 -9 -9 -9 -9 -9 -9 -9 -9 -9 -8 -8 -8 -9 -8 -8 -8 -8 -8 -7 -7 -7 -7 -7 -7 -7 -6 -6 -6 -6 -6 -5 -5 -4 -4 -3
-9 -9 -9 -9 -9 -9 -9 -10 -10 -10 -10 -10 -10 -9 -9 -9 -8 -8 -8 -8 -8 -8 -8 -8 -8 -8 -9 -9 -8 -8 -8 -8 -8 -8 -8 -7 -7 -7 -7 -7 -7 -6 -6 -6
-10 -9 -10 -10 -9 -10 -10 -10 -10 -10 -10 -10 -10 -9 -9 -9 -8 -9 -9 -9 -9 -9 -9 -8 -8 -9 -10 -10 -10 -10 -10 -10 -10 -9 -9 -9 -8 -8 -8 -7 -7 -8 -9 -8
-10 -10 -10 -10 -10 -10 -10 -10 -10 -10 -10 -10 -10 -9 -9 -9 -9 -9 -9 -10 -9 -9 -9 -9 -9 -10 -10 -11 -11 -11 -11 -11 -11 -11 -11 -10 -10 -9 -9 -9 -9 -10 -10 -9
-10 -10 -10 -10 -10 -10 -10 -10 -10 -10 -10 -10 -10 -10 -10 -10 -10 -10 -10 -10 -10 -10 -10 -9 -10 -10 -10 -11 -11 -12 -12 -12 -12 -12 -12 -11 -11 -11 -11 -11 -11 -11 -10 -10
-10 -10 -10 -10 -10 -10 -10 -10 -10 -10 -10 -10 -10 -10 -10 -10 -11 -11 -11 -11 -11 -10 -10 -10 -10 -10 -10 -11 -12 -12 -13 -13 -13 -13 -13 -13 -12 -12 -12 -12 -12 -12 -11 -11
-10 -10 -10 -10 -10 -10 -10 -10 -10 -10 -10 -10 -10 -10 -11 -11 -11 -12 -12 -12 -12 -12 -11 -12 -12 -11 -12 -12 -13 -13 -14 -14 -14 -14 -14 -14 -13 -13 -13 -13 -13 -13 -13 -13
-10 -10 -11 -11 -10 -11 -11 -11 -11 -11 -10 -10 -11 -11 -11 -12 -12 -12 -13 -13 -13 -13 -13 -13 -13 -13 -13 -13 -14 -14 -15 -15 -15 -15 -14 -14 -14 -14 -14 -14 -14 -14 -14 -14
-10 -11 -11 -11 -11 -11 -11 -11 -11 -11 -11 -11 -11 -12 -12 -13 -13 -14 -14 -14 -14 -14 -14 -14 -14 -14 -14 -14 -15 -15 -15 -16 -15 -15 -15 -15 -15 -15 -15 -14 -15 -15 -15 -15
-11 -11 -11 -11 -11 -11 -11 -11 -11 -11 -12 -12 -13 -13 -14 -14 -14 -14 -15 -15 -15 -15 -15 -15 -15 -15 -15 -15 -15 -16 -16 -16 -16 -16 -16 -16 -15 -15 -15 -15 -15 -16 -15 -16
-11 -11 -11 -11 -11 -11 -11 -12 -12 -12 -13 -13 -14 -14 -15 -15 -15 -16 -16 -16 -16 -16 -16 -16 -16 -16 -16 -16 -16 -16 -16 -16 -16 -16 -16 -16 -16 -16 -16 -16 -16 -16 -16 -16
-11 -11 -11 -12 -12 -12 -12 -12 -13 -13 -14 -15 -15 -16 -16 -16 -17 -17 -17 -17 -17 -17 -17 -17 -17 -17 -17 -17 -17 -17 -17 -17 -17 -17 -17 -17 -17 -17 -17 -17 -17 -17 -17 -17
-12 -12 -12 -12 -12 -12 -13 -13 -14 -15 -15 -16 -16 -17 -17 -18 -18 -18 -18 -18 -19 -18 -18 -18 -18 -18 -18 -18 -18 -18 -18 -18 -18 -18 -18 -18 -18 -17 -18 -18 -18 -18 -18 -18
-12 -12 -12 -13 -13 -13 -14 -14 -15 -16 -16 -16 -17 -17 -18 -18 -19 -19 -19 -19 -19 -20 -20 -20 -19 -19 -19 -19 -19 -19 -19 -19 -19 -19 -19 -19 -18 -18 -18 -18 -18 -19 -19 -19
-12 -13 -13 -13 -14 -14 -15 -15 -16 -16 -17 -17 -18 -18 -19 -19 -20 -20 -20 -20 -20 -20 -20 -20 -21 -20 -20 -20 -20 -20 -20 -20 -20 -20 -20 -20 -19 -19 -19 -19 -19 -19 -19 -19
-13 -13 -14 -14 -14 -15 -15 -16 -16 -17 -18 -18 -19 -19 -20 -20 -20 -20 -20 -21 -21 -21 -21 -21 -21 -21 -21 -21 -21 -21 -21 -21 -21 -21 -21 -21 -21 -21 -20 -20 -20 -21 -20 -20

GFSNGP_700_temp_147.txt.gz
Temp
-3 -4 -4 -3 -4 -4 -4 -4 -4 -3 -3 -4 -7 -8 -8 -10 -9 -8 -8 -8 -7 -7 -7 -7 -7 -7 -7 -7 -7 -7 -7 -6 -6 -5 -4 -3 -3 -4 -4 -3 -2 -0 0 0
-5 -4 -4 -4 -4 -4 -4 -4 -4 -4 -4 -7 -8 -8 -9 -10 -9 -9 -8 -8 -8 -8 -7 -7 -7 -7 -7 -7 -7 -7 -7 -8 -8 -6 -6 -4 -4 -5 -5 -3 -2 -1 -0 0
-4 -4 -4 -4 -4 -4 -4 -5 -6 -6 -6 -8 -9 -10 -10 -9 -9 -9 -9 -9 -8 -8 -8 -8 -7 -7 -7 -7 -6 -7 -7 -7 -7 -5 -4 -4 -3 -3 -3 -2 -1 -1 -0 0
-4 -5 -4 -4 -5 -5 -6 -7 -6 -8 -9 -9 -10 -10 -9 -9 -9 -9 -9 -9 -8 -8 -8 -8 -8 -7 -7 -7 -7 -6 -6 -7 -7 -6 -5 -4 -4 -3 -3 -2 -2 -0 -0 0
-5 -4 -4 -6 -7 -7 -6 -6 -8 -8 -9 -10 -10 -10 -9 -9 -9 -9 -8 -8 -8 -8 -8 -8 -8 -7 -7 -7 -7 -6 -6 -6 -5 -5 -5 -5 -4 -3 -2 -2 -3 -2 -1 0
-5 -4 -3 -5 -7 -6 -8 -7 -7 -8 -8 -8 -8 -9 -9 -9 -9 -9 -8 -8 -8 -8 -8 -8 -8 -8 -7 -7 -7 -7 -6 -6 -5 -5 -5 -5 -4 -4 -4 -3 -3 -3 -1 -0
-6 -5 -5 -7 -8 -7 -8 -7 -7 -8 -8 -8 -8 -8 -8 -8 -8 -8 -8 -8 -8 -8 -8 -8 -8 -8 -7 -7 -7 -7 -6 -6 -6 -6 -5 -5 -5 -4 -4 -3 -3 -3 -2 -1
-6 -6 -5 -8 -7 -8 -7 -7 -8 -8 -8 -9 -9 -9 -9 -9 -9 -9 -9 -8 -8 -8 -8 -8 -8 -8 -7 -7 -7 -7 -7 -6 -6 -6 -6 -5 -5 -4 -4 -4 -3 -3 -2 -2
-6 -6 -7 -7 -7 -8 -8 -8 -8 -9 -9 -9 -9 -9 -9 -9 -9 -9 -9 -9 -8 -8 -8 -8 -8 -7 -7 -7 -7 -7 -7 -6 -6 -6 -6 -5 -5 -5 -4 -4 -3 -3 -2 -2
-7 -7 -7 -7 -8 -8 -8 -9 -9 -9 -9 -9 -9 -9 -9 -9 -9 -9 -9 -8 -8 -8 -8 -8 -8 -8 -8 -7 -7 -7 -7 -7 -6 -6 -6 -6 -6 -5 -5 -5 -4 -4 -3 -3
-8 -8 -7 -8 -8 -8 -9 -9 -9 -9 -9 -9 -9 -9 -9 -9 -9 -9 -9 -8 -8 -8 -8 -8 -8 -8 -8 -8 -8 -8 -8 -8 -7 -7 -7 -7 -6 -6 -6 -5 -5 -4 -4 -3
-8 -8 -8 -8 -8 -9 -9 -9 -9 -9 -9 -9 -9 -9 -9 -9 -9 -9 -8 -8 -8 -8 -8 -8 -8 -8 -8 -8 -8 -9 -9 -8 -8 -7 -7 -7 -7 -7 -7 -7 -6 -6 -5 -5
-9 -9 -9 -9 -9 -9 -9 -9 -9 -10 -10 -10 -9 -9 -9 -9 -9 -9 -9 -8 -8 -9 -9 -9 -9 -8 -8 -8 -9 -9 -9 -9 -9 -9 -8 -9 -9 -8 -8 -8 -7 -7 -7 -6
-10 -9 -9 -9 -9 -9 -9 -10 -10 -10 -10 -10 -10 -10 -9 -9 -9 -9 -9 -9 -9 -9 -9 -9 -9 -9 -8 -9 -9 -9 -10 -10 -10 -10 -10 -10 -10 -10 -9 -9 -8 -8 -8 -7
-10 -10 -10 -9 -10 -10 -10 -10 -10 -10 -10 -10 -10 -10 -10 -9 -9 -9 -9 -10 -10 -10 -10 -10 -10 -10 -9 -9 -9 -10 -10 -10 -11 -11 -11 -11 -11 -11 -11 -10 -9 -9 -8 -8
-10 -10 -10 -10 -10 -10 -10 -10 -10 -10 -10 -10 -10 -10 -10 -9 -9 -10 -10 -10 -11 -11 -11 -11 -11 -10 -10 -10 -10 -10 -11 -11 -12 -12 -12 -12 -12 -12 -12 -11 -11 -10 -10 -10
-10 -10 -10 -10 -10 -10 -10 -10 -10 -10 -10 -10 -10 -10 -10 -10 -10 -11 -11 -11 -12 -12 -12 -11 -11 -11 -11 -11 -11 -11 -12 -12 -13 -13 -14 -14 -13 -13 -13 -13 -12 -12 -12 -12
-10 -10 -10 -10 -10 -11 -11 -11 -11 -11 -11 -10 -10 -11 -11 -11 -11 -12 -12 -12 -13 -13 -13 -13 -13 -13 -12 -12 -12 -12 -13 -13 -14 -14 -14 -14 -14 -14 -14 -14 -14 -14 -13 -13
-10 -10 -10 -10 -11 -11 -11 -11 -11 -11 -11 -11 -11 -11 -11 -12 -12 -13 -13 -13 -13 -13 -14 -14 -14 -14 -14 -14 -14 -14 -14 -15 -15 -15 -15 -15 -15 -15 -15 -15 -15 -14 -14 -14
-10 -10 -11 -11 -11 -11 -11 -11 -11 -11 -11 -11 -12 -12 -13 -13 -14 -14 -14 -14 -14 -14 -15 -15 -15 -15 -15 -15 -15 -15 -15 -16 -16 -16 -16 -16 -16 -16 -16 -16 -16 -15 -15 -15
-10 -11 -11 -11 -11 -11 -11 -11 -11 -12 -12 -12 -13 -13 -14 -14 -15 -15 -15 -16 -16 -16 -16 -16 -17 -16 -16 -16 -16 -16 -16 -16 -17 -17 -17 -17 -17 -17 -17 -17 -17 -16 -16 -16
-11 -11 -11 -11 -11 -11 -12 -12 -12 -12 -13 -13 -14 -14 -15 -15 -16 -16 -17 -17 -17 -18 -18 -18 -18 -18 -18 -17 -17 -17 -17 -17 -17 -18 -18 -18 -18 -17 -18 -17 -17 -17 -17 -17
-11 -11 -11 -11 -12 -12 -12 -12 -12 -13 -13 -14 -15 -15 -16 -16 -17 -17 -18 -18 -19 -19 -19 -19 -19 -19 -19 -19 -19 -19 -19 -19 -19 -19 -19 -18 -18 -18 -18 -18 -18 -18 -18 -18
-11 -11 -12 -12 -12 -12 -12 -13 -13 -14 -14 -15 -16 -16 -17 -17 -18 -18 -19 -19 -19 -20 -20 -20 -20 -20 -20 -20 -20 -20 -20 -20 -20 -20 -19 -19 -19 -19 -19 -19 -19 -19 -19 -19
-12 -12 -12 -12 -12 -13 -13 -13 -14 -14 -15 -16 -16 -17 -17 -18 -19 -19 -19 -20 -20 -20 -20 -20 -21 -21 -21 -21 -21 -21 -21 -21 -21 -21 -20 -20 -20 -20 -20 -20 -20 -20 -20 -20
-12 -12 -12 -13 -13 -13 -13 -14 -14 -15 -16 -16 -17 -18 -18 -19 -19 -20 -20 -20 -20 -20 -21 -21 -21 -21 -21 -21 -21 -21 -21 -21 -21 -21 -21 -21 -21 -21 -21 -21 -21 -20 -21 -21
-12 -12 -13 -13 -13 -14 -14 -15 -15 -16 -17 -17 -18 -19 -19 -20 -20 -20 -20 -20 -21 -21 -21 -21 -21 -22 -22 -22 -22 -22 -22 -22 -22 -22 -22 -22 -22 -22 -22 -22 -22 -21 -21 -21

GFSNGP_700_temp_153.txt.gz
Temp
-1 -1 -2 -2 -2 -2 -2 -2 -3 -3 -3 -3 -5 -5 -5 -5 -6 -6 -6 -7 -7 -8 -7 -8 -8 -8 -8 -7 -7 -7 -8 -8 -8 -9 -8 -8 -8 -7 -7 -6 -6 -6 -5 -4
-2 -2 -2 -2 -2 -2 -2 -2 -2 -2 -3 -4 -5 -4 -5 -5 -5 -6 -7 -7 -7 -7 -8 -8 -7 -7 -8 -8 -7 -7 -7 -8 -8 -8 -8 -8 -8 -8 -7 -7 -6 -6 -6 -6
-4 -3 -3 -3 -3 -3 -3 -3 -3 -3 -3 -5 -5 -5 -5 -5 -6 -7 -7 -8 -8 -8 -8 -8 -8 -7 -8 -8 -7 -8 -8 -7 -8 -8 -8 -8 -8 -8 -7 -7 -7 -6 -6 -6
-5 -4 -5 -3 -3 -3 -3 -3 -3 -3 -4 -4 -4 -4 -6 -6 -6 -7 -8 -8 -8 -8 -8 -8 -8 -8 -8 -8 -7 -8 -8 -8 -7 -7 -7 -7 -7 -7 -8 -7 -7 -7 -7 -7
-5 -5 -4 -4 -3 -3 -3 -4 -4 -4 -5 -5 -5 -6 -6 -7 -7 -8 -8 -8 -8 -8 -8 -8 -8 -8 -8 -7 -7 -8 -8 -8 -8 -7 -7 -7 -7 -7 -7 -6 -6 -5 -5 -6
-5 -5 -7 -5 -4 -4 -4 -4 -5 -4 -5 -5 -6 -7 -7 -8 -8 -8 -8 -8 -8 -8 -8 -8 -8 -7 -8 -7 -8 -8 -8 -8 -8 -8 -7 -7 -7 -7 -6 -6 -6 -6 -5 -5
-6 -6 -5 -5 -4 -4 -5 -5 -5 -5 -6 -6 -7 -7 -8 -8 -8 -9 -8 -8 -8 -8 -8 -8 -8 -8 -8 -8 -8 -8 -8 -8 -8 -8 -8 -8 -7 -7 -7 -7 -7 -6 -6 -5
-7 -7 -7 -6 -5 -6 -5 -5 -6 -6 -7 -7 -7 -8 -8 -8 -8 -8 -8 -8 -9 -8 -8 -8 -8 -8 -8 -8 -8 -8 -8 -8 -8 -8 -8 -8 -8 -8 -7 -7 -7 -6 -6 -6
-6 -6 -6 -6 -6 -6 -6 -6 -7 -7 -7 -7 -7 -8 -8 -9 -9 -8 -9 -9 -9 -9 -9 -8 -8 -8 -8 -8 -8 -8 -8 -8 -8 -8 -9 -8 -8 -8 -7 -7 -7 -6 -6 -6
-6 -7 -7 -6 -6 -6 -6 -7 -7 -7 -7 -8 -8 -9 -9 -9 -9 -9 -9 -9 -9 -9 -9 -9 -9 -9 -9 -9 -9 -9 -8 -9 -9 -9 -8 -9 -9 -8 -8 -8 -7 -7 -7 -6
-7 -7 -8 -7 -7 -6 -7 -7 -8 -8 -8 -8 -9 -9 -9 -9 -9 -9 -9 -9 -9 -9 -9 -9 -9 -9 -9 -9 -9 -9 -9 -9 -10 -10 -9 -9 -9 -8 -8 -8 -8 -8 -8 -7
-6 -7 -7 -8 -8 -7 -8 -8 -8 -8 -9 -9 -9 -9 -9 -9 -9 -9 -9 -9 -9 -9 -9 -10 -10 -10 -10 -10 -10 -9 -9 -9 -9 -10 -9 -9 -10 -10 -10 -10 -10 -10 -9 -9
-7 -7 -8 -8 -8 -9 -9 -9 -9 -9 -9 -9 -9 -9 -9 -10 -10 -10 -10 -9 -10 -10 -10 -10 -10 -10 -10 -10 -10 -10 -10 -10 -10 -10 -10 -10 -10 -10 -11 -11 -10 -10 -10 -10
-8 -8 -8 -8 -9 -9 -9 -9 -9 -9 -10 -10 -10 -10 -10 -10 -10 -10 -10 -10 -10 -10 -10 -11 -11 -11 -11 -11 -12 -11 -11 -11 -11 -11 -11 -11 -12 -12 -12 -12 -12 -11 -11 -11
-8 -9 -9 -9 -9 -9 -10 -10 -10 -10 -10 -10 -10 -10 -10 -10 -10 -10 -10 -10 -10 -11 -11 -11 -12 -12 -12 -12 -12 -12 -12 -12 -12 -13 -13 -13 -13 -13 -13 -13 -13 -13 -13 -12
-8 -9 -9 -10 -10 -10 -10 -10 -10 -10 -10 -10 -10 -10 -10 -10 -10 -10 -10 -11 -12 -12 -12 -12 -13 -13 -13 -13 -13 -14 -14 -14 -14 -14 -14 -14 -14 -14 -14 -14 -14 -14 -14 -13
-8 -8 -9 -9 -10 -10 -10 -10 -10 -10 -10 -10 -10 -11 -11 -10 -11 -11 -11 -12 -13 -13 -13 -13 -14 -14 -14 -14 -14 -14 -15 -15 -15 -15 -15 -15 -15 -16 -16 -16 -15 -15 -15 -15
-8 -9 -9 -10 -10 -10 -10 -11 -11 -11 -11 -11 -11 -11 -11 -11 -12 -12 -12 -12 -13 -13 -13 -14 -15 -15 -16 -16 -16 -16 -16 -17 -17 -17 -17 -17 -17 -17 -17 -17 -17 -16 -16 -16
-9 -9 -9 -10 -10 -10 -11 -11 -11 -11 -11 -11 -11 -11 -12 -12 -12 -12 -13 -13 -14 -14 -15 -15 -16 -16 -17 -17 -18 -18 -18 -18 -18 -18 -18 -18 -18 -18 -18 -18 -18 -17 -17 -17
-9 -9 -10 -10 -10 -10 -10 -11 -11 -11 -11 -12 -12 -12 -12 -12 -13 -13 -14 -15 -15 -16 -16 -17 -18 -18 -18 -19 -19 -19 -19 -20 -19 -19 -19 -19 -19 -19 -19 -19 -19 -19 -18 -18
-9 -10 -10 -10 -11 -11 -11 -11 -11 -11 -12 -12 -12 -12 -13 -13 -14 -14 -15 -16 -16 -17 -17 -18 -18 -19 -19 -19 -20 -20 -20 -20 -20 -20 -20 -20 -20 -20 -20 -20 -20 -20 -19 -19
-9 -10 -10 -11 -11 -11 -11 -11 -11 -12 -12 -12 -12 -13 -13 -14 -14 -15 -16 -16 -17 -18 -18 -19 -19 -19 -20 -20 -20 -20 -21 -21 -21 -21 -21 -21 -21 -21 -21 -21 -21 -20 -20 -20
-10 -10 -11 -11 -11 -11 -11 -11 -12 -12 -12 -12 -13 -13 -14 -14 -15 -16 -16 -17 -18 -18 -19 -19 -20 -20 -20 -20 -21 -21 -21 -21 -21 -22 -22 -22 -22 -22 -22 -22 -21 -21 -21 -21
-10 -10 -11 -11 -11 -11 -12 -12 -12 -12 -12 -13 -13 -14 -14 -15 -16 -16 -17 -17 -18 -19 -19 -20 -20 -20 -21 -21 -21 -21 -21 -22 -22 -22 -22 -22 -22 -22 -22 -22 -22 -22 -22 -22
-10 -11 -11 -11 -11 -12 -12 -12 -12 -12 -12 -13 -14 -14 -15 -15 -16 -17 -17 -18 -18 -19 -19 -20 -20 -20 -21 -21 -21 -22 -22 -22 -22 -22 -23 -23 -23 -23 -23 -23 -23 -23 -22 -22
-11 -11 -11 -11 -11 -12 -12 -12 -12 -12 -13 -13 -14 -14 -15 -16 -17 -17 -18 -18 -19 -19 -20 -20 -20 -21 -21 -21 -22 -22 -22 -22 -23 -23 -23 -23 -23 -23 -23 -23 -23 -23 -23 -23
-11 -11 -11 -11 -12 -12 -12 -12 -12 -13 -13 -14 -14 -15 -16 -16 -17 -18 -18 -19 -19 -20 -20 -20 -21 -21 -22 -22 -22 -22 -22 -23 -23 -23 -23 -23 -23 -23 -23 -23 -23 -23 -23 -23

GFSNGP_700_temp_156.txt.gz
Temp
-0 -0 -0 -1 -2 -2 -2 -2 -2 -2 -2 -2 -3 -4 -5 -5 -4 -5 -5 -5 -6 -6 -7 -7 -7 -7 -7 -7 -7 -7 -7 -7 -7 -7 -7 -8 -8 -9 -8 -8 -8 -8 -7 -7
-1 -1 -1 -1 -2 -2 -2 -2 -2 -2 -3 -3 -4 -4 -5 -5 -5 -5 -6 -6 -7 -7 -7 -7 -7 -7 -7 -7 -7 -8 -8 -7 -7 -7 -7 -8 -8 -9 -8 -8 -7 -7 -7 -7
-2 -2 -2 -2 -1 -2 -2 -2 -3 -3 -3 -3 -4 -5 -6 -6 -5 -6 -6 -6 -7 -7 -7 -8 -7 -8 -8 -7 -8 -8 -7 -7 -7 -7 -7 -8 -8 -8 -8 -8 -8 -7 -7 -7
-3 -4 -5 -3 -3 -3 -3 -3 -3 -3 -3 -4 -5 -5 -5 -5 -6 -6 -6 -7 -7 -7 -8 -8 -8 -8 -8 -8 -8 -7 -8 -7 -8 -8 -8 -7 -7 -7 -7 -7 -7 -8 -8 -8
-4 -5 -4 -4 -4 -3 -3 -4 -4 -4 -4 -4 -5 -5 -6 -6 -6 -7 -7 -7 -7 -8 -8 -8 -8 -8 -8 -8 -8 -8 -8 -8 -8 -8 -8 -8 -8 -8 -7 -7 -7 -7 -7 -7
-5 -5 -8 -5 -4 -4 -4 -4 -4 -5 -5 -5 -6 -6 -6 -6 -7 -7 -7 -8 -8 -8 -8 -8 -8 -8 -8 -8 -8 -8 -8 -7 -7 -8 -8 -9 -8 -8 -8 -8 -8 -7 -7 -6
-6 -6 -6 -5 -4 -4 -5 -4 -4 -5 -5 -6 -7 -7 -7 -7 -7 -8 -8 -8 -9 -8 -8 -8 -8 -8 -8 -8 -8 -8 -8 -8 -8 -8 -8 -9 -9 -9 -8 -8 -8 -8 -8 -7
-6 -7 -7 -5 -5 -5 -5 -5 -5 -6 -6 -7 -7 -7 -7 -8 -8 -9 -9 -9 -9 -9 -9 -9 -9 -9 -9 -8 -8 -8 -8 -8 -8 -8 -8 -9 -9 -9 -9 -9 -9 -8 -8 -8
-6 -6 -6 -6 -6 -6 -6 -6 -6 -6 -7 -7 -7 -8 -8 -8 -9 -9 -9 -9 -9 -9 -9 -9 -9 -9 -9 -9 -9 -9 -9 -9 -9 -8 -8 -8 -9 -9 -9 -9 -9 -9 -8 -8
-6 -6 -6 -6 -6 -6 -6 -7 -7 -7 -7 -8 -8 -8 -9 -9 -9 -9 -9 -9 -9 -9 -9 -9 -9 -9 -9 -9 -9 -9 -9 -9 -9 -9 -9 -9 -9 -9 -9 -9 -9 -9 -8 -8
-7 -7 -7 -7 -7 -7 -7 -7 -7 -8 -8 -8 -9 -9 -9 -9 -9 -9 -9 -9 -9 -9 -9 -9 -9 -9 -9 -10 -10 -10 -10 -10 -10 -10 -10 -10 -10 -9 -9 -9 -9 -9 -9 -9
-6 -6 -7 -7 -7 -7 -8 -8 -8 -9 -9 -9 -9 -9 -10 -10 -10 -10 -10 -10 -10 -10 -10 -10 -10 -10 -10 -10 -10 -10 -11 -11 -10 -10 -10 -10 -10 -11 -11 -11 -11 -11 -10 -10
-6 -7 -7 -8 -8 -8 -8 -9 -9 -9 -9 -9 -10 -10 -10 -10 -10 -10 -10 -10 -10 -10 -10 -10 -10 -10 -11 -11 -11 -11 -11 -11 -12 -11 -11 -11 -11 -11 -11 -12 -12 -12 -12 -12
-7 -7 -8 -8 -8 -9 -9 -9 -9 -9 -10 -10 -10 -10 -10 -10 -10 -10 -10 -10 -10 -10 -11 -11 -11 -11 -12 -12 -12 -12 -13 -13 -13 -13 -13 -12 -12 -12 -12 -12 -12 -12 -13 -13
-7 -8 -9 -9 -9 -9 -9 -9 -9 -10 -10 -10 -10 -10 -10 -10 -10 -10 -10 -11 -11 -11 -11 -12 -12 -12 -13 -13 -13 -13 -14 -14 -14 -14 -14 -14 -14 -14 -14 -14 -14 -14 -14 -14
-7 -7 -8 -8 -9 -9 -9 -10 -10 -10 -10 -10 -10 -10 -10 -10 -10 -11 -11 -11 -11 -11 -12 -12 -13 -13 -13 -14 -15 -15 -16 -16 -16 -16 -16 -16 -16 -16 -16 -16 -15 -15 -15 -15
-8 -8 -8 -9 -9 -10 -10 -10 -10 -10 -11 -11 -11 -11 -11 -11 -11 -11 -11 -11 -11 -12 -13 -13 -14 -14 -15 -15 -16 -16 -17 -17 -18 -18 -18 -18 -18 -18 -17 -17 -17 -17 -17 -16
-8 -9 -9 -9 -10 -10 -10 -10 -10 -11 -11 -11 -11 -11 -11 -11 -11 -11 -12 -12 -12 -13 -14 -15 -15 -16 -16 -17 -17 -18 -18 -19 -19 -19 -19 -19 -19 -19 -19 -19 -19 -19 -19 -18
-8 -9 -9 -9 -10 -10 -10 -10 -11 -11 -11 -11 -11 -11 -11 -12 -12 -12 -13 -13 -13 -15 -15 -15 -16 -17 -17 -18 -18 -19 -19 -19 -20 -20 -20 -20 -20 -20 -21 -21 -20 -20 -20 -19
-9 -9 -9 -9 -10 -10 -10 -11 -11 -11 -11 -11 -11 -12 -12 -12 -12 -13 -13 -14 -14 -15 -16 -16 -17 -18 -18 -19 -19 -19 -20 -20 -20 -20 -21 -21 -21 -21 -21 -21 -21 -21 -21 -20
-9 -9 -9 -10 -10 -10 -11 -11 -11 -11 -11 -12 -12 -12 -12 -12 -13 -13 -14 -14 -15 -16 -16 -17 -18 -18 -19 -19 -20 -20 -20 -20 -21 -21 -21 -21 -21 -21 -22 -22 -22 -22 -21 -21
-9 -9 -10 -10 -11 -11 -11 -11 -11 -11 -11 -12 -12 -12 -12 -13 -13 -14 -14 -15 -15 -16 -17 -18 -18 -19 -19 -20 -20 -20 -21 -21 -21 -21 -22 -22 -22 -22 -22 -22 -22 -22 -22 -22
-9 -10 -10 -11 -11 -11 -11 -11 -12 -12 -12 -12 -12 -12 -13 -13 -14 -14 -15 -15 -16 -17 -17 -18 -18 -19 -19 -20 -20 -21 -21 -21 -22 -22 -22 -22 -22 -22 -22 -22 -23 -23 -23 -23
-10 -10 -10 -11 -11 -11 -11 -12 -12 -12 -12 -12 -12 -13 -13 -14 -14 -15 -15 -16 -17 -17 -18 -18 -19 -19 -20 -20 -21 -21 -21 -22 -22 -22 -22 -23 -23 -23 -23 -23 -23 -23 -23 -23
-10 -10 -10 -11 -11 -11 -11 -12 -12 -12 -12 -13 -13 -13 -14 -14 -15 -16 -16 -17 -17 -18 -18 -19 -19 -20 -20 -21 -21 -22 -22 -22 -22 -22 -23 -23 -23 -23 -23 -23 -23 -23 -23 -23
-10 -11 -11 -11 -11 -11 -12 -12 -12 -12 -13 -13 -14 -14 -14 -15 -15 -16 -17 -17 -18 -18 -19 -20 -20 -21 -21 -21 -22 -22 -22 -23 -23 -23 -23 -23 -23 -23 -23 -24 -24 -24 -24 -24
-11 -11 -11 -11 -12 -12 -12 -12 -12 -12 -13 -13 -14 -14 -15 -15 -16 -17 -17 -18 -18 -19 -19 -20 -20 -21 -21 -22 -22 -23 -23 -23 -23 -23 -23 -23 -24 -24 -24 -24 -24 -24 -24 -24

GFSNGP_700_temp_159.txt.gz
Temp
1 1 1 1 0 -0 -1 -1 -2 -1 -2 -1 -2 -2 -2 -3 -4 -4 -5 -5 -5 -6 -6 -6 -7 -7 -6 -7 -7 -7 -7 -7 -7 -7 -7 -7 -7 -7 -7 -8 -7 -9 -9 -8
1 0 -0 0 -1 -2 -2 -2 -2 -2 -2 -2 -3 -3 -4 -4 -4 -5 -5 -6 -6 -6 -7 -7 -7 -7 -7 -7 -7 -7 -7 -7 -7 -7 -7 -7 -7 -8 -8 -8 -8 -8 -9 -9
-1 -1 -1 -2 -1 -1 -2 -2 -2 -2 -2 -2 -3 -3 -4 -5 -5 -5 -6 -6 -6 -7 -7 -7 -7 -7 -7 -7 -7 -7 -7 -7 -7 -7 -7 -7 -8 -8 -8 -8 -8 -8 -8 -7
-1 -3 -4 -2 -2 -2 -3 -2 -3 -3 -3 -3 -3 -4 -5 -5 -6 -6 -7 -7 -7 -8 -8 -8 -8 -7 -7 -7 -7 -7 -7 -7 -8 -7 -7 -7 -8 -8 -8 -9 -8 -8 -8 -8
-3 -4 -3 -3 -3 -3 -2 -3 -3 -3 -3 -3 -4 -5 -6 -6 -6 -6 -7 -7 -8 -8 -8 -8 -8 -8 -8 -8 -8 -8 -8 -8 -8 -8 -7 -7 -8 -8 -9 -9 -9 -8 -8 -8
-5 -5 -7 -4 -4 -4 -4 -4 -4 -4 -4 -4 -5 -5 -6 -6 -7 -7 -7 -8 -8 -8 -8 -8 -8 -8 -8 -8 -8 -8 -8 -8 -8 -8 -8 -8 -7 -8 -8 -9 -9 -9 -8 -8
-5 -6 -5 -5 -4 -4 -4 -4 -4 -4 -5 -6 -6 -6 -7 -7 -7 -8 -8 -8 -9 -9 -9 -8 -8 -8 -8 -8 -8 -8 -8 -8 -9 -8 -8 -8 -8 -8 -8 -9 -9 -9 -10 -9
-6 -6 -7 -5 -5 -5 -4 -5 -5 -5 -6 -6 -7 -7 -7 -8 -8 -9 -9 -9 -9 -9 -9 -9 -9 -9 -9 -9 -9 -9 -9 -9 -9 -9 -9 -9 -8 -8 -8 -8 -9 -9 -10 -10
-5 -6 -5 -5 -5 -5 -5 -6 -6 -6 -6 -7 -7 -7 -8 -8 -9 -9 -9 -9 -9 -9 -9 -9 -9 -9 -9 -9 -9 -9 -10 -10 -10 -9 -9 -9 -9 -9 -8 -9 -9 -9 -10 -10
-6 -6 -6 -6 -6 -6 -6 -6 -6 -7 -7 -7 -8 -8 -8 -9 -9 -9 -9 -10 -10 -10 -10 -9 -9 -9 -9 -9 -10 -10 -10 -10 -10 -10 -10 -10 -10 -10 -10 -9 -9 -9 -9 -9
-6 -6 -6 -6 -7 -7 -7 -7 -7 -8 -8 -8 -8 -9 -9 -9 -10 -10 -10 -10 -10 -10 -10 -9 -9 -10 -10 -10 -10 -10 -11 -11 -11 -11 -11 -11 -11 -11 -11 -11 -10 -10 -9 -9
-5 -5 -6 -6 -7 -7 -7 -8 -8 -8 -8 -9 -9 -9 -10 -10 -10 -10 -10 -10 -10 -10 -10 -10 -10 -10 -10 -10 -10 -10 -11 -11 -11 -11 -12 -12 -12 -12 -13 -12 -13 -12 -12 -12
-6 -6 -7 -8 -8 -8 -8 -8 -9 -9 -9 -9 -9 -10 -10 -10 -10 -10 -10 -10 -10 -10 -10 -10 -10 -10 -10 -11 -11 -11 -12 -12 -13 -13 -13 -14 -14 -13 -13 -14 -14 -14 -14 -13
-6 -7 -7 -8 -8 -8 -9 -9 -9 -10 -10 -10 -10 -10 -10 -10 -10 -10 -10 -10 -10 -10 -10 -10 -10 -11 -11 -12 -12 -13 -13 -14 -14 -15 -15 -16 -16 -16 -16 -15 -15 -15 -15 -15
-7 -7 -8 -8 -9 -9 -9 -9 -10 -10 -10 -10 -10 -11 -11 -11 -11 -11 -10 -10 -11 -10 -10 -11 -11 -12 -12 -13 -14 -14 -15 -15 -16 -16 -17 -18 -18 -18 -18 -18 -17 -17 -16 -17
-7 -7 -7 -8 -8 -9 -9 -10 -10 -10 -10 -10 -11 -11 -11 -11 -11 -11 -11 -11 -11 -11 -11 -12 -12 -13 -14 -14 -15 -15 -16 -17 -17 -18 -18 -19 -19 -19 -19 -19 -19 -19 -18 -18
-7 -7 -8 -8 -9 -9 -10 -10 -10 -10 -11 -11 -11 -11 -11 -11 -11 -11 -11 -10 -11 -11 -12 -13 -13 -14 -14 -15 -16 -16 -17 -18 -18 -19 -19 -19 -20 -20 -20 -20 -20 -20 -20 -20
-7 -8 -8 -9 -9 -10 -10 -10 -10 -10 -11 -11 -11 -11 -11 -11 -11 -11 -11 -11 -12 -12 -13 -13 -14 -15 -15 -16 -17 -17 -18 -18 -19 -19 -20 -20 -20 -20 -21 -21 -21 -21 -21 -21
-8 -8 -9 -9 -10 -10 -10 -10 -10 -10 -11 -11 -11 -11 -11 -11 -11 -11 -11 -12 -13 -13 -14 -14 -15 -15 -16 -17 -18 -18 -19 -19 -20 -20 -20 -20 -21 -21 -21 -21 -21 -21 -21 -21
-8 -9 -9 -9 -10 -10 -10 -10 -11 -11 -11 -11 -11 -11 -12 -11 -11 -12 -12 -13 -13 -14 -14 -15 -16 -16 -17 -17 -18 -19 -19 -20 -20 -20 -21 -21 -21 -21 -22 -22 -22 -22 -22 -22
-8 -9 -9 -9 -10 -10 -10 -11 -11 -11 -11 -11 -12 -12 -11 -12 -12 -12 -13 -13 -14 -14 -15 -16 -16 -17 -18 -18 -19 -19 -20 -20 -20 -21 -21 -21 -22 -22 -22 -22 -22 -22 -22 -22
-9 -9 -9 -10 -10 -10 -11 -11 -11 -11 -11 -11 -12 -12 -12 -12 -13 -13 -13 -14 -15 -15 -16 -16 -17 -17 -18 -19 -19 -20 -20 -21 -21 -21 -22 -22 -22 -22 -22 -22 -23 -23 -23 -23
-9 -9 -10 -10 -10 -11 -11 -11 -11 -11 -12 -11 -12 -12 -12 -13 -13 -14 -14 -15 -15 -16 -16 -17 -18 -18 -19 -19 -20 -20 -21 -21 -22 -22 -22 -22 -22 -22 -23 -23 -23 -23 -23 -23
-9 -10 -10 -10 -11 -11 -11 -11 -11 -12 -12 -12 -12 -12 -12 -13 -13 -14 -15 -15 -16 -16 -17 -18 -18 -19 -19 -20 -20 -21 -21 -22 -22 -22 -23 -23 -23 -23 -23 -23 -23 -23 -23 -23
-10 -10 -10 -11 -11 -11 -11 -11 -12 -12 -12 -12 -12 -13 -13 -14 -14 -15 -15 -16 -16 -17 -18 -18 -19 -19 -20 -20 -21 -21 -22 -22 -23 -23 -23 -23 -23 -23 -24 -24 -24 -24 -24 -24
-10 -11 -11 -11 -11 -11 -11 -12 -12 -12 -12 -13 -13 -13 -14 -14 -15 -15 -16 -16 -17 -17 -18 -19 -19 -20 -20 -21 -21 -22 -22 -23 -23 -23 -23 -23 -23 -24 -24 -24 -24 -24 -24 -24
-10 -11 -11 -11 -11 -12 -12 -12 -13 -13 -13 -13 -14 -14 -14 -15 -15 -16 -16 -17 -17 -18 -18 -19 -20 -20 -21 -21 -22 -22 -23 -23 -23 -23 -24 -24 -24 -24 -24 -24 -24 -24 -24 -24

GFSNGP_700_temp_162.txt.gz
Temp
0 0 1 1 1 1 -0 1 -1 1 -0 -0 -1 -1 -2 -3 -3 -3 -4 -5 -5 -5 -6 -6 -7 -7 -7 -7 -7 -7 -7 -6 -6 -6 -6 -6 -6 -6 -6 -7 -8 -8 -8 -8
-2 -0 0 -0 0 -0 -0 -0 -0 -1 -1 -1 -1 -2 -2 -3 -3 -4 -4 -5 -6 -6 -7 -7 -7 -7 -7 -7 -7 -7 -7 -7 -7 -7 -7 -7 -7 -7 -7 -7 -8 -8 -8 -8
-2 -1 -1 -2 0 -0 -0 -1 -1 -1 -1 -2 -2 -2 -3 -3 -3 -4 -5 -6 -6 -7 -7 -7 -8 -8 -8 -7 -7 -7 -7 -7 -7 -7 -7 -7 -7 -7 -7 -7 -8 -9 -9 -8
-3 -3 -4 -2 -1 -2 -1 -1 -2 -2 -2 -2 -3 -3 -3 -3 -5 -6 -6 -6 -7 -7 -8 -8 -8 -8 -8 -8 -8 -8 -8 -8 -8 -8 -8 -8 -8 -8 -8 -8 -8 -8 -9 -9
-6 -6 -4 -3 -3 -2 -2 -2 -2 -2 -2 -3 -4 -4 -4 -4 -5 -6 -7 -7 -8 -8 -8 -8 -8 -8 -8 -8 -8 -8 -8 -8 -8 -8 -8 -8 -8 -8 -8 -8 -8 -8 -8 -8
-6 -6 -6 -3 -3 -3 -4 -3 -2 -3 -4 -4 -4 -4 -5 -5 -6 -7 -7 -8 -8 -8 -8 -9 -9 -9 -9 -9 -9 -9 -9 -9 -9 -8 -9 -9 -9 -9 -9 -9 -9 -9 -9 -9
-6 -6 -4 -4 -4 -3 -4 -3 -3 -4 -4 -4 -5 -6 -6 -7 -7 -7 -7 -8 -8 -9 -9 -9 -9 -9 -9 -9 -9 -9 -9 -9 -9 -9 -9 -9 -9 -9 -9 -9 -10 -10 -10 -10
-5 -7 -6 -4 -4 -4 -4 -4 -4 -5 -5 -5 -6 -6 -7 -7 -7 -8 -8 -8 -9 -9 -9 -9 -9 -9 -9 -9 -9 -9 -9 -9 -10 -10 -10 -10 -10 -9 -10 -10 -10 -10 -10 -10
-5 -5 -4 -4 -4 -5 -5 -5 -5 -5 -6 -6 -7 -7 -7 -7 -8 -8 -9 -9 -10 -9 -9 -9 -9 -9 -9 -10 -10 -10 -10 -10 -10 -10 -10 -10 -10 -10 -10 -10 -10 -10 -11 -10
-5 -5 -4 -5 -5 -6 -6 -6 -6 -6 -6 -7 -7 -7 -7 -8 -8 -9 -9 -9 -9 -10 -10 -10 -10 -10 -10 -10 -10 -10 -10 -11 -11 -11 -11 -11 -12 -12 -12 -12 -11 -11 -11 -11
-5 -5 -5 -6 -6 -6 -6 -6 -7 -7 -7 -7 -7 -8 -8 -9 -9 -9 -9 -10 -10 -10 -10 -10 -10 -10 -10 -10 -11 -11 -11 -11 -11 -12 -12 -12 -13 -13 -13 -14 -14 -13 -13 -13
-5 -4 -5 -6 -6 -7 -7 -7 -7 -7 -8 -8 -8 -9 -9 -9 -9 -10 -10 -10 -10 -10 -10 -10 -10 -10 -11 -11 -11 -11 -11 -12 -12 -13 -13 -14 -14 -15 -16 -16 -16 -17 -17 -16
-5 -6 -6 -6 -7 -7 -8 -8 -8 -8 -9 -9 -9 -9 -9 -10 -10 -10 -10 -10 -10 -10 -10 -11 -11 -11 -11 -11 -12 -12 -12 -13 -14 -14 -15 -15 -16 -16 -16 -18 -18 -18 -19 -18
-6 -6 -6 -7 -7 -8 -8 -8 -9 -9 -9 -9 -9 -10 -10 -10 -10 -10 -11 -11 -10 -10 -11 -11 -11 -11 -11 -12 -13 -13 -14 -14 -15 -16 -16 -17 -17 -18 -18 -19 -19 -19 -19 -19
-6 -7 -7 -7 -8 -8 -9 -9 -9 -9 -9 -10 -10 -10 -10 -11 -11 -11 -11 -11 -11 -11 -11 -11 -11 -12 -12 -13 -14 -14 -15 -15 -16 -17 -17 -18 -18 -19 -19 -20 -20 -20 -20 -20
-7 -7 -7 -7 -8 -8 -8 -9 -9 -9 -10 -10 -10 -10 -11 -11 -11 -11 -11 -11 -11 -11 -11 -11 -12 -13 -13 -14 -14 -15 -16 -16 -17 -17 -18 -18 -19 -19 -20 -20 -20 -21 -20 -20
-7 -7 -7 -7 -7 -8 -9 -9 -9 -10 -10 -10 -10 -11 -11 -11 -11 -11 -11 -11 -11 -11 -12 -12 -13 -13 -14 -14 -15 -16 -16 -17 -18 -18 -19 -19 -20 -20 -20 -21 -21 -21 -21 -21
-7 -7 -7 -7 -8 -8 -9 -9 -10 -10 -10 -10 -11 -11 -11 -11 -11 -11 -11 -11 -12 -12 -12 -13 -13 -14 -15 -15 -16 -16 -17 -18 -18 -19 -19 -20 -20 -21 -21 -21 -21 -21 -21 -22
-7 -7 -7 -8 -8 -9 -9 -9 -10 -10 -10 -11 -11 -11 -11 -11 -11 -11 -12 -12 -12 -12 -13 -14 -14 -15 -15 -16 -16 -17 -18 -18 -19 -20 -20 -20 -21 -21 -21 -22 -22 -22 -22 -22
-7 -8 -8 -8 -9 -9 -9 -10 -10 -10 -11 -11 -11 -11 -12 -12 -12 -12 -12 -12 -12 -13 -14 -14 -15 -15 -16 -16 -17 -18 -18 -19 -20 -20 -21 -21 -21 -21 -22 -22 -22 -22 -22 -22
-8 -8 -8 -9 -9 -9 -10 -10 -11 -11 -11 -11 -12 -12 -12 -12 -12 -12 -12 -13 -13 -14 -14 -15 -15 -16 -16 -17 -18 -18 -19 -20 -20 -21 -21 -21 -22 -22 -22 -22 -22 -23 -23 -23
-8 -8 -9 -9 -9 -10 -10 -11 -11 -11 -11 -12 -12 -12 -12 -12 -12 -13 -13 -13 -14 -14 -15 -15 -16 -16 -17 -18 -18 -19 -19 -20 -21 -21 -22 -22 -22 -22 -23 -23 -23 -23 -23 -23
-9 -9 -9 -10 -10 -10 -11 -11 -11 -11 -12 -12 -12 -12 -12 -12 -13 -13 -13 -14 -14 -15 -15 -16 -16 -17 -17 -18 -19 -19 -20 -21 -21 -22 -22 -22 -23 -23 -23 -23 -23 -23 -23 -23
-9 -9 -9 -10 -10 -11 -11 -11 -11 -11 -12 -12 -12 -12 -12 -13 -13 -14 -14 -14 -15 -15 -16 -16 -17 -18 -18 -19 -19 -20 -20 -21 -22 -22 -22 -23 -23 -23 -23 -24 -24 -24 -24 -24
-9 -9 -10 -10 -11 -11 -11 -11 -12 -12 -12 -12 -12 -12 -13 -13 -13 -14 -14 -15 -16 -16 -16 -17 -18 -18 -19 -19 -20 -20 -21 -21 -22 -23 -23 -23 -23 -23 -23 -24 -24 -24 -24 -24
-10 -10 -10 -10 -11 -11 -11 -12 -12 -12 -12 -13 -13 -13 -13 -13 -14 -14 -15 -15 -16 -16 -17 -18 -18 -19 -19 -20 -20 -21 -21 -22 -22 -23 -23 -23 -24 -24 -24 -24 -24 -24 -24 -24
-10 -10 -11 -11 -11 -12 -12 -12 -12 -12 -12 -13 -13 -13 -14 -14 -14 -15 -16 -16 -17 -17 -18 -18 -19 -19 -20 -20 -21 -21 -22 -22 -23 -23 -23 -24 -24 -24 -24 -24 -24 -25 -25 -25

GFSNGP_700_temp_165.txt.gz
Temp
-1 -1 -1 -2 -0 1 -0 1 -1 0 1 1 0 -0 -1 -1 -2 -2 -2 -3 -4 -5 -6 -6 -6 -6 -6 -7 -7 -7 -7 -7 -7 -7 -7 -7 -7 -7 -7 -7 -7 -7 -7 -7
-3 -2 -4 -2 -1 0 0 0 -0 0 0 1 0 -0 -1 -1 -2 -2 -3 -4 -5 -6 -6 -6 -6 -7 -7 -7 -7 -8 -8 -8 -8 -8 -8 -7 -7 -7 -7 -7 -7 -7 -7 -7
-5 -3 -3 -4 -2 -1 -1 -1 -0 -0 0 -0 -1 -1 -2 -2 -2 -3 -4 -5 -6 -6 -6 -6 -7 -7 -7 -8 -8 -8 -8 -8 -8 -8 -8 -8 -8 -8 -8 -8 -8 -8 -8 -7
-5 -6 -5 -3 -2 -2 -1 -1 -1 -1 -1 -1 -1 -2 -3 -3 -3 -4 -5 -6 -6 -6 -7 -7 -8 -8 -8 -8 -8 -8 -8 -8 -8 -8 -8 -8 -8 -8 -8 -8 -8 -8 -8 -8
-5 -6 -3 -3 -3 -2 -1 -1 -1 -1 -1 -1 -2 -3 -3 -3 -3 -5 -6 -6 -7 -7 -7 -8 -8 -8 -8 -8 -8 -8 -9 -9 -8 -8 -8 -8 -8 -8 -8 -9 -9 -9 -9 -8
-6 -5 -4 -2 -2 -2 -2 -2 -1 -1 -2 -2 -3 -4 -4 -4 -5 -5 -6 -7 -7 -8 -8 -8 -8 -8 -8 -9 -9 -9 -9 -9 -9 -9 -9 -9 -9 -9 -9 -9 -9 -9 -9 -9
-6 -5 -4 -3 -3 -3 -4 -2 -2 -2 -3 -3 -4 -4 -5 -5 -6 -7 -7 -8 -8 -8 -8 -9 -9 -9 -9 -9 -9 -9 -9 -9 -9 -9 -9 -9 -10 -10 -10 -10 -10 -10 -10 -10
-6 -6 -5 -3 -4 -4 -3 -3 -3 -4 -4 -4 -5 -5 -6 -7 -7 -7 -8 -8 -8 -8 -9 -9 -9 -9 -9 -9 -9 -9 -9 -10 -10 -10 -10 -10 -10 -11 -11 -11 -11 -11 -11 -11
-5 -4 -3 -3 -4 -4 -4 -4 -4 -4 -5 -5 -6 -6 -7 -7 -7 -7 -8 -8 -9 -9 -9 -9 -9 -10 -10 -10 -10 -10 -10 -10 -10 -10 -11 -11 -11 -12 -12 -12 -13 -13 -13 -13
-6 -5 -4 -4 -4 -4 -4 -5 -5 -6 -6 -6 -7 -7 -7 -7 -8 -8 -9 -9 -9 -9 -10 -10 -10 -10 -10 -10 -10 -10 -11 -11 -11 -11 -12 -12 -13 -13 -14 -14 -15 -15 -15 -16
-5 -5 -4 -5 -5 -5 -5 -5 -6 -6 -7 -7 -7 -7 -8 -8 -9 -9 -9 -9 -10 -10 -10 -10 -10 -10 -10 -10 -11 -11 -11 -11 -12 -12 -13 -14 -14 -15 -16 -16 -17 -17 -18 -18
-4 -4 -5 -4 -5 -5 -6 -6 -7 -7 -7 -7 -8 -8 -8 -9 -9 -9 -10 -10 -10 -10 -10 -10 -10 -10 -10 -11 -11 -11 -11 -12 -13 -13 -14 -15 -16 -17 -17 -18 -18 -18 -19 -19
-5 -5 -5 -5 -6 -6 -7 -7 -7 -8 -8 -8 -8 -9 -9 -9 -10 -10 -10 -10 -10 -10 -10 -10 -10 -11 -11 -11 -11 -12 -12 -13 -14 -14 -15 -16 -17 -17 -17 -18 -19 -19 -20 -20
-5 -6 -5 -6 -6 -6 -7 -8 -8 -8 -8 -9 -9 -9 -9 -10 -10 -10 -10 -10 -11 -11 -11 -11 -11 -11 -11 -11 -12 -13 -13 -14 -15 -15 -16 -17 -17 -18 -18 -19 -19 -19 -20 -20
-6 -6 -6 -6 -6 -7 -8 -8 -9 -9 -9 -9 -9 -10 -10 -10 -10 -10 -11 -11 -11 -11 -11 -11 -11 -11 -12 -12 -13 -14 -14 -15 -16 -16 -17 -18 -18 -19 -19 -19 -20 -20 -20 -20
-6 -6 -6 -6 -7 -8 -8 -8 -9 -9 -9 -9 -10 -10 -10 -10 -11 -11 -11 -11 -11 -11 -11 -12 -12 -12 -13 -13 -14 -14 -15 -15 -16 -17 -18 -19 -19 -19 -20 -20 -20 -21 -21 -21
-6 -6 -6 -7 -7 -7 -8 -9 -9 -9 -9 -10 -10 -10 -10 -11 -11 -11 -11 -11 -11 -11 -12 -12 -12 -13 -13 -14 -15 -15 -16 -16 -17 -18 -18 -19 -19 -20 -20 -20 -21 -21 -21 -21
-7 -7 -7 -7 -7 -7 -8 -8 -9 -9 -10 -10 -10 -10 -11 -11 -11 -11 -12 -12 -12 -12 -12 -13 -13 -13 -14 -15 -15 -16 -16 -17 -18 -18 -19 -20 -20 -21 -21 -21 -21 -22 -22 -22
-7 -7 -7 -7 -7 -8 -9 -9 -9 -10 -10 -10 -10 -11 -11 -11 -11 -12 -12 -12 -12 -12 -13 -13 -13 -14 -15 -15 -16 -16 -17 -18 -18 -19 -20 -20 -21 -21 -21 -22 -22 -22 -22 -22
-7 -7 -7 -7 -8 -8 -9 -9 -10 -10 -10 -11 -11 -11 -11 -12 -12 -12 -12 -12 -12 -13 -13 -13 -14 -15 -15 -16 -16 -17 -18 -18 -19 -20 -20 -21 -21 -22 -22 -22 -22 -23 -23 -23
-7 -7 -8 -8 -8 -9 -9 -10 -10 -10 -11 -11 -11 -11 -11 -12 -12 -12 -12 -12 -13 -13 -14 -14 -14 -15 -16 -16 -17 -18 -18 -19 -19 -20 -21 -21 -22 -22 -22 -23 -23 -23 -23 -23
-8 -8 -8 -8 -9 -9 -9 -10 -10 -10 -11 -11 -11 -11 -12 -12 -12 -12 -13 -13 -13 -14 -14 -14 -15 -16 -16 -17 -17 -18 -19 -19 -20 -20 -21 -22 -22 -22 -23 -23 -23 -23 -23 -23
-8 -8 -9 -9 -9 -9 -10 -10 -10 -11 -11 -11 -11 -12 -12 -12 -12 -13 -13 -13 -14 -14 -15 -15 -16 -16 -17 -17 -18 -18 -19 -20 -20 -21 -21 -22 -22 -23 -23 -23 -23 -23 -24 -24
-8 -9 -9 -9 -10 -10 -10 -11 -11 -11 -11 -12 -12 -12 -12 -13 -13 -13 -14 -14 -14 -15 -15 -16 -16 -17 -17 -18 -18 -19 -19 -20 -21 -21 -22 -22 -23 -23 -23 -23 -24 -24 -24 -24
-9 -9 -9 -10 -10 -10 -11 -11 -11 -11 -12 -12 -12 -12 -13 -13 -13 -14 -14 -15 -15 -15 -16 -16 -17 -17 -18 -18 -19 -19 -20 -20 -21 -21 -22 -23 -23 -23 -23 -23 -23 -24 -24 -24
-9 -9 -10 -10 -10 -11 -11 -11 -11 -12 -12 -12 -13 -13 -13 -14 -14 -14 -15 -15 -16 -16 -17 -17 -18 -18 -18 -19 -19 -20 -20 -21 -21 -22 -22 -22 -23 -23 -23 -24 -24 -24 -25 -25
-9 -10 -10 -11 -11 -11 -11 -12 -12 -12 -12 -13 -13 -13 -14 -14 -14 -15 -15 -16 -16 -17 -17 -18 -18 -19 -19 -20 -20 -20 -21 -21 -21 -22 -22 -23 -23 -23 -23 -24 -24 -25 -25 -25

GFSNGP_700_temp_168.txt.gz
Temp
-2 -2 -1 -3 -2 -1 -2 -0 -1 -0 -2 0 1 1 1 0 -0 -1 -1 -2 -2 -3 -4 -5 -6 -6 -6 -6 -6 -7 -7 -8 -7 -7 -7 -7 -7 -7 -7 -7 -7 -7 -8 -8
-3 -2 -3 -3 -4 -2 -2 -2 -1 -1 0 1 1 1 0 0 -1 -1 -2 -2 -3 -3 -5 -6 -6 -6 -6 -6 -7 -8 -8 -8 -8 -8 -8 -8 -8 -8 -8 -8 -8 -8 -8 -8
-4 -4 -4 -4 -2 -3 -2 -1 -2 -1 -0 0 0 0 -0 -1 -1 -2 -2 -3 -3 -4 -6 -6 -6 -7 -7 -7 -8 -8 -8 -8 -8 -8 -8 -8 -8 -8 -8 -8 -8 -8 -8 -8
-5 -5 -4 -2 -2 -1 -2 -2 -2 -1 -1 -0 -0 -0 -1 -2 -2 -3 -3 -3 -4 -5 -6 -7 -7 -7 -7 -8 -8 -8 -8 -8 -8 -8 -8 -8 -8 -8 -8 -9 -9 -9 -8 -8
-5 -5 -3 -3 -2 -1 -2 -1 -2 -2 -2 -1 -0 -1 -2 -2 -3 -3 -4 -5 -6 -6 -7 -7 -7 -7 -8 -8 -8 -9 -8 -8 -8 -8 -8 -9 -9 -9 -9 -9 -9 -9 -9 -9
-5 -4 -3 -1 -1 -2 -3 -3 -2 -1 -1 -1 -1 -2 -3 -3 -3 -3 -4 -5 -6 -7 -7 -7 -7 -8 -8 -9 -9 -9 -9 -9 -9 -9 -9 -9 -9 -9 -9 -10 -10 -10 -10 -11
-6 -5 -3 -2 -2 -3 -3 -1 -1 -1 -1 -1 -2 -3 -3 -3 -4 -4 -5 -6 -7 -7 -7 -8 -8 -9 -9 -9 -9 -9 -9 -9 -9 -9 -9 -9 -10 -10 -10 -10 -10 -11 -11 -12
-6 -5 -4 -2 -3 -3 -2 -2 -2 -2 -2 -2 -3 -4 -4 -4 -5 -6 -6 -7 -7 -7 -8 -8 -9 -9 -9 -9 -9 -9 -9 -9 -9 -10 -10 -10 -10 -11 -11 -11 -12 -13 -14 -15
-5 -4 -3 -3 -3 -2 -2 -2 -3 -3 -3 -4 -4 -4 -5 -5 -6 -6 -7 -7 -8 -8 -9 -9 -9 -9 -9 -9 -9 -9 -9 -10 -10 -10 -11 -11 -11 -12 -12 -13 -14 -15 -15 -16
-6 -4 -4 -4 -3 -4 -4 -4 -3 -4 -4 -5 -5 -5 -6 -6 -7 -7 -7 -8 -9 -9 -9 -9 -10 -10 -10 -10 -10 -10 -10 -10 -11 -11 -11 -12 -12 -13 -14 -14 -15 -16 -16 -16
-5 -6 -5 -5 -5 -5 -6 -4 -4 -5 -5 -6 -6 -6 -7 -7 -7 -8 -8 -9 -9 -9 -10 -10 -10 -10 -10 -10 -10 -10 -11 -11 -11 -12 -12 -13 -13 -14 -15 -16 -16 -17 -17 -17
-5 -5 -5 -5 -6 -5 -5 -5 -5 -6 -6 -6 -7 -7 -7 -8 -8 -8 -9 -9 -10 -10 -10 -10 -10 -10 -10 -10 -11 -11 -11 -12 -12 -12 -13 -13 -15 -16 -16 -17 -17 -18 -18 -19
-6 -6 -6 -6 -6 -5 -6 -6 -6 -7 -7 -7 -8 -8 -8 -8 -9 -9 -10 -10 -10 -10 -10 -10 -10 -10 -11 -11 -11 -12 -12 -12 -13 -13 -14 -14 -15 -16 -17 -18 -18 -18 -19 -19
-6 -7 -7 -7 -6 -6 -6 -6 -7 -7 -8 -8 -8 -8 -9 -9 -9 -10 -10 -10 -10 -10 -11 -10 -11 -11 -11 -12 -12 -12 -12 -13 -13 -14 -14 -15 -16 -17 -18 -18 -19 -19 -19 -20
-7 -8 -7 -6 -6 -6 -6 -7 -8 -8 -8 -8 -9 -9 -9 -10 -10 -10 -10 -10 -11 -11 -11 -11 -11 -12 -12 -12 -12 -12 -13 -13 -14 -15 -15 -16 -17 -18 -18 -19 -19 -20 -20 -20
-7 -7 -6 -6 -6 -6 -7 -7 -8 -8 -9 -9 -9 -9 -9 -10 -10 -10 -11 -11 -11 -11 -11 -11 -12 -12 -12 -12 -13 -13 -13 -14 -15 -15 -16 -17 -17 -18 -19 -20 -20 -20 -20 -21
-7 -6 -6 -6 -7 -7 -8 -8 -9 -9 -9 -9 -9 -10 -10 -10 -10 -11 -11 -11 -11 -11 -11 -12 -12 -12 -13 -13 -13 -14 -14 -15 -15 -16 -16 -17 -18 -19 -20 -20 -21 -21 -21 -21
-7 -7 -7 -7 -6 -7 -7 -8 -8 -8 -9 -9 -9 -10 -10 -10 -11 -11 -11 -11 -11 -12 -12 -12 -13 -13 -13 -14 -14 -14 -15 -15 -16 -16 -17 -18 -19 -20 -20 -21 -21 -21 -22 -22
-7 -7 -7 -6 -7 -8 -8 -8 -9 -9 -9 -9 -10 -10 -10 -10 -11 -11 -11 -12 -12 -12 -12 -13 -13 -13 -14 -14 -14 -15 -15 -16 -16 -17 -18 -18 -19 -20 -21 -21 -22 -22 -22 -22
-7 -7 -7 -7 -7 -8 -8 -8 -9 -9 -9 -10 -10 -10 -11 -11 -11 -12 -12 -12 -12 -13 -13 -13 -14 -14 -14 -15 -15 -16 -16 -17 -17 -18 -18 -19 -20 -20 -21 -22 -22 -22 -23 -23
-7 -7 -7 -7 -7 -8 -9 -9 -9 -10 -10 -10 -11 -11 -11 -11 -12 -12 -12 -12 -13 -13 -13 -14 -14 -15 -15 -15 -16 -16 -17 -17 -18 -18 -19 -19 -20 -21 -21 -22 -22 -23 -23 -23
-7 -7 -8 -8 -8 -9 -9 -9 -10 -10 -10 -11 -11 -11 -12 -12 -12 -12 -13 -13 -13 -13 -14 -14 -15 -15 -16 -16 -17 -17 -17 -18 -18 -19 -19 -20 -20 -21 -22 -22 -22 -22 -23 -23
-8 -8 -8 -9 -9 -9 -10 -10 -10 -10 -11 -11 -11 -11 -12 -12 -12 -13 -13 -13 -14 -14 -14 -15 -15 -16 -16 -17 -17 -18 -18 -18 -19 -19 -20 -20 -21 -21 -22 -22 -22 -23 -23 -23
-8 -8 -9 -9 -9 -10 -10 -10 -11 -11 -11 -11 -11 -12 -12 -12 -12 -13 -13 -14 -14 -15 -15 -16 -16 -16 -17 -17 -18 -18 -19 -19 -19 -20 -20 -21 -21 -22 -22 -23 -23 -23 -23 -24
-9 -9 -9 -9 -10 -10 -10 -11 -11 -11 -11 -12 -12 -12 -12 -13 -13 -13 -14 -14 -15 -15 -16 -16 -17 -17 -18 -18 -18 -19 -19 -19 -20 -20 -21 -21 -22 -22 -23 -23 -23 -23 -24 -24
-9 -9 -9 -9 -10 -10 -11 -11 -11 -12 -12 -12 -12 -12 -13 -13 -14 -14 -15 -15 -15 -16 -16 -17 -17 -18 -18 -19 -19 -19 -20 -20 -20 -21 -21 -21 -22 -23 -23 -23 -23 -23 -24 -24
-9 -9 -9 -10 -10 -10 -11 -11 -12 -12 -12 -12 -13 -13 -13 -14 -14 -15 -15 -16 -16 -17 -17 -18 -18 -19 -19 -19 -20 -20 -20 -21 -21 -21 -21 -22 -22 -23 -23 -23 -23 -24 -24 -24

GFSNGP_700_temp_171.txt.gz
Temp
-1 0 1 2 1 0 1 1 1 1 2 2 2 1 0 0 0 -0 -0 -1 -1 -1 -1 -2 -3 -4 -5 -6 -6 -6 -6 -6 -6 -7 -7 -7 -7 -7 -7 -7 -8 -8 -8 -8
-3 -3 -2 -1 -0 1 1 0 1 0 -1 0 1 1 1 -1 -1 -1 -2 -2 -2 -2 -2 -3 -4 -5 -6 -6 -6 -6 -6 -7 -7 -7 -7 -8 -8 -8 -8 -8 -8 -8 -8 -8
-4 -3 -2 -3 -2 -1 -1 -1 -0 0 1 0 0 -0 -0 -0 0 -0 -2 -2 -2 -3 -3 -3 -4 -6 -6 -6 -6 -7 -7 -7 -7 -8 -8 -8 -8 -8 -8 -8 -8 -9 -9 -9
-4 -4 -3 -1 -0 -0 -1 -1 -1 -1 -0 -0 -0 -0 -1 -1 -2 -1 -2 -2 -3 -3 -3 -4 -5 -6 -7 -7 -7 -7 -7 -8 -8 -8 -8 -8 -8 -8 -9 -9 -9 -9 -9 -10
-4 -4 -3 -2 -1 -1 -1 -1 -0 -1 -1 -0 -1 -2 -2 -1 -2 -2 -3 -3 -3 -3 -4 -5 -6 -7 -7 -7 -7 -7 -8 -8 -8 -8 -8 -8 -9 -9 -9 -9 -9 -9 -10 -10
-4 -3 -3 -1 -1 -1 -2 -1 0 0 -1 -1 -1 -2 -2 -1 -2 -3 -3 -3 -3 -4 -5 -6 -7 -7 -7 -7 -8 -8 -8 -8 -8 -8 -8 -9 -9 -9 -9 -9 -10 -10 -11 -12
-5 -4 -3 -2 -1 -2 -2 -0 -0 -0 -1 -1 -1 -2 -2 -2 -2 -3 -3 -3 -4 -6 -7 -7 -7 -7 -7 -8 -8 -8 -9 -9 -9 -9 -9 -9 -9 -9 -10 -10 -10 -11 -12 -13
-6 -5 -4 -3 -2 -2 -2 -2 -1 -1 -1 -1 -2 -2 -2 -3 -3 -4 -4 -4 -6 -7 -7 -7 -7 -7 -8 -8 -9 -9 -9 -9 -9 -9 -9 -10 -10 -10 -10 -10 -11 -12 -12 -13
-4 -4 -3 -3 -2 -3 -3 -2 -2 -2 -2 -2 -2 -3 -3 -4 -4 -4 -5 -6 -7 -7 -7 -7 -8 -8 -9 -9 -9 -9 -9 -9 -9 -10 -10 -10 -10 -10 -11 -11 -12 -12 -13 -14
-5 -4 -4 -4 -4 -4 -3 -3 -4 -3 -3 -3 -3 -4 -4 -4 -5 -5 -6 -7 -7 -7 -7 -8 -9 -9 -9 -9 -9 -9 -9 -10 -10 -10 -10 -10 -11 -11 -11 -12 -12 -13 -14 -15
-5 -5 -5 -5 -5 -5 -5 -4 -5 -5 -5 -5 -4 -5 -5 -5 -6 -6 -7 -7 -7 -8 -8 -9 -9 -9 -9 -9 -9 -10 -10 -10 -10 -11 -11 -11 -11 -12 -12 -13 -13 -14 -15 -16
-5 -5 -6 -5 -6 -5 -6 -5 -6 -6 -7 -5 -5 -6 -6 -6 -7 -7 -7 -8 -8 -9 -9 -9 -9 -10 -10 -10 -10 -10 -10 -11 -11 -11 -11 -12 -12 -13 -13 -13 -14 -16 -17 -17
-5 -6 -5 -5 -6 -6 -6 -7 -7 -7 -7 -6 -6 -6 -7 -7 -7 -8 -8 -9 -9 -9 -10 -10 -10 -10 -10 -10 -10 -11 -11 -11 -11 -12 -12 -12 -13 -13 -13 -15 -16 -16 -17 -18
-6 -5 -6 -7 -7 -7 -7 -7 -8 -7 -7 -7 -7 -7 -7 -8 -8 -8 -9 -9 -9 -10 -10 -10 -10 -10 -10 -11 -11 -11 -12 -12 -12 -12 -13 -13 -13 -14 -14 -14 -15 -17 -18 -19
-6 -6 -7 -7 -7 -7 -7 -8 -7 -7 -7 -7 -8 -8 -8 -8 -9 -9 -9 -10 -10 -10 -10 -10 -10 -10 -11 -11 -11 -12 -12 -13 -13 -13 -13 -14 -14 -14 -15 -15 -16 -17 -18 -19
-6 -7 -7 -7 -7 -7 -7 -7 -7 -7 -8 -8 -8 -8 -8 -9 -9 -9 -10 -10 -10 -10 -10 -10 -11 -11 -11 -12 -12 -13 -13 -13 -13 -14 -14 -14 -15 -15 -16 -16 -17 -18 -19 -20
-7 -7 -7 -7 -7 -7 -7 -7 -8 -8 -8 -8 -8 -8 -9 -9 -9 -10 -10 -10 -10 -11 -11 -11 -11 -11 -12 -12 -13 -13 -13 -14 -14 -14 -15 -15 -16 -16 -16 -17 -18 -19 -19 -20
-7 -8 -8 -8 -7 -7 -7 -8 -8 -8 -8 -8 -9 -9 -9 -10 -10 -10 -10 -11 -11 -11 -11 -11 -12 -12 -13 -13 -13 -14 -14 -14 -15 -15 -15 -16 -16 -17 -17 -18 -18 -19 -20 -21
-8 -8 -8 -7 -8 -8 -8 -8 -8 -8 -8 -9 -9 -10 -10 -10 -10 -11 -11 -11 -11 -11 -12 -12 -12 -13 -13 -14 -14 -14 -15 -15 -15 -16 -16 -16 -17 -17 -18 -18 -19 -20 -20 -21
-8 -8 -7 -7 -7 -8 -8 -8 -8 -9 -9 -9 -10 -10 -10 -10 -11 -11 -11 -11 -11 -12 -12 -12 -13 -13 -14 -14 -15 -15 -16 -16 -16 -16 -17 -17 -18 -18 -18 -19 -19 -20 -21 -21
-8 -7 -7 -7 -7 -7 -8 -9 -9 -9 -9 -10 -10 -10 -10 -11 -11 -11 -11 -11 -12 -12 -13 -13 -13 -14 -14 -15 -15 -16 -16 -17 -17 -17 -17 -18 -18 -19 -19 -20 -20 -21 -21 -22
-8 -7 -7 -8 -8 -8 -8 -9 -9 -9 -10 -10 -10 -10 -11 -11 -11 -11 -12 -12 -12 -13 -13 -13 -14 -14 -15 -16 -16 -17 -17 -17 -18 -18 -18 -19 -19 -19 -20 -20 -21 -21 -22 -22
-8 -7 -8 -8 -8 -8 -9 -9 -10 -10 -10 -10 -11 -11 -11 -11 -11 -12 -12 -12 -12 -13 -14 -14 -14 -15 -16 -16 -17 -17 -18 -18 -18 -19 -19 -19 -20 -20 -20 -21 -21 -22 -22 -23
-8 -8 -8 -8 -9 -9 -9 -9 -10 -10 -10 -11 -11 -11 -11 -11 -12 -12 -12 -13 -13 -14 -14 -14 -15 -16 -16 -17 -17 -18 -18 -19 -19 -19 -20 -20 -20 -20 -21 -21 -22 -22 -23 -23
-9 -9 -9 -9 -9 -9 -9 -10 -10 -10 -11 -11 -11 -11 -12 -12 -12 -13 -13 -13 -14 -15 -15 -15 -16 -17 -17 -18 -18 -18 -19 -19 -20 -20 -20 -20 -21 -21 -21 -22 -22 -23 -23 -23
-9 -9 -9 -9 -9 -10 -10 -10 -10 -11 -11 -11 -11 -12 -12 -12 -13 -13 -14 -14 -15 -16 -16 -16 -17 -17 -18 -18 -19 -19 -20 -20 -20 -21 -21 -21 -21 -21 -22 -22 -23 -23 -23 -23
-9 -9 -9 -9 -9 -10 -10 -10 -11 -11 -11 -12 -12 -12 -13 -13 -14 -14 -14 -15 -15 -16 -17 -17 -17 -18 -18 -19 -19 -20 -20 -20 -21 -21 -21 -21 -22 -22 -22 -23 -23 -23 -24 -24